[[{"header":{"parameterUnit":"m.s-1","parameterCategory":1,"la1":30.6,"la2":28.766,"lo1":-90.7593,"lo2":-88.6598,"dy":0.0162,"dx":0.0183,"nx":116,"ny":114,"refTime":"2024-02-25T06:00:00:Z","depth":0,"parameterNumber":2,"parameterNumberName":"U-component_of_WINDS"},"data":[0.0,0.0,0.0,0.0,0.0,0.0,0.0,0.0,0.0,0.0,0.0,0.0,0.0,0.0,0.0,0.0,0.0,0.0,0.0,0.0,0.0,0.0,0.0,0.0,0.0,0.0,0.0,0.0,0.0,0.0,0.0,0.0,0.0,0.0,0.0,0.0,0.0,0.0,0.0,0.0,0.0,0.0,0.0,0.0,0.0,0.0,0.0,0.0,0.0,0.0,0.0,0.0,0.0,0.0,0.0,0.0,0.0,0.0,0.0,0.0,0.0,0.0,0.0,0.0,0.0,0.0,0.0,0.0,0.0,0.0,0.0,0.0,0.0,0.0,0.0,0.0,0.0,0.0,0.0,0.0,0.0,0.0,0.0,0.0,0.0,0.0,0.0,0.0,0.0,0.0,0.0,0.0,0.0,0.0,0.0,0.0,0.0,0.0,0.0,0.0,0.0,0.0,0.0,0.0,0.0,0.0,0.0,0.0,0.0,0.0,0.0,0.0,0.0,0.0,0.0,0.0,0.0,0.0,0.0,0.0,0.0,0.0,0.0,0.0,0.0,0.0,0.0,0.0,0.0,0.0,0.0,0.0,0.0,0.0,0.0,0.0,0.0,0.0,0.0,0.0,0.0,0.0,0.0,0.0,0.0,0.0,0.0,0.0,0.0,0.0,0.0,0.0,0.0,0.0,0.0,0.0,0.0,0.0,0.0,0.0,0.0,0.0,0.0,0.0,0.0,0.0,0.0,0.0,0.0,0.0,0.0,0.0,0.0,0.0,0.0,0.0,0.0,0.0,0.0,0.0,0.0,0.0,0.0,0.0,0.0,0.0,0.0,0.0,0.0,0.0,0.0,0.0,0.0,0.0,0.0,0.0,0.0,0.0,0.0,0.0,0.0,0.0,0.0,0.0,0.0,0.0,0.0,0.0,0.0,0.0,0.0,0.0,0.0,0.0,0.0,0.0,0.0,0.0,0.0,0.0,0.0,0.0,0.0,0.0,0.0,0.0,0.0,0.0,0.0,0.0,0.0,0.0,0.0,0.0,0.0,0.0,0.0,0.0,0.0,0.0,0.0,0.0,0.0,0.0,0.0,0.0,0.0,0.0,0.0,0.0,0.0,0.0,0.0,0.0,0.0,0.0,0.0,0.0,0.0,0.0,0.0,0.0,0.0,0.0,0.0,0.0,0.0,0.0,0.0,0.0,0.0,0.0,0.0,0.0,0.0,0.0,0.0,0.0,0.0,0.0,0.0,0.0,0.0,0.0,0.0,0.0,0.0,0.0,0.0,0.0,0.0,0.0,0.0,0.0,0.0,0.0,0.0,0.0,0.0,0.0,0.0,0.0,0.0,0.0,0.0,0.0,0.0,0.0,0.0,0.0,0.0,0.0,0.0,0.0,0.0,0.0,0.0,0.0,0.0,0.0,0.0,0.0,0.0,0.0,0.0,0.0,0.0,0.0,0.0,0.0,0.0,0.0,0.0,0.0,0.0,0.0,0.0,0.0,0.0,0.0,0.0,0.0,0.0,0.0,0.0,0.0,0.0,0.0,0.0,0.0,0.0,0.0,0.0,0.0,0.0,0.0,0.0,0.0,0.0,0.0,0.0,0.0,0.0,0.0,0.0,0.0,0.0,0.0,0.0,0.0,0.0,0.0,0.0,0.0,0.0,0.0,0.0,0.0,0.0,0.0,0.0,0.0,0.0,0.0,0.0,0.0,0.0,0.0,0.0,0.0,0.0,0.0,0.0,0.0,0.0,0.0,0.0,0.0,0.0,0.0,0.0,0.0,0.0,0.0,0.0,0.0,0.0,0.0,0.0,0.0,0.0,0.0,0.0,0.0,0.0,0.0,0.0,0.0,0.0,0.0,0.0,0.0,0.0,0.0,0.0,0.0,0.0,0.0,0.0,0.0,0.0,0.0,0.0,0.0,0.0,0.0,0.0,0.0,0.0,0.0,0.0,0.0,0.0,0.0,0.0,0.0,0.0,0.0,0.0,0.0,0.0,0.0,0.0,0.0,0.0,0.0,0.0,0.0,0.0,0.0,0.0,0.0,0.0,0.0,0.0,0.0,0.0,0.0,0.0,0.0,0.0,0.0,0.0,0.0,0.0,0.0,0.0,0.0,0.0,0.0,0.0,0.0,0.0,0.0,0.0,0.0,0.0,0.0,0.0,0.0,0.0,0.0,0.0,0.0,0.0,0.0,0.0,0.0,0.0,0.0,0.0,0.0,0.0,0.0,0.0,0.0,0.0,0.0,0.0,0.0,0.0,0.0,0.0,0.0,0.0,0.0,0.0,0.0,0.0,0.0,0.0,0.0,0.0,0.0,0.0,0.0,0.0,0.0,0.0,0.0,0.0,0.0,0.0,0.0,0.0,0.0,0.0,0.0,0.0,0.0,0.0,0.0,0.0,0.0,0.0,0.0,0.0,0.0,0.0,0.0,0.0,0.0,0.0,0.0,0.0,0.0,0.0,0.0,0.0,0.0,0.0,0.0,0.0,0.0,0.0,0.0,0.0,0.0,0.0,0.0,0.0,0.0,0.0,0.0,0.0,0.0,0.0,0.0,0.0,0.0,0.0,0.0,0.0,0.0,0.0,0.0,0.0,0.0,0.0,0.0,0.0,0.0,0.0,0.0,0.0,0.0,0.0,0.0,0.0,0.0,0.0,0.0,0.0,0.0,0.0,0.0,0.0,0.0,0.0,0.0,0.0,0.0,0.0,0.0,0.0,0.0,0.0,0.0,0.0,0.0,0.0,0.0,0.0,0.0,0.0,0.0,0.0,0.0,0.0,0.0,0.0,0.0,0.0,0.0,0.0,0.0,0.0,0.0,0.0,0.0,0.0,0.0,0.0,0.0,0.0,0.0,0.0,0.0,0.0,0.0,0.0,0.0,0.0,0.0,0.0,0.0,0.0,0.0,0.0,0.0,0.0,0.0,0.0,0.0,0.0,0.0,0.0,0.0,0.0,0.0,0.0,0.0,0.0,0.0,0.0,0.0,0.0,0.0,0.0,0.0,0.0,0.0,0.0,0.0,0.0,0.0,0.0,0.0,0.0,0.0,0.0,0.0,0.0,0.0,0.0,0.0,0.0,0.0,0.0,0.0,0.0,0.0,0.0,0.0,0.0,0.0,0.0,0.0,0.0,0.0,0.0,0.0,0.0,0.0,0.0,0.0,0.0,0.0,0.0,0.0,0.0,0.0,0.0,0.0,0.0,0.0,0.0,0.0,0.0,0.0,0.0,0.0,0.0,0.0,0.0,0.0,0.0,0.0,0.0,0.0,0.0,0.0,0.0,0.0,0.0,0.0,0.0,0.0,0.0,0.0,0.0,0.0,0.0,0.0,0.0,0.0,0.0,0.0,0.0,0.0,0.0,0.0,0.0,0.0,0.0,0.0,0.0,0.0,0.0,0.0,0.0,0.0,0.0,0.0,0.0,0.0,0.0,0.0,0.0,0.0,0.0,0.0,0.0,0.0,0.0,0.0,0.0,0.0,0.0,0.0,0.0,0.0,0.0,0.0,0.0,0.0,0.0,0.0,0.0,0.0,0.0,0.0,0.0,0.0,0.0,0.0,0.0,0.0,0.0,0.0,0.0,0.0,0.0,0.0,0.0,0.0,0.0,0.0,0.0,0.0,0.0,0.0,0.0,0.0,0.0,0.0,0.0,0.0,0.0,0.0,0.0,0.0,0.0,0.0,0.0,0.0,0.0,0.0,0.0,0.0,0.0,0.0,0.0,0.0,0.0,0.0,0.0,0.0,0.0,0.0,0.0,0.0,0.0,0.0,0.0,0.0,0.0,0.0,0.0,0.0,0.0,0.0,0.0,0.0,0.0,0.0,0.0,0.0,0.0,0.0,0.0,0.0,0.0,0.0,0.0,0.0,0.0,0.0,0.0,0.0,0.0,0.0,0.0,0.0,0.0,0.0,0.0,0.0,0.0,0.0,0.0,0.0,0.0,0.0,0.0,0.0,0.0,0.0,0.0,0.0,0.0,0.0,0.0,0.0,0.0,0.0,0.0,0.0,0.0,0.0,0.0,0.0,0.0,0.0,0.0,0.0,0.0,0.0,0.0,0.0,0.0,0.0,0.0,0.0,0.0,0.0,0.0,0.0,0.0,0.0,0.0,0.0,0.0,0.0,0.0,0.0,0.0,0.0,0.0,0.0,0.0,0.0,0.0,0.0,0.0,0.0,0.0,0.0,0.0,0.0,0.0,0.0,0.0,0.0,0.0,0.0,0.0,0.0,0.0,0.0,0.0,0.0,0.0,0.0,0.0,0.0,0.0,0.0,0.0,0.0,0.0,0.0,0.0,0.0,0.0,0.0,0.0,0.0,0.0,0.0,0.0,0.0,0.0,0.0,0.0,0.0,0.0,0.0,0.0,0.0,0.0,0.0,0.0,0.0,0.0,0.0,0.0,0.0,0.0,0.0,0.0,0.0,0.0,0.0,0.0,0.0,0.0,0.0,0.0,0.0,0.0,0.0,0.0,0.0,0.0,0.0,0.0,0.0,0.0,0.0,0.0,0.0,0.0,0.0,0.0,0.0,0.0,0.0,0.0,0.0,0.0,0.0,0.0,0.0,0.0,0.0,0.0,0.0,0.0,0.0,0.0,0.0,0.0,0.0,0.0,0.0,0.0,0.0,0.0,0.0,0.0,0.0,0.0,0.0,0.0,0.0,0.0,0.0,0.0,0.0,0.0,0.0,0.0,0.0,0.0,0.0,0.0,0.0,0.0,0.0,0.0,0.0,0.0,0.0,0.0,0.0,0.0,0.0,0.0,0.0,0.0,0.0,0.0,0.0,0.0,0.0,0.0,0.0,0.0,0.0,0.0,0.0,0.0,0.0,0.0,0.0,0.0,0.0,0.0,0.0,0.0,0.0,0.0,0.0,0.0,0.0,0.0,0.0,0.0,0.0,0.0,0.0,0.0,0.0,0.0,0.0,0.0,0.0,0.0,0.0,0.0,0.0,0.0,0.0,0.0,0.0,0.0,0.0,0.0,0.0,0.0,0.0,0.0,0.0,0.0,0.0,0.0,0.0,0.0,0.0,0.0,0.0,0.0,0.0,0.0,0.0,0.0,0.0,0.0,0.0,0.0,0.0,0.0,0.0,0.0,0.0,0.0,0.0,0.0,0.0,0.0,0.0,0.0,0.0,0.0,0.0,0.0,0.0,0.0,0.0,0.0,0.0,0.0,0.0,0.0,0.0,0.0,0.0,0.0,0.0,0.0,0.0,0.0,0.0,0.0,0.0,0.0,0.0,0.0,0.0,0.0,0.0,0.0,0.0,0.0,0.0,0.0,0.0,0.0,0.0,0.0,0.0,0.0,0.0,0.0,0.0,0.0,0.0,0.0,0.0,0.0,0.0,0.0,0.0,0.0,0.0,0.0,0.0,0.0,0.0,0.0,0.0,0.0,0.0,0.0,0.0,0.0,0.0,0.0,0.0,0.0,0.0,0.0,0.0,0.0,0.0,0.0,0.0,0.0,0.0,0.0,0.0,0.0,0.0,0.0,0.0,0.0,0.0,0.0,0.0,0.0,0.0,0.0,0.0,0.0,0.0,0.0,0.0,0.0,0.0,0.0,0.0,0.0,0.0,0.0,0.0,0.0,0.0,0.0,0.0,0.0,0.0,0.0,0.0,0.0,0.0,0.0,0.0,0.0,0.0,0.0,0.0,0.0,0.0,0.0,0.0,0.0,0.0,0.0,0.0,0.0,0.0,0.0,0.0,0.0,0.0,0.0,0.0,0.0,0.0,0.0,0.0,0.0,0.0,0.0,0.0,0.0,0.0,0.0,0.0,0.0,0.0,0.0,0.0,0.0,0.0,0.0,0.0,0.0,0.0,0.0,0.0,0.0,0.0,0.0,0.0,0.0,0.0,0.0,0.0,0.0,0.0,0.0,0.0,0.0,0.0,0.0,0.0,0.0,0.0,0.0,0.0,0.0,0.0,0.0,0.0,0.0,0.0,0.0,0.0,0.0,0.0,0.0,0.0,0.0,0.0,0.0,0.0,0.0,0.0,0.0,0.0,0.0,0.0,0.0,0.0,0.0,0.0,0.0,0.0,0.0,0.0,0.0,0.0,0.0,0.0,0.0,0.0,0.0,0.0,8.4463,0.0,0.0,0.0,0.0,0.0,0.0,0.0,0.0,0.0,0.0,0.0,0.0,0.0,0.0,0.0,0.0,0.0,0.0,0.0,0.0,0.0,0.0,0.0,0.0,0.0,0.0,0.0,7.3372,7.3372,7.3372,7.3372,7.3372,7.3372,7.3372,7.3372,7.3372,7.3372,7.3372,7.3372,7.3372,7.3372,7.341,7.3781,7.3744,7.3372,0.0,0.0,0.0,0.0,0.0,0.0,0.0,0.0,0.0,0.0,0.0,0.0,0.0,0.0,0.0,0.0,0.0,0.0,0.0,0.0,0.0,0.0,0.0,0.0,0.0,0.0,0.0,0.0,0.0,0.0,0.0,0.0,0.0,0.0,0.0,0.0,0.0,0.0,0.0,0.0,0.0,0.0,0.0,0.0,0.0,0.0,0.0,0.0,0.0,0.0,0.0,0.0,0.0,0.0,0.0,0.0,0.0,0.0,0.0,0.0,0.0,0.0,0.0,0.0,0.0,0.0,0.0,0.0,0.0,0.0,0.0,8.5214,0.0,0.0,0.0,0.0,0.0,0.0,0.0,0.0,0.0,0.0,0.0,0.0,0.0,0.0,0.0,0.0,0.0,0.0,0.0,0.0,0.0,0.0,0.0,7.3372,7.3372,7.3372,7.3372,7.3372,7.3372,7.3372,7.3372,7.3372,7.3372,7.3372,7.3372,7.3372,7.3372,7.3372,7.3521,7.367,7.3818,7.4487,7.445,7.3818,7.3818,0.0,0.0,0.0,0.0,0.0,0.0,0.0,0.0,0.0,0.0,0.0,0.0,0.0,0.0,0.0,0.0,0.0,0.0,0.0,0.0,0.0,0.0,0.0,0.0,0.0,0.0,0.0,0.0,0.0,0.0,0.0,0.0,0.0,0.0,0.0,0.0,0.0,0.0,0.0,0.0,0.0,0.0,0.0,0.0,0.0,0.0,0.0,0.0,0.0,0.0,0.0,0.0,0.0,0.0,0.0,0.0,0.0,0.0,0.0,0.0,0.0,0.0,0.0,8.6478,8.6555,8.6594,8.7286,8.7666,8.7655,8.7117,8.6896,8.6925,0.0,0.0,0.0,0.0,0.0,0.0,0.0,0.0,0.0,0.0,0.0,0.0,0.0,0.0,0.0,0.0,0.0,0.0,0.0,0.0,0.0,0.0,7.3372,7.3372,7.3372,7.3372,7.3372,7.3372,7.3372,7.3372,7.3372,7.3372,7.3372,7.3372,7.3372,7.3372,7.3372,7.4078,7.4784,7.549,7.5564,7.5564,7.5453,7.5453,0.0,0.0,0.0,0.0,0.0,0.0,0.0,0.0,0.0,0.0,0.0,0.0,0.0,0.0,0.0,0.0,0.0,0.0,0.0,0.0,0.0,0.0,0.0,0.0,0.0,0.0,0.0,0.0,0.0,0.0,0.0,0.0,0.0,0.0,0.0,0.0,0.0,0.0,0.0,0.0,0.0,0.0,0.0,8.1093,8.1093,0.0,0.0,0.0,0.0,0.0,0.0,0.0,0.0,0.0,0.0,0.0,0.0,0.0,8.5824,8.594,8.6709,8.7132,8.7248,8.7979,8.8363,8.8363,8.8479,8.8517,8.8551,8.8534,0.0,8.8664,8.8664,0.0,0.0,0.0,0.0,0.0,0.0,0.0,0.0,0.0,0.0,0.0,0.0,0.0,0.0,0.0,0.0,0.0,0.0,0.0,0.0,0.0,7.3372,7.3372,7.3372,7.3372,7.3372,7.3372,7.3372,7.3372,7.3372,7.3372,7.3372,7.3372,7.3818,7.4301,7.4747,7.5081,7.5453,7.5787,7.627,7.653,7.653,7.6976,7.6679,7.5787,7.5787,0.0,0.0,0.0,0.0,0.0,0.0,0.0,0.0,0.0,0.0,0.0,0.0,0.0,0.0,0.0,0.0,0.0,0.0,0.0,0.0,0.0,0.0,0.0,0.0,0.0,0.0,0.0,0.0,0.0,0.0,0.0,0.0,0.0,0.0,0.0,0.0,0.0,0.0,0.0,8.1477,8.1785,8.1785,8.2208,8.2631,0.0,0.0,0.0,0.0,0.0,0.0,0.0,0.0,0.0,8.6286,8.6632,8.7055,8.7555,8.794,8.8132,8.8132,8.8517,8.8709,8.8709,8.9171,8.9363,8.9402,8.9898,9.0191,9.0242,8.9308,8.8952,8.905,0.0,0.0,0.0,0.0,8.9201,8.9201,0.0,0.0,0.0,0.0,0.0,0.0,0.0,0.0,0.0,0.0,0.0,0.0,7.3372,7.3372,7.3372,7.3372,7.3372,7.3372,7.3372,7.3372,7.3372,7.3372,7.3595,7.3707,7.3707,7.4487,7.5304,7.6121,7.6121,7.6233,7.6456,7.7087,7.7385,7.7422,7.8016,7.7608,7.6419,7.6419,7.6419,0.0,0.0,0.0,0.0,0.0,0.0,0.0,0.0,0.0,0.0,0.0,0.0,0.0,0.0,0.0,0.0,0.0,0.0,0.0,0.0,0.0,0.0,0.0,0.0,0.0,0.0,0.0,0.0,0.0,0.0,0.0,0.0,0.0,0.0,0.0,0.0,0.0,0.0,8.19,8.2362,8.2593,8.3208,8.367,0.0,0.0,0.0,0.0,0.0,0.0,8.5517,8.6094,8.6824,8.7709,8.7709,8.8017,8.8671,8.8902,8.9017,8.9017,8.921,8.9325,8.9363,8.9979,9.0248,9.0287,9.0941,9.1245,9.1159,8.9986,8.9548,8.9578,8.9668,8.9697,8.9697,8.9792,8.982,8.982,0.0,0.0,0.0,0.0,0.0,0.0,0.0,0.0,0.0,0.0,0.0,7.3372,7.3372,7.3372,7.3372,7.3372,7.3372,7.3372,7.3372,7.3372,7.3372,7.3372,7.4115,7.4524,7.4524,7.5304,7.6159,7.7013,7.7013,7.7422,7.8165,7.8202,7.8239,7.8239,7.8276,7.8239,7.8165,7.8165,7.8165,7.809,0.0,0.0,0.0,0.0,0.0,0.0,0.0,0.0,0.0,0.0,0.0,0.0,0.0,0.0,0.0,0.0,0.0,0.0,0.0,0.0,0.0,0.0,0.0,0.0,0.0,0.0,0.0,0.0,0.0,0.0,0.0,0.0,0.0,0.0,0.0,0.0,0.0,0.0,0.0,8.3439,8.3555,0.0,0.0,0.0,0.0,8.594,8.6017,8.6401,8.7209,8.7325,8.7709,8.8594,8.8632,8.8671,8.8709,8.9479,8.9863,8.9863,9.0671,9.1056,9.1095,9.1133,9.1133,9.1133,9.1171,9.121,9.1245,9.1258,9.1354,9.1484,9.1533,9.1561,9.1561,9.1561,9.1561,9.1561,0.0,0.0,0.0,0.0,0.0,0.0,0.0,0.0,7.3372,7.3372,7.3372,7.3372,7.3372,7.3372,7.3372,7.3372,7.3372,7.3372,7.3372,7.3372,7.3632,7.4153,7.445,7.5081,7.6159,7.6493,7.7013,7.7868,7.7868,7.8016,7.8276,7.8276,7.8276,7.8276,7.8276,7.8276,7.8276,7.8276,7.8276,7.8239,7.7979,7.7868,0.0,0.0,0.0,0.0,0.0,0.0,0.0,0.0,0.0,0.0,0.0,0.0,0.0,0.0,0.0,0.0,0.0,0.0,0.0,0.0,0.0,0.0,0.0,0.0,0.0,0.0,0.0,0.0,0.0,0.0,0.0,0.0,0.0,0.0,0.0,0.0,0.0,8.4401,8.4901,0.0,8.5632,8.567,8.6017,8.6863,8.694,8.7325,8.8171,8.8248,8.8632,8.944,8.9479,8.9748,9.0287,9.0594,9.0748,9.0748,9.1633,9.2056,9.2056,9.2556,9.2826,9.2826,9.2826,9.2826,9.2826,9.2965,9.2376,9.1406,9.16,9.1938,9.2432,9.2499,9.2876,9.3302,0.0,0.0,0.0,0.0,0.0,0.0,0.0,0.0,7.3372,7.3372,7.3372,7.3372,7.3372,7.3372,7.3372,7.3372,7.3372,7.3372,7.3372,7.3632,7.4041,7.4561,7.5118,7.6084,7.7459,7.7496,7.7756,7.8276,7.8276,7.8276,7.8276,7.8276,7.8276,7.8276,7.8276,7.8276,7.8276,7.8276,7.8276,7.8276,7.8276,7.8276,7.8276,0.0,0.0,0.0,0.0,0.0,0.0,0.0,0.0,0.0,0.0,0.0,0.0,0.0,0.0,0.0,0.0,0.0,0.0,0.0,0.0,0.0,0.0,0.0,0.0,0.0,0.0,0.0,0.0,0.0,0.0,0.0,0.0,0.0,0.0,0.0,8.5016,8.5286,8.6055,8.6555,8.6555,8.6786,8.7209,8.7786,8.7825,8.8209,8.9056,8.9094,8.9479,9.0325,9.0364,9.0748,9.1633,9.1633,9.1787,9.2056,9.2633,9.2903,9.2903,9.3441,9.371,9.371,9.371,9.371,9.371,9.3782,9.3162,9.2122,9.2357,9.2728,9.3261,9.3359,9.3698,9.4191,0.0,0.0,0.0,0.0,0.0,0.0,0.0,7.3372,7.3372,7.3372,7.3372,7.3372,7.3372,7.3372,7.3372,7.3372,7.3372,7.341,7.341,7.4153,7.4598,7.4673,7.6233,7.7496,7.8276,7.8276,7.8276,7.8276,7.8276,7.8276,7.8276,7.8276,7.8276,7.8276,7.8276,7.8276,7.8276,7.8276,7.8276,7.8276,7.8276,7.8276,7.8276,0.0,0.0,0.0,0.0,0.0,0.0,0.0,0.0,0.0,0.0,0.0,0.0,0.0,0.0,0.0,0.0,0.0,0.0,0.0,0.0,0.0,0.0,0.0,0.0,0.0,0.0,0.0,0.0,0.0,0.0,0.0,0.0,0.0,8.4907,8.4978,8.5286,8.6055,8.6901,8.744,8.744,8.8209,8.8709,8.8709,8.8709,8.9094,8.9902,8.9979,9.0364,9.121,9.1287,9.1672,9.2518,9.2556,9.2941,9.371,9.371,9.3749,9.3749,9.3749,9.3787,9.3787,9.3787,9.3787,9.3787,9.3787,9.3787,9.3823,9.3957,9.4055,9.4149,9.4149,9.421,9.4269,0.0,0.0,0.0,0.0,0.0,0.0,0.0,7.3372,7.3372,7.3372,7.3372,7.3372,7.3372,7.3372,7.3372,7.3372,7.3372,7.3632,7.4227,7.445,7.5118,7.6344,7.7385,7.8053,7.8276,7.8276,7.8276,7.8276,7.8276,7.8276,7.8276,7.8276,7.8276,7.8276,7.8276,7.8276,7.8276,7.8276,7.8276,7.8276,7.8276,7.8276,7.8276,0.0,0.0,0.0,0.0,0.0,0.0,0.0,0.0,0.0,0.0,0.0,0.0,0.0,0.0,0.0,0.0,0.0,0.0,0.0,0.0,0.0,0.0,0.0,0.0,0.0,0.0,0.0,0.0,0.0,0.0,0.0,0.0,8.6087,8.5622,8.615,8.6611,8.6809,8.7576,8.8113,8.8113,8.8344,8.8764,8.945,8.9489,8.9835,9.0642,9.1295,9.1756,9.1986,9.2601,9.3099,9.3364,9.3364,9.3443,9.3639,9.4215,9.4484,9.4522,9.5137,9.5482,9.5595,9.5595,9.5595,9.5595,9.5595,9.5595,9.5441,9.4352,9.4376,9.4982,9.5007,9.5486,9.6087,0.0,0.0,0.0,0.0,0.0,0.0,0.0,7.3372,7.3372,7.3372,7.3372,7.3372,7.3372,7.3372,7.3372,7.3372,7.3707,7.4078,7.4561,7.523,7.6233,7.7533,7.8053,7.8276,7.8276,7.8276,7.8276,7.8276,7.8276,7.8276,7.8276,7.8276,7.8276,7.8276,7.8276,7.8276,7.8276,7.8276,7.8276,7.8276,7.8276,7.8276,7.8276,7.8276,7.8276,7.8276,7.8276,7.8276,7.8276,7.8276,0.0,0.0,0.0,0.0,0.0,0.0,0.0,0.0,0.0,0.0,0.0,0.0,0.0,0.0,0.0,0.0,0.0,0.0,0.0,0.0,0.0,0.0,0.0,0.0,8.618,8.6532,8.6421,8.7121,8.758,8.7504,8.8154,8.8651,8.8651,8.8955,8.9338,8.9955,9.0378,9.0838,9.1337,9.2181,9.2641,9.2601,9.3139,9.3639,9.4024,9.41,9.4292,9.4561,9.5021,9.5291,9.5368,9.5867,9.6136,0.0,9.6288,9.6288,9.6288,9.6288,9.6288,0.0,0.0,0.0,0.0,0.0,9.6328,9.6783,0.0,0.0,0.0,0.0,0.0,0.0,0.0,7.3372,7.3372,7.3372,7.3372,7.3372,7.3372,7.3372,7.341,7.3521,7.419,7.4673,7.4858,7.6344,7.7533,7.8239,7.8276,7.8276,7.8276,7.8276,7.8276,7.8276,7.8276,7.8351,7.8425,7.8425,7.8462,7.8573,7.8573,7.8499,7.8425,7.8425,7.8351,7.8276,7.8276,7.8276,7.8276,7.8276,7.8276,7.8276,7.8276,7.8276,7.8276,7.8276,0.0,0.0,0.0,0.0,0.0,0.0,0.0,0.0,0.0,0.0,0.0,0.0,0.0,0.0,0.0,0.0,0.0,0.0,0.0,0.0,0.0,0.0,0.0,0.0,8.6265,8.6662,8.7317,8.7927,8.8262,8.8065,8.8667,8.9076,8.9076,8.9748,9.0243,9.0378,9.1304,9.1888,9.1844,0.0,0.0,0.0,0.0,9.3774,9.4539,9.4704,9.509,9.578,9.5818,9.59,9.6019,9.6058,9.6136,9.6251,9.6288,9.6288,9.6288,9.6288,9.6288,9.6288,9.6325,9.6394,9.6525,9.6723,9.6783,9.6783,0.0,0.0,0.0,0.0,0.0,0.0,0.0,7.3372,7.3372,7.3372,7.3372,7.3372,7.3372,7.3372,7.3632,7.4301,7.4487,7.5156,7.653,7.7533,7.8128,7.8276,7.8276,7.8276,7.8276,7.8276,7.8276,7.8276,7.8276,7.8611,7.9242,7.9242,7.9614,8.0245,8.0245,7.9874,7.9242,7.9242,7.8871,7.8276,7.8276,7.8276,7.8276,7.8276,7.8276,7.8276,7.8276,7.8276,7.8276,7.8276,7.8276,7.8276,7.8276,0.0,0.0,0.0,0.0,0.0,0.0,0.0,0.0,0.0,0.0,0.0,0.0,0.0,0.0,0.0,0.0,0.0,0.0,0.0,0.0,8.6706,8.7523,8.8015,8.8204,8.887,8.9118,8.8492,8.9128,8.9659,8.9659,9.038,9.0922,9.1017,9.1824,9.2281,9.2281,9.3117,0.0,9.3573,9.423,9.4696,9.4981,9.5028,9.5058,9.5115,0.0,0.0,9.5516,9.5734,9.59,9.6136,9.6251,9.6288,9.6288,9.6288,9.6288,9.6288,9.6429,9.6497,9.6525,9.6723,9.6783,9.6783,0.0,0.0,0.0,0.0,0.0,0.0,0.0,7.3372,7.3372,7.3372,7.3372,7.3372,7.3372,7.3372,7.3707,7.4524,7.5341,7.6382,7.7608,7.8053,7.8276,7.8276,7.8276,7.8276,7.8276,7.8276,7.8499,7.8871,7.8871,7.9316,8.0097,8.0097,8.032,8.0691,8.0691,8.0468,8.0097,8.0097,7.9874,7.9465,7.9056,7.8871,7.8833,7.8425,7.8276,7.8276,7.8276,7.8276,7.8351,7.8759,7.8871,7.8945,7.9354,7.9502,7.9576,0.0,0.0,0.0,0.0,0.0,0.0,0.0,0.0,0.0,0.0,0.0,0.0,0.0,0.0,8.4824,8.5237,0.0,8.6175,8.7072,8.7598,8.8012,8.8388,8.8893,8.913,8.8974,8.9276,8.9589,8.9952,9.0314,9.0675,9.1143,9.2096,9.2655,9.2655,9.3591,9.4097,9.394,9.4372,9.4613,9.4613,9.4769,9.4769,9.4679,9.4908,9.5094,9.5286,9.5425,9.561,9.59,9.5941,9.6058,9.6098,9.6136,9.6213,9.6251,9.639,9.6492,9.6525,9.6723,9.6783,9.6783,0.0,0.0,0.0,0.0,0.0,0.0,0.0,7.3372,7.3372,7.3372,7.3372,7.3372,7.3372,7.3521,7.4004,7.497,7.6456,7.7608,7.8239,7.8276,7.8276,7.8276,7.8276,7.8276,7.8276,7.8276,7.8685,7.9502,7.9502,7.9985,8.0951,8.0951,8.1025,8.1174,8.1174,8.11,8.0951,8.0951,8.084,8.0617,7.9985,7.9725,7.9651,7.8982,7.8648,7.8536,7.8685,7.8759,7.8871,7.9502,7.9725,7.9837,8.0505,8.0691,8.0728,8.0877,8.0951,0.0,0.0,0.0,0.0,0.0,0.0,0.0,0.0,0.0,8.3992,8.3992,8.4775,8.5504,8.5545,8.605,8.6705,8.7412,8.7524,8.7823,8.8645,8.8912,8.9179,8.9663,8.9512,8.9666,9.0324,9.0434,9.0751,9.1365,9.2388,9.305,9.305,9.3916,9.4293,9.4065,9.4142,9.4104,9.399,9.418,9.4291,9.4291,9.4492,9.4741,9.4996,9.5045,9.5248,9.5566,9.5566,9.5653,9.578,9.59,9.5981,9.6058,9.6284,9.639,9.6459,9.6723,9.6783,9.6783,0.0,0.0,0.0,0.0,0.0,0.0,0.0,0.0,7.3372,7.3372,7.3372,7.3372,7.3372,7.4041,7.5081,7.6679,7.7645,7.8202,7.8276,7.8276,7.8276,7.8276,7.8276,7.8276,7.8276,7.8276,7.8685,7.9502,7.9502,8.0282,8.1843,8.1843,8.2214,8.292,8.292,8.2511,8.1843,8.1843,8.1397,8.0691,8.058,8.058,8.0542,8.0468,7.9985,7.9465,8.0171,8.0431,8.0431,8.0542,8.058,8.058,8.0654,8.0691,8.084,8.162,8.1843,8.1991,8.2734,8.292,8.2979,8.3206,8.3338,8.347,0.0,0.0,8.4685,8.4685,8.5357,8.6179,8.6889,8.7113,8.7449,8.8234,8.8383,8.8682,8.9541,8.9653,9.0012,9.0722,9.0359,9.0324,9.1034,9.1762,9.2189,9.2105,9.2928,9.3414,9.3414,9.355,9.3625,9.3563,9.3625,9.3625,9.3563,9.3587,9.3587,9.3587,9.377,9.3932,9.4217,9.4454,9.4717,9.5018,9.5115,9.5257,9.5349,9.5394,9.5528,9.5738,9.5941,9.6098,9.6284,9.6661,9.6783,9.6783,0.0,0.0,0.0,0.0,0.0,0.0,0.0,0.0,0.0,7.3372,7.3372,7.3372,7.3372,7.4524,7.5787,7.6976,7.783,7.8276,7.8276,7.8276,7.8276,7.8276,7.8276,7.8276,7.8276,7.8759,7.9391,8.0208,8.0691,8.1545,8.2697,8.2697,8.2883,8.318,8.318,8.2994,8.2697,8.2697,8.2474,8.2103,8.1657,8.1434,8.1434,8.1434,8.1248,8.0914,8.0765,8.0691,0.0,8.1285,8.1434,8.1545,8.1991,8.214,8.2214,8.2586,8.2697,8.2771,8.3106,8.318,8.318,0.0,8.3669,8.4004,8.4063,8.4717,8.5371,8.5371,8.6159,8.6868,8.7145,8.7593,8.7944,0.0,8.8642,8.9088,8.9423,9.0031,9.0689,9.151,9.147,9.1418,9.1671,9.1983,9.2331,9.2652,9.3088,9.3338,9.3338,9.3438,9.3438,9.3338,9.3338,9.3312,9.3184,9.3759,9.4047,9.4047,9.4659,9.5095,9.524,9.5418,9.5555,9.5836,9.5961,9.6158,9.6261,9.6363,9.6599,9.6837,9.6571,9.6631,9.6827,9.6685,9.6661,9.6761,0.0,0.0,0.0,0.0,0.0,0.0,0.0,0.0,0.0,0.0,7.3372,7.3558,7.4004,7.5304,7.6493,7.7347,7.7942,7.8276,7.8276,7.8276,7.8276,7.8276,7.8276,7.8276,7.8276,7.8871,7.9539,8.0357,8.1211,8.2066,8.2846,8.3106,8.318,8.318,8.318,8.318,8.318,8.318,8.318,8.3143,8.2549,8.2326,8.2326,8.2326,8.2326,8.2251,8.162,8.1397,8.1471,8.2103,8.2326,8.24,8.2994,8.318,8.318,8.318,8.318,8.318,8.318,8.3366,0.0,8.3514,8.4146,8.474,8.474,8.5395,8.611,8.611,8.684,8.7496,8.7376,8.8046,8.8506,8.8418,8.9124,8.9719,8.9942,9.0589,9.1359,9.2178,9.238,9.238,9.229,9.2354,9.2513,9.2951,9.3119,9.3146,9.3146,9.3312,9.3312,9.3146,9.337,9.3416,9.3322,9.4235,9.471,9.471,9.5437,9.5828,9.6019,9.6019,9.6168,9.6314,9.6433,9.6609,9.6724,9.6931,9.715,9.7427,9.7125,9.7216,9.7434,9.7134,9.6883,9.6731,0.0,0.0,0.0,0.0,0.0,0.0,0.0,0.0,0.0,0.0,0.0,0.0,0.0,7.653,7.7385,7.8165,7.8276,7.8276,7.8276,7.8276,7.8276,7.8276,7.8276,7.8276,7.8276,7.8313,7.8722,7.9539,8.032,8.1174,8.2028,8.2809,8.318,8.318,8.318,8.318,8.318,8.318,8.318,8.318,8.3143,8.3143,8.3143,8.3143,8.3143,8.3143,8.3106,0.0,8.3106,8.3143,8.3143,8.3143,8.318,8.318,8.318,8.318,8.318,8.318,8.318,0.0,8.4369,8.4369,8.4963,8.5558,8.5558,8.6189,8.6747,8.6747,8.7452,8.8047,8.8047,8.8716,8.9273,8.9273,8.9942,9.0722,9.1539,9.165,9.1985,9.2839,9.2951,9.2951,0.0,9.3044,9.3109,9.2988,9.2988,9.2988,9.2988,9.2988,9.2988,9.2988,9.3768,9.4177,9.4177,9.4957,9.5365,9.5365,9.5403,9.5537,9.5707,9.5865,9.5929,9.5929,9.5929,9.6019,9.6168,9.6328,9.6568,9.6875,9.715,9.7515,9.7905,9.8227,9.7672,9.6731,0.0,0.0,0.0,0.0,0.0,0.0,0.0,0.0,0.0,0.0,0.0,0.0,0.0,0.0,0.0,0.0,7.8276,7.8276,7.8276,7.8276,7.8276,7.8276,7.8276,7.8276,7.8276,7.8796,7.9205,7.9502,8.032,8.084,8.1137,8.1991,8.24,8.24,8.2957,8.318,8.318,8.318,8.318,8.318,8.318,8.318,8.318,8.318,8.318,8.318,0.0,8.318,8.318,8.318,8.318,8.318,8.318,8.318,8.3292,8.3849,8.3997,8.4109,8.4629,0.0,8.5186,8.5186,8.5781,8.6412,8.6412,8.7044,8.7638,8.7638,8.8307,8.8901,8.8901,8.9533,9.009,9.009,9.0759,9.139,9.165,9.2208,9.2653,9.2951,9.2988,0.0,0.0,0.0,0.0,9.2988,9.2988,9.2988,9.2988,9.3508,9.3805,9.3805,9.4585,9.4994,9.4994,9.5774,9.622,9.622,9.6777,9.7074,9.7143,9.7211,9.7242,9.7242,9.7242,9.7309,9.7433,9.76,9.7917,9.8185,9.7913,9.8075,9.8415,9.8096,9.7925,9.7865,0.0,0.0,0.0,0.0,0.0,0.0,0.0,0.0,0.0,0.0,0.0,0.0,0.0,0.0,0.0,0.0,0.0,7.8276,7.8276,7.8276,7.8276,7.8276,7.8276,7.8276,7.8276,7.8796,7.9056,7.9056,8.0171,8.0691,8.0728,8.188,8.24,8.2437,8.2957,8.318,8.318,8.318,8.318,8.318,8.318,8.318,8.318,8.318,8.318,0.0,8.318,8.318,8.318,8.318,8.318,8.318,8.318,8.3403,8.3737,8.4257,8.4592,8.4926,8.5446,8.5818,8.6041,8.6041,8.6635,8.7267,8.7267,8.7712,8.8158,8.8455,8.8938,8.9384,8.9681,9.0387,9.0945,9.0945,9.1613,9.2171,9.2171,9.2653,9.2988,9.2988,9.2988,9.2988,0.0,0.0,0.0,9.2988,9.2988,9.3136,9.3397,9.3917,9.4325,9.4622,9.5403,9.5848,9.5848,9.6666,9.7074,9.7074,9.7632,9.7892,9.7892,9.7892,9.7892,9.7892,9.7892,9.7961,9.8061,9.8196,9.846,9.8578,9.8388,9.8517,9.8833,9.8528,9.8697,9.9069,0.0,0.0,0.0,0.0,0.0,0.0,0.0,0.0,0.0,0.0,0.0,0.0,0.0,0.0,0.0,0.0,0.0,0.0,7.8276,7.8276,7.8276,7.8276,7.8276,7.8276,7.8276,7.8276,7.8313,7.8351,7.9874,8.0654,8.0728,8.2363,8.3143,8.3143,8.318,8.318,8.318,8.318,8.318,8.318,8.318,8.318,8.318,8.318,8.318,8.318,8.318,8.318,8.318,8.318,8.318,8.318,8.318,8.3737,8.4406,8.4443,8.5038,8.5669,8.5706,8.6301,8.6858,8.6858,8.749,8.8084,8.8084,8.8121,8.8381,8.9124,8.9347,8.9644,0.0,0.0,9.1762,9.1762,9.2468,9.2988,9.2988,9.2988,9.2988,0.0,0.0,0.0,0.0,0.0,0.0,9.3062,0.0,9.3397,9.4177,9.4288,9.466,9.544,9.6257,9.6666,9.6666,9.7483,9.7892,9.7892,9.7892,9.7892,9.7892,9.7892,9.7892,9.7892,9.7892,9.7892,9.7892,9.8023,9.8091,9.8158,9.8487,9.8805,9.9111,9.9329,9.979,10.0118,0.0,0.0,0.0,0.0,0.0,0.0,0.0,0.0,0.0,0.0,0.0,0.0,0.0,0.0,0.0,0.0,0.0,0.0,7.8276,7.8276,7.8276,7.8276,7.8276,7.8276,7.8276,7.8276,7.8573,7.9168,7.9576,8.0097,8.0728,8.1806,8.2288,8.2326,8.292,8.318,8.318,8.318,8.318,8.318,8.318,8.318,8.318,8.318,8.318,8.318,8.318,8.318,0.0,0.0,8.318,8.318,8.318,8.3737,8.4518,8.5112,8.5855,8.6635,8.7267,8.7601,8.775,8.775,8.7935,8.8084,8.8084,8.8567,8.905,8.9273,9.0239,9.1167,0.0,0.0,0.0,9.2653,9.2839,0.0,9.2988,9.2988,0.0,9.2988,0.0,9.2988,9.2988,9.3545,0.0,0.0,9.3879,9.3991,9.4177,9.5328,9.6071,9.6294,9.7112,9.7557,9.7557,9.778,9.7892,9.7892,9.7892,9.7892,9.7892,9.7892,9.7892,9.7892,9.7892,9.7892,9.7892,9.8023,9.8091,9.8091,9.8395,9.8552,9.8742,9.8829,9.9035,9.933,0.0,0.0,0.0,0.0,0.0,0.0,0.0,0.0,0.0,0.0,0.0,0.0,0.0,0.0,0.0,0.0,0.0,0.0,0.0,7.8276,7.8276,7.8276,7.8276,7.8276,7.8276,7.8276,7.8499,7.8945,7.9688,8.0245,8.0728,8.1954,8.2511,8.2549,8.2994,8.318,8.318,8.318,8.318,0.0,0.0,8.318,8.318,8.318,8.318,8.318,8.318,0.0,0.0,0.0,0.0,8.3254,8.3626,8.4257,8.5075,8.5892,0.0,8.749,8.7973,8.8084,8.8084,8.8084,8.8084,8.8195,8.853,8.8976,8.9496,9.0202,9.1056,0.0,9.2208,9.2653,0.0,0.0,0.0,0.0,9.2988,9.2988,9.2988,0.0,9.2988,0.0,9.3471,9.3954,9.4362,0.0,9.4734,9.4883,9.5217,9.6108,9.6777,9.7149,9.7632,9.7892,9.7892,9.7892,9.7892,9.7892,9.7892,9.7892,9.7892,9.7892,9.7892,9.7892,0.0,9.7892,9.7892,9.7992,9.7992,9.7992,9.8128,9.8262,9.8423,9.8423,9.8578,9.8854,0.0,0.0,0.0,0.0,0.0,0.0,0.0,0.0,0.0,0.0,0.0,0.0,0.0,0.0,0.0,0.0,0.0,0.0,0.0,0.0,7.8276,7.8276,7.8276,7.8276,7.8276,7.8276,7.8351,7.8462,7.9837,8.058,8.0728,8.2288,8.3032,8.3032,8.3143,8.318,8.318,8.318,8.318,8.318,8.318,8.318,8.318,0.0,0.0,0.0,0.0,0.0,0.0,0.0,8.318,8.3329,8.4146,8.4926,8.5743,8.6561,8.7415,8.8084,8.8084,8.8084,8.8084,8.8084,8.8158,8.8418,8.9124,8.9459,9.0016,9.1428,0.0,9.2096,9.2839,9.2988,9.2988,9.2988,0.0,9.2988,9.2988,9.2988,9.2988,9.2988,9.3099,9.3434,9.414,9.44,9.4808,9.5514,9.5663,9.5997,9.6591,9.6703,9.7112,9.7892,9.7892,9.7892,9.7892,9.7892,9.7966,9.804,9.804,9.8115,9.8226,9.8226,9.8226,9.8226,0.0,0.0,9.8226,9.8226,9.8226,9.8226,9.8226,9.8184,9.824,9.824,9.8366,9.8552,0.0,0.0,0.0,0.0,0.0,0.0,0.0,0.0,0.0,0.0,7.5713,7.6382,0.0,0.0,0.0,0.0,0.0,0.0,0.0,0.0,0.0,7.8276,7.8276,7.8276,7.8276,7.8276,7.8611,7.9279,7.9576,8.0059,8.0728,8.1731,8.2214,8.2214,8.2883,8.318,8.318,8.318,8.318,8.318,8.318,8.318,8.318,0.0,0.0,0.0,0.0,0.0,0.0,0.0,8.318,8.3329,8.4146,8.4926,8.5743,8.6561,8.7415,8.8084,8.8084,8.8084,8.8084,8.8084,8.8604,8.9124,8.9273,9.0313,0.0,0.0,9.2282,9.2802,9.2951,9.2988,9.2988,9.2988,9.2988,9.2988,9.2988,9.2988,9.2988,0.0,9.3582,0.0,0.0,0.0,0.0,0.0,0.0,9.7223,9.6629,9.7297,9.7743,9.7892,9.7892,9.7892,9.7892,9.7892,9.8226,9.8895,9.8895,9.9229,9.9898,9.9898,9.9898,9.9898,9.9898,0.0,9.9898,9.9898,9.9898,9.9898,9.9898,9.9452,9.8965,9.8965,9.8519,9.8098,0.0,0.0,0.0,0.0,0.0,0.0,0.0,7.3372,7.3967,7.5564,7.5787,7.6419,7.809,7.8276,0.0,0.0,0.0,0.0,0.0,0.0,0.0,0.0,7.8276,7.8276,7.8276,7.8276,7.8462,7.8871,0.0,7.9688,8.0097,8.0914,8.1323,8.136,8.2177,8.2586,8.2586,8.2994,8.318,8.318,8.318,8.318,0.0,0.0,0.0,0.0,0.0,0.0,0.0,0.0,8.3477,8.396,8.4778,8.5558,8.6375,8.723,8.775,8.8084,8.8084,8.8084,8.8195,8.8604,8.9013,8.9533,9.035,0.0,0.0,0.0,9.2691,9.2988,9.2988,9.2988,9.2988,9.2988,9.2988,9.2988,9.2988,9.2988,9.3136,9.3582,9.3954,9.4511,0.0,0.0,0.0,0.0,0.0,9.7706,9.7297,9.7669,9.7892,9.7892,9.7892,9.8115,9.8523,9.8523,9.8932,9.9712,9.9712,9.9935,10.0307,10.0307,10.0307,10.0307,10.0307,0.0,10.0307,10.0307,10.0307,10.0307,10.0307,10.0084,9.9712,9.9712,9.9489,9.9225,0.0,0.0,0.0,0.0,0.0,0.0,0.0,7.3521,7.4153,7.5601,7.5936,7.6642,7.8128,7.8276,7.8276,0.0,0.0,0.0,0.0,0.0,0.0,0.0,0.0,0.0,0.0,0.0,0.0,0.0,7.8908,0.0,0.0,0.0,0.0,0.0,0.0,8.1806,8.2028,8.266,8.3032,0.0,0.0,0.0,0.0,0.0,0.0,0.0,0.0,0.0,0.0,0.0,8.3997,8.4778,8.5595,8.6301,8.6969,8.7824,8.8084,8.8084,8.8084,8.8233,8.8493,8.9124,8.957,9.0164,9.1428,9.1836,0.0,9.2839,9.2988,9.2988,9.2988,9.2988,9.2988,0.0,9.2988,9.2988,9.2988,9.2988,9.3285,9.4102,9.4362,0.0,9.648,9.6777,0.0,0.0,0.0,0.0,9.7892,9.7892,9.7966,9.8152,9.8152,9.8523,9.9341,9.9378,9.9749,10.0604,10.0604,10.0604,10.0789,10.0789,10.0789,10.0789,10.0789,0.0,0.0,10.0789,10.0789,10.0789,10.0789,10.0715,10.0604,10.0604,10.0418,10.0269,0.0,0.0,0.0,0.0,0.0,0.0,0.0,7.4004,7.4784,7.5676,7.6493,7.731,7.8202,7.8276,7.8276,0.0,0.0,0.0,0.0,0.0,0.0,0.0,0.0,0.0,0.0,0.0,0.0,0.0,0.0,0.0,0.0,0.0,0.0,0.0,0.0,0.0,0.0,8.2066,0.0,0.0,0.0,0.0,0.0,0.0,0.0,0.0,0.0,0.0,0.0,0.0,0.0,8.5632,8.6449,8.6747,8.6969,8.7824,0.0,0.0,8.8084,8.8641,8.9198,8.9273,9.0387,9.1539,9.1688,0.0,9.2914,9.2988,9.2988,9.2988,9.2988,9.2988,0.0,0.0,0.0,9.2988,9.2988,9.2988,9.3285,9.4102,0.0,0.0,9.6517,9.7334,0.0,0.0,0.0,0.0,9.7892,9.7892,9.8226,9.8969,9.9006,9.9378,10.0195,10.0195,10.0604,10.1421,10.1421,10.1793,10.2498,10.2498,10.2498,10.2498,10.2498,0.0,0.0,10.2498,10.2498,10.2498,10.2498,10.2015,10.1421,10.1421,10.0901,10.0269,0.0,0.0,0.0,0.0,0.0,0.0,7.4041,7.4375,7.5081,7.6382,7.6865,7.7385,7.8202,7.8276,7.8276,0.0,0.0,0.0,0.0,0.0,0.0,0.0,0.0,0.0,0.0,0.0,0.0,7.8276,0.0,0.0,0.0,0.0,0.0,0.0,0.0,0.0,0.0,0.0,0.0,0.0,0.0,0.0,0.0,0.0,0.0,0.0,0.0,0.0,8.3329,0.0,0.0,0.0,8.6561,8.7155,0.0,0.0,8.8084,8.8084,8.8084,8.8678,8.9421,8.9904,9.087,9.1836,9.2356,0.0,9.2988,9.2988,9.2988,9.2988,9.2988,9.2988,0.0,0.0,0.0,0.0,9.2988,9.2988,9.3471,9.4771,9.5217,0.0,0.0,0.0,9.8115,0.0,0.0,0.0,9.9303,9.8895,9.9006,9.9786,9.9824,10.0195,10.1012,10.1012,10.1421,10.2201,10.2201,10.2424,10.2721,10.2721,10.2721,10.2721,10.2721,0.0,0.0,10.2721,10.2721,10.2721,10.2721,10.2498,10.2201,10.2201,10.2015,10.1793,0.0,0.0,0.0,0.0,0.0,7.4004,7.4821,7.5156,7.575,7.6939,7.731,7.7645,7.8239,7.8276,7.8276,7.8276,0.0,0.0,0.0,0.0,0.0,0.0,0.0,0.0,0.0,0.0,7.8276,7.8276,7.8276,7.8276,0.0,0.0,0.0,0.0,0.0,0.0,0.0,0.0,0.0,0.0,0.0,0.0,0.0,0.0,0.0,0.0,0.0,0.0,0.0,0.0,0.0,0.0,0.0,0.0,0.0,0.0,8.8084,8.8158,8.8381,8.905,8.983,9.0647,9.1465,9.2245,0.0,0.0,9.2988,9.2988,9.2988,9.2988,9.2988,9.2988,9.2988,0.0,0.0,9.2988,9.2988,9.2988,9.3582,9.5217,0.0,9.6071,0.0,9.8115,0.0,0.0,0.0,0.0,10.0604,10.0121,10.0084,10.0604,10.0715,10.1012,10.183,10.1904,10.2127,10.2721,10.2721,10.2721,10.2721,10.2721,10.2721,10.2721,0.0,0.0,0.0,10.2721,10.2721,10.2721,10.2721,10.2721,10.2721,10.2721,10.2721,10.2721,0.0,0.0,0.0,0.0,0.0,0.0,7.5639,7.6493,7.705,7.7087,7.7793,7.8276,7.8276,7.8276,7.8276,7.8276,7.8276,0.0,0.0,0.0,0.0,0.0,0.0,0.0,0.0,0.0,7.8276,7.8276,7.8276,7.8276,7.8276,7.8276,0.0,0.0,0.0,0.0,0.0,0.0,0.0,0.0,0.0,0.0,0.0,0.0,0.0,0.0,0.0,0.0,0.0,0.0,0.0,0.0,0.0,8.8084,8.8084,8.8084,8.8084,8.827,8.905,8.9867,9.0685,9.1502,9.2356,9.2988,0.0,9.2988,9.2988,9.2988,9.2988,9.2988,9.2988,9.2988,9.2988,0.0,0.0,0.0,9.2988,9.2988,9.3582,9.5217,9.5403,9.6071,9.7743,9.8635,0.0,0.0,0.0,0.0,10.1421,10.1495,10.1495,10.1495,10.1495,10.1904,10.2721,10.2721,10.2721,10.2721,10.2721,10.2721,10.2721,10.2721,10.2721,0.0,0.0,0.0,0.0,10.2721,10.2721,10.2721,10.2721,10.2721,10.2721,10.2721,10.2721,10.2721,0.0,0.0,0.0,0.0,0.0,0.0,0.0,7.6902,7.7273,7.783,7.8128,7.8276,7.8276,7.8276,7.8276,7.8276,7.8276,0.0,0.0,0.0,0.0,0.0,0.0,0.0,0.0,0.0,7.8276,7.8276,7.8276,7.8276,7.8276,7.8276,7.8276,7.8276,0.0,0.0,0.0,0.0,0.0,0.0,0.0,0.0,0.0,0.0,0.0,0.0,0.0,0.0,0.0,0.0,0.0,0.0,0.0,0.0,0.0,8.8084,8.8084,8.827,8.9087,8.9904,9.0685,9.1502,9.2356,9.2988,9.2988,9.2988,9.2988,9.2988,9.2988,9.2988,9.2988,9.2988,9.2988,0.0,0.0,0.0,0.0,9.2988,9.3582,9.5217,9.6406,9.7334,0.0,0.0,0.0,0.0,0.0,0.0,10.2313,10.2313,10.2313,10.2313,10.2313,10.2424,10.2721,10.2721,10.2721,10.2721,10.2721,10.2721,10.2721,10.2721,10.2721,0.0,0.0,0.0,0.0,10.2721,10.2721,10.2721,10.2721,10.2721,10.2721,10.2721,10.2721,10.2721,0.0,0.0,0.0,0.0,0.0,0.0,0.0,7.7533,7.7719,7.8202,7.8276,7.8276,7.8276,7.8276,7.8276,7.8276,7.8276,0.0,0.0,0.0,0.0,0.0,0.0,0.0,7.8276,7.8276,7.8276,7.8276,7.8276,7.8276,7.8276,7.8276,7.8276,7.8276,7.8276,7.8276,0.0,0.0,0.0,0.0,0.0,0.0,8.318,0.0,0.0,0.0,0.0,0.0,0.0,0.0,0.0,0.0,0.0,0.0,0.0,0.0,8.8307,8.8716,8.9533,9.035,9.1167,9.1985,9.2579,9.2988,9.2988,0.0,9.2988,9.2988,9.2988,9.2988,9.2988,9.2988,9.2988,0.0,0.0,0.0,0.0,0.0,0.0,9.5663,0.0,0.0,0.0,0.0,0.0,0.0,0.0,0.0,10.2721,10.2721,10.2721,10.2721,10.2721,10.2721,10.2721,10.2721,10.2721,10.2721,10.2721,10.2721,10.2721,10.2721,10.2721,0.0,0.0,0.0,0.0,10.2721,10.2721,10.2721,10.2721,10.2721,10.2721,10.2721,10.2721,10.2721,0.0,0.0,0.0,0.0,0.0,0.0,0.0,7.8276,7.8276,7.8276,7.8276,7.8276,7.8276,7.8276,7.8276,7.8276,0.0,0.0,0.0,0.0,0.0,0.0,0.0,0.0,7.8276,7.8276,7.8276,7.8276,7.8276,7.8276,7.8276,7.8276,7.8276,7.8276,7.8276,7.8313,7.8462,8.0022,8.1174,8.2066,8.2883,8.318,0.0,0.0,0.0,0.0,0.0,0.0,0.0,0.0,0.0,0.0,0.0,0.0,0.0,0.0,0.0,0.0,0.0,9.1093,9.191,9.2765,9.2988,9.2988,9.2988,0.0,0.0,9.2988,9.2988,9.2988,9.2988,9.2988,9.2988,0.0,0.0,0.0,0.0,9.3731,0.0,0.0,9.7372,0.0,0.0,0.0,0.0,0.0,0.0,0.0,10.2721,10.2721,10.2721,10.2721,10.2721,10.2721,10.2721,10.2721,10.2721,10.2721,10.2721,10.2721,10.2721,10.2721,10.2721,0.0,0.0,0.0,0.0,10.2721,10.2721,10.2721,10.2721,10.2721,10.2721,10.2721,10.2721,10.2721,0.0,0.0,0.0,0.0,0.0,0.0,0.0,0.0,0.0,0.0,7.8276,7.8276,7.8276,7.8276,7.8276,0.0,0.0,0.0,0.0,0.0,0.0,0.0,0.0,0.0,7.8276,7.8276,7.8276,7.8276,7.8276,7.8276,7.8276,7.8276,7.8276,7.8276,7.8276,7.8611,7.9279,8.0282,8.1174,8.2066,8.2883,8.318,0.0,0.0,0.0,0.0,8.318,8.318,0.0,0.0,0.0,0.0,0.0,0.0,0.0,0.0,8.9124,9.0276,9.0462,0.0,9.191,9.2765,9.2988,9.2988,0.0,0.0,0.0,0.0,0.0,9.2988,9.2988,9.2988,9.2988,0.0,0.0,9.2988,9.2988,0.0,0.0,0.0,0.0,0.0,0.0,0.0,0.0,0.0,0.0,10.2721,10.2721,10.2721,10.2721,10.2721,10.2721,10.2721,10.2721,10.2721,10.2721,10.2721,10.2721,10.2721,10.2721,10.2721,10.2721,0.0,0.0,0.0,10.2721,10.2721,10.2721,10.2721,10.2721,10.2721,10.2721,10.2721,10.2721,10.2721,0.0,0.0,0.0,0.0,0.0,0.0,0.0,0.0,0.0,0.0,0.0,0.0,0.0,0.0,0.0,0.0,0.0,0.0,0.0,0.0,0.0,0.0,0.0,7.8276,7.8276,7.8276,7.8276,7.8276,7.8276,7.8276,7.8276,7.8276,7.8276,7.8276,7.8276,7.8722,7.9539,8.0357,8.1174,8.2066,8.2883,0.0,0.0,0.0,0.0,0.0,8.318,8.344,0.0,8.5186,8.5855,8.6375,0.0,0.0,0.0,0.0,8.9533,9.0573,9.0945,9.165,9.2393,9.2876,9.2988,9.2988,9.2988,0.0,0.0,0.0,0.0,0.0,9.2988,0.0,0.0,0.0,9.2988,0.0,0.0,0.0,9.6257,9.7112,0.0,0.0,0.0,0.0,0.0,0.0,0.0,10.2721,10.2721,10.2721,10.2721,10.2721,10.2721,10.2721,10.2721,10.2721,10.2721,10.2721,10.2721,10.2721,10.2721,10.2721,10.2721,0.0,0.0,0.0,10.2721,10.2721,10.2721,10.2721,10.2721,10.2721,10.2721,10.2721,10.2721,10.2721,0.0,0.0,0.0,0.0,0.0,0.0,0.0,0.0,0.0,0.0,0.0,0.0,0.0,0.0,0.0,0.0,0.0,0.0,0.0,0.0,0.0,0.0,7.8276,7.8276,7.8276,7.8276,7.8276,7.8276,7.8276,7.8276,7.8276,7.8276,7.8276,7.8276,7.8276,7.8722,7.9539,8.0357,8.1174,8.2066,8.2883,0.0,0.0,0.0,0.0,0.0,0.0,0.0,0.0,8.5335,8.6115,8.6932,8.7824,0.0,0.0,0.0,0.0,0.0,9.1465,9.2356,9.2988,9.2988,9.2988,9.2988,9.2988,0.0,0.0,0.0,0.0,0.0,0.0,0.0,0.0,0.0,0.0,0.0,9.518,9.6108,9.6926,9.778,0.0,0.0,0.0,0.0,0.0,0.0,0.0,10.2721,10.2721,10.2721,10.2721,10.2721,10.2721,10.2721,10.2721,10.2721,10.2721,10.2721,10.2721,10.2721,10.2721,10.2721,10.2721,10.2721,0.0,0.0,10.2721,10.2721,10.2721,10.2721,10.2721,10.2721,10.2721,10.2721,10.2721,10.2721,0.0,0.0,0.0,0.0,0.0,0.0,0.0,0.0,0.0,0.0,0.0,0.0,0.0,0.0,0.0,0.0,0.0,0.0,0.0,0.0,0.0,7.8276,7.8276,7.8276,7.8276,7.8276,7.8276,7.8276,7.8276,7.8276,7.8276,7.8276,7.8276,7.8276,7.8276,7.8722,7.9539,8.0357,8.1174,8.2066,8.2883,0.0,0.0,0.0,0.0,0.0,0.0,0.0,0.0,8.5335,8.6115,8.6932,8.7824,0.0,0.0,0.0,0.0,0.0,9.1465,9.2356,9.2988,9.2988,9.2988,9.2988,9.2988,0.0,0.0,0.0,0.0,0.0,0.0,0.0,0.0,0.0,0.0,0.0,0.0,0.0,0.0,0.0,0.0,0.0,0.0,0.0,0.0,0.0,0.0,10.2721,10.2721,10.2721,10.2721,10.2721,10.2721,10.2721,10.2721,10.2721,10.2721,10.2721,10.2721,10.2721,10.2721,10.2721,10.2721,10.2721,0.0,10.2721,10.2721,10.2721,10.2721,10.2721,10.2721,10.2721,10.2721,10.2721,10.2721,10.2721,0.0,0.0,0.0,0.0,0.0,0.0,0.0,0.0,0.0,0.0,0.0,0.0,0.0,0.0,0.0,0.0,0.0,0.0,0.0,0.0,7.8276,7.8276,7.8276,7.8276,7.8276,7.8276,7.8276,7.8276,7.8276,7.8276,7.8276,7.8276,7.8276,7.8313,7.8722,7.9391,8.0208,8.1025,8.188,8.266,0.0,0.0,0.0,0.0,0.0,0.0,0.0,0.0,0.0,0.0,8.6821,8.7564,8.7973,0.0,0.0,0.0,0.0,0.0,9.2059,9.2691,9.2988,9.2988,9.2988,9.2988,9.2988,0.0,0.0,0.0,0.0,0.0,0.0,0.0,0.0,0.0,0.0,0.0,0.0,0.0,0.0,0.0,0.0,0.0,0.0,0.0,0.0,0.0,0.0,0.0,10.2721,10.2721,10.2721,10.2721,10.2721,10.2721,10.2721,10.2721,10.2721,10.2721,10.2721,10.2721,10.2721,10.2721,10.2721,10.2721,0.0,10.2721,10.2721,10.2721,10.2721,10.2721,10.2721,10.2721,10.2721,10.2721,10.2721,10.2721,0.0,0.0,0.0,0.0,0.0,0.0,0.0,0.0,0.0,0.0,0.0,0.0,0.0,0.0,0.0,0.0,0.0,0.0,0.0,7.8276,7.8276,7.8276,7.8276,7.8276,7.8276,7.8276,7.8276,7.8276,7.8276,7.8276,7.8276,7.8462,7.8573,7.8611,7.9428,8.0245,8.1025,8.1694,8.2437,8.318,0.0,0.0,0.0,0.0,0.0,0.0,0.0,0.0,0.0,0.0,0.0,0.0,0.0,0.0,0.0,9.009,9.061,9.1093,9.2579,9.2988,9.2988,9.2988,9.2988,9.2988,9.2988,0.0,0.0,0.0,0.0,0.0,0.0,0.0,0.0,0.0,0.0,0.0,0.0,0.0,0.0,0.0,0.0,0.0,0.0,0.0,0.0,0.0,0.0,0.0,10.2721,10.2721,10.2721,10.2721,10.2721,10.2721,10.2721,10.2721,10.2721,10.2721,10.2721,10.2721,10.2721,10.2721,10.2721,10.2721,10.2721,10.2721,10.2721,10.2721,10.2721,10.2721,10.2721,10.2721,10.2721,10.2721,10.2721,10.2721,0.0,0.0,0.0,0.0,0.0,0.0,0.0,0.0,0.0,0.0,0.0,0.0,0.0,0.0,0.0,0.0,0.0,0.0,0.0,7.8276,7.8276,7.8276,7.8276,7.8276,7.8276,7.8276,7.8276,7.8276,7.8276,7.8276,7.8313,7.9056,7.9391,7.9428,8.0245,8.11,8.188,8.1954,8.2437,8.318,8.318,0.0,0.0,0.0,0.0,0.0,0.0,0.0,0.0,0.0,0.0,0.0,0.0,0.0,8.9384,9.0239,9.1019,9.1836,9.2728,9.2988,9.2988,9.2988,9.2988,0.0,9.2988,9.2988,0.0,0.0,0.0,0.0,0.0,0.0,0.0,0.0,0.0,0.0,0.0,0.0,0.0,0.0,0.0,0.0,0.0,0.0,0.0,0.0,0.0,0.0,10.2721,10.2721,10.2721,10.2721,10.2721,10.2721,10.2721,10.2721,10.2721,10.2721,10.2721,10.2721,10.2721,10.2721,10.2721,10.2721,10.2721,10.2721,10.2721,10.2721,10.2721,10.2721,10.2721,10.2721,10.2721,10.2721,10.2721,10.2721,0.0,0.0,0.0,0.0,0.0,0.0,0.0,0.0,0.0,0.0,0.0,0.0,0.0,0.0,0.0,0.0,0.0,0.0,0.0,7.8276,7.8276,7.8276,7.8276,7.8276,7.8276,7.8276,7.8276,7.8276,7.8276,7.8536,7.9056,7.9354,7.9762,8.0282,8.1137,8.1694,8.2028,8.2511,8.292,8.318,8.318,8.318,0.0,0.0,0.0,0.0,0.0,0.0,0.0,0.0,8.7824,8.8195,0.0,8.905,8.957,9.087,9.1465,9.1873,9.2765,9.2988,9.2988,9.2988,9.2988,0.0,0.0,0.0,0.0,0.0,0.0,0.0,0.0,0.0,0.0,0.0,0.0,0.0,0.0,0.0,0.0,0.0,0.0,0.0,0.0,0.0,0.0,0.0,0.0,0.0,10.2721,10.2721,10.2721,10.2721,10.2721,10.2721,10.2721,10.2721,10.2721,10.2721,10.2721,10.2721,10.2721,10.2721,10.2721,10.2721,10.2721,10.2721,10.2721,10.2721,10.2721,10.2721,10.2721,10.2721,10.2721,10.2721,10.2721,10.2721,0.0,0.0,0.0,0.0,0.0,0.0,0.0,0.0,0.0,0.0,0.0,0.0,0.0,0.0,0.0,0.0,0.0,0.0,7.8276,7.8276,7.8276,7.8276,7.8276,7.8425,7.8648,7.8685,7.8536,7.8276,7.8536,7.9094,7.9874,8.0134,8.058,8.1137,8.1991,8.2363,8.24,8.2957,8.318,8.318,8.318,8.318,0.0,0.0,0.0,0.0,0.0,0.0,0.0,0.0,8.8084,8.8233,0.0,0.0,8.9942,9.1316,9.1873,9.2245,9.2839,9.2988,9.2988,9.2988,9.2988,0.0,9.2988,0.0,0.0,0.0,0.0,0.0,0.0,0.0,0.0,0.0,0.0,0.0,0.0,0.0,0.0,0.0,0.0,0.0,0.0,0.0,0.0,0.0,0.0,0.0,0.0,10.2721,10.2721,10.2721,10.2721,10.2796,10.3093,10.3093,10.3093,10.3093,10.3093,10.3019,10.2721,10.2721,10.2721,10.2721,10.2721,10.2721,10.2721,10.2721,10.2721,10.2721,10.2721,10.2721,10.2721,10.2721,10.2721,10.2721,0.0,0.0,0.0,0.0,0.0,0.0,0.0,0.0,0.0,0.0,0.0,0.0,0.0,0.0,0.0,0.0,0.0,0.0,7.8276,7.8276,7.8276,7.8313,7.8313,7.8685,7.9465,7.9502,7.9094,7.8313,7.9094,7.9911,8.0728,8.1583,8.1991,8.2028,8.2846,8.318,8.318,8.318,8.318,8.318,8.3217,8.3217,8.3292,0.0,0.0,0.0,0.0,0.0,0.0,0.0,8.8084,8.8233,0.0,0.0,0.0,9.1465,9.2319,9.2988,9.2988,9.2988,9.2988,9.2988,9.2988,0.0,9.2988,0.0,0.0,0.0,0.0,0.0,0.0,0.0,0.0,0.0,0.0,0.0,0.0,0.0,0.0,0.0,0.0,0.0,0.0,0.0,0.0,0.0,0.0,0.0,0.0,10.2721,10.2721,10.2721,10.2721,10.3093,10.3984,10.3984,10.3984,10.3984,10.3984,10.3501,10.2721,10.2721,10.2721,10.2721,10.2721,10.2721,10.2721,10.2721,10.2721,10.2721,10.2721,10.2721,10.2721,10.2721,10.2721,10.2721,0.0,0.0,0.0,0.0,0.0,0.0,0.0,0.0,0.0,0.0,0.0,0.0,0.0,0.0,0.0,0.0,0.0,0.0,7.8276,7.8276,7.8536,7.9094,7.9131,7.9502,8.032,8.032,8.0208,7.9985,8.0208,8.0765,8.162,8.188,8.2288,8.2846,8.3069,8.318,8.318,8.318,8.318,8.3254,8.3812,8.4035,8.4109,0.0,0.0,0.0,0.0,0.0,0.0,0.0,0.0,0.0,8.9904,0.0,9.1502,9.2356,9.2802,9.2988,9.2988,9.2988,0.0,0.0,0.0,0.0,0.0,0.0,0.0,0.0,0.0,0.0,0.0,0.0,0.0,0.0,0.0,0.0,0.0,0.0,0.0,0.0,0.0,0.0,0.0,0.0,0.0,0.0,0.0,0.0,0.0,10.2721,10.2721,10.2721,10.3316,10.3724,10.3984,10.4616,10.4802,10.4802,10.4282,10.3501,10.2721,10.2721,10.2721,10.2721,10.2721,10.2721,10.2721,10.2721,10.2721,10.2721,10.2721,10.2721,10.2721,10.2721,10.2721,10.2721,0.0,0.0,0.0,0.0,0.0,0.0,0.0,0.0,0.0,0.0,7.8276,7.8276,0.0,0.0,0.0,0.0,0.0,0.0,0.0,7.8759,7.9131,7.9948,7.9985,8.0357,8.1174,8.1508,8.1694,8.1694,8.136,8.1657,8.2474,8.2474,8.2734,8.318,8.318,8.318,8.3217,8.3514,8.3663,8.3737,8.4555,8.4889,8.4963,0.0,0.0,0.0,0.0,0.0,0.0,0.0,0.0,0.0,0.0,0.0,0.0,9.2728,9.2988,9.2988,9.2988,0.0,0.0,0.0,0.0,0.0,0.0,0.0,0.0,0.0,0.0,0.0,0.0,0.0,0.0,0.0,0.0,0.0,0.0,0.0,0.0,0.0,0.0,0.0,0.0,0.0,0.0,0.0,0.0,0.0,0.0,10.2721,10.2907,10.3204,10.3724,10.4319,10.4913,10.5396,10.5693,10.5693,10.4913,10.4022,10.3204,10.2907,10.2721,10.2721,10.2721,10.2721,10.2721,10.2721,10.2721,10.2721,10.2721,10.2721,10.2721,10.2721,10.2721,10.2721,0.0,0.0,7.8276,7.8276,0.0,0.0,0.0,0.0,0.0,0.0,7.8276,7.8276,0.0,0.0,0.0,0.0,0.0,0.0,0.0,7.9576,7.9948,8.0765,8.0877,8.1285,8.2066,8.2809,8.318,8.318,8.2474,8.2474,8.318,8.318,8.318,8.318,8.318,8.3217,8.3366,8.4072,8.4443,8.4592,8.5372,8.5706,8.5781,8.6598,0.0,0.0,0.0,0.0,0.0,0.0,0.0,0.0,9.1242,9.1762,9.1985,9.2765,9.2988,9.2988,9.2988,0.0,0.0,0.0,0.0,0.0,0.0,0.0,0.0,0.0,0.0,0.0,0.0,0.0,0.0,0.0,0.0,0.0,0.0,0.0,0.0,0.0,0.0,0.0,0.0,0.0,0.0,0.0,0.0,0.0,0.0,10.2721,10.3093,10.3984,10.4096,10.4802,10.6399,10.6511,10.6511,10.6511,10.5619,10.4802,10.4096,10.3093,10.2721,10.2721,10.2721,10.2721,10.2721,10.2721,10.2721,10.2721,10.2721,10.2721,10.2721,10.2721,10.2721,10.2721,0.0,0.0,7.8276,7.8276,0.0,0.0,0.0,0.0,0.0,0.0,0.0,0.0,0.0,0.0,0.0,0.0,0.0,0.0,0.0,8.0097,8.0802,8.1657,8.2326,8.2734,8.292,8.3106,8.318,8.318,8.3032,8.3032,8.318,8.318,8.318,8.318,8.318,8.3552,8.4146,8.4332,8.474,8.5409,8.6226,8.6524,8.6635,8.749,8.7824,0.0,0.0,0.0,0.0,0.0,0.0,0.0,9.1576,9.2171,9.2765,9.2951,9.2988,9.2988,0.0,9.2988,0.0,0.0,0.0,0.0,0.0,0.0,0.0,0.0,0.0,0.0,0.0,0.0,0.0,0.0,0.0,0.0,0.0,0.0,0.0,0.0,0.0,0.0,0.0,0.0,0.0,0.0,0.0,0.0,10.2721,10.2721,10.3093,10.3984,10.4616,10.5396,10.6399,10.7031,10.7328,0.0,10.5916,10.5099,10.4913,10.339,10.2721,10.2721,10.2721,10.2721,10.2721,10.2721,10.2721,10.2721,10.2721,10.2721,10.2721,10.2721,10.2721,10.2721,0.0,0.0,0.0,0.0,0.0,0.0,0.0,0.0,0.0,0.0,0.0,0.0,0.0,0.0,0.0,0.0,0.0,0.0,0.0,0.0,8.1694,8.2511,8.2957,8.318,8.318,8.318,8.318,8.318,8.318,8.318,8.318,8.318,8.3403,8.3775,8.3775,8.422,8.5,8.5372,8.5781,8.6264,8.7081,8.7415,8.749,8.8344,8.8678,8.879,8.957,0.0,0.0,0.0,0.0,0.0,0.0,0.0,9.2988,9.2988,9.2988,9.2988,0.0,0.0,0.0,0.0,0.0,0.0,0.0,0.0,0.0,0.0,0.0,0.0,0.0,0.0,0.0,0.0,0.0,0.0,0.0,0.0,0.0,0.0,0.0,0.0,0.0,0.0,0.0,0.0,0.0,10.2721,10.2721,10.3093,10.3687,10.4505,10.5396,10.6213,10.6994,10.7402,10.7625,10.7625,10.5991,10.4802,10.4022,10.3093,10.2721,10.2721,10.2721,10.2721,10.2721,10.2721,10.2721,10.2721,10.2721,10.2721,10.2721,10.2721,10.2721,10.2721,0.0,0.0,0.0,0.0,0.0,0.0,0.0,0.0,0.0,0.0,0.0,0.0,0.0,0.0,0.0,0.0,0.0,0.0,0.0,0.0,0.0,8.3143,8.318,8.318,8.318,8.318,8.318,8.318,8.318,8.3254,8.3403,8.3403,8.3737,8.4406,8.4555,8.5038,8.5855,8.6524,8.6895,8.7081,8.7935,8.8307,8.8381,8.9198,8.9496,8.9607,9.0424,9.0722,9.0833,9.165,0.0,0.0,0.0,0.0,9.2988,9.2988,9.2988,9.2988,9.2988,0.0,9.2988,9.2988,9.2988,0.0,9.4028,0.0,0.0,0.0,9.674,9.7037,9.778,9.7892,9.7892,9.7892,9.8598,9.9378,10.0195,0.0,0.0,0.0,0.0,0.0,0.0,0.0,0.0,0.0,0.0,10.2721,10.2721,10.3501,10.4393,10.521,10.5991,10.6808,10.7625,10.7625,10.7514,10.7402,10.5805,10.4207,10.2721,10.2721,10.2721,10.2721,10.2721,10.2721,10.2721,10.2721,10.2721,10.2721,10.2721,10.2721,10.2721,10.2721,10.2721,10.2721,0.0,0.0,0.0,0.0,0.0,0.0,0.0,0.0,0.0,0.0,7.8908,7.9316,0.0,8.0059,8.0542,8.0542,8.1323,8.188,8.1991,0.0,0.0,8.318,8.318,8.318,8.318,8.318,8.318,8.318,8.318,8.3552,8.422,8.422,8.4295,8.4406,8.5112,8.5892,8.6635,8.6747,8.723,8.801,8.879,8.9124,8.9236,9.0016,9.035,9.0462,9.1242,9.1539,9.1688,9.2542,9.2839,0.0,0.0,0.0,9.2988,9.2988,9.2988,9.2988,0.0,0.0,9.2988,0.0,9.2988,9.3211,0.0,0.0,9.5626,0.0,9.7186,9.7743,9.7892,9.7892,9.7892,9.7892,9.8598,9.9378,10.0195,10.1012,10.1793,10.261,10.2721,0.0,0.0,0.0,0.0,0.0,10.2721,10.2721,10.2721,10.3501,10.4393,10.521,10.5991,10.6808,10.7625,10.7625,10.7291,10.6511,10.4913,10.3613,10.2721,10.2721,10.2721,10.2721,10.2721,10.2721,10.2721,10.2721,10.2721,10.2721,10.2721,10.2721,10.2721,10.2721,10.2721,10.2721,0.0,0.0,0.0,0.0,0.0,0.0,0.0,0.0,0.0,0.0,0.0,8.0171,8.0171,8.0914,8.1434,8.1434,8.2177,8.266,8.266,8.2994,8.318,8.318,8.318,8.318,8.318,8.318,8.3403,8.3849,8.3849,8.4257,0.0,8.5521,8.5743,8.5743,8.6115,8.6747,8.7527,8.7527,8.801,8.879,8.9161,8.957,9.0053,9.087,9.1167,9.1279,9.2133,0.0,0.0,0.0,0.0,9.2988,9.2988,0.0,0.0,0.0,9.2988,0.0,9.2988,9.2988,9.2988,0.0,9.2988,9.3322,9.4585,0.0,9.5774,9.7074,9.7632,9.7892,9.7892,9.7892,9.804,9.8486,9.9266,10.0084,10.0901,10.1718,10.2313,10.2721,10.2721,10.2721,0.0,0.0,0.0,0.0,10.2721,10.2907,10.339,10.4207,10.5025,10.5805,10.6696,10.7217,10.7625,10.7625,10.6994,10.5693,10.4616,10.3501,10.2721,10.2721,10.2721,10.2721,10.2721,10.2721,10.2721,10.2721,10.2721,10.2721,10.2721,10.2721,10.2721,10.2721,10.2721,10.2721,0.0,0.0,0.0,0.0,0.0,0.0,0.0,0.0,0.0,0.0,0.0,8.1025,8.1025,0.0,0.0,0.0,8.2846,8.318,8.318,8.318,8.3292,8.3477,8.3477,8.3589,8.3812,8.3812,8.4109,8.4703,8.4703,0.0,8.5929,8.6524,8.6932,0.0,8.7118,8.749,8.8084,0.0,0.0,8.9347,8.9756,9.0276,9.0907,9.1725,9.2022,9.2133,9.2765,0.0,0.0,0.0,0.0,0.0,9.2988,9.2988,0.0,0.0,0.0,0.0,0.0,0.0,9.2988,9.2988,9.2988,9.3434,0.0,0.0,9.5886,0.0,9.7892,9.7892,9.7892,9.7892,9.8152,9.8969,9.9786,10.0604,10.1421,10.2201,10.2721,10.2721,10.2721,10.2721,10.2721,0.0,0.0,0.0,10.2721,10.3019,10.3613,10.4616,10.5508,10.6102,10.7105,10.7625,10.7625,10.7217,10.6288,10.4913,10.4096,10.3316,10.2721,10.2721,10.2721,10.2721,10.2721,10.2721,10.2721,10.2721,10.2721,10.2721,10.2721,10.2721,10.2721,10.2721,10.2721,10.2721,0.0,0.0,0.0,0.0,0.0,0.0,0.0,0.0,0.0,0.0,0.0,8.1917,8.1917,8.2623,8.3143,8.3143,8.318,8.318,8.318,8.318,8.3514,8.4295,8.4332,0.0,8.5446,8.5483,8.5483,8.5521,0.0,0.0,8.6747,8.6784,8.723,8.801,8.801,8.8047,8.8158,0.0,0.0,0.0,0.0,9.1613,9.1725,9.2579,9.2914,0.0,0.0,0.0,0.0,0.0,0.0,9.2988,9.2988,9.2988,9.2988,0.0,0.0,0.0,0.0,9.2988,0.0,9.2988,9.2988,9.3434,0.0,0.0,9.5886,9.7557,9.7892,9.7892,9.7892,9.7892,9.8152,9.8969,9.9786,10.0604,10.1421,10.2201,10.2721,10.2721,10.2721,10.2721,10.2721,10.2721,0.0,0.0,10.2721,10.2721,10.2796,10.4319,10.521,10.5285,10.6808,10.7625,10.7625,10.6102,10.4913,10.4096,10.3204,10.2721,10.2721,10.2721,10.2721,10.2721,10.2721,10.2721,10.2721,10.2721,10.2721,10.2721,10.2721,10.2721,10.2721,10.2721,10.2721,10.2721,0.0,0.0,0.0,0.0,0.0,0.0,0.0,0.0,0.0,0.0,0.0,0.0,0.0,8.3032,8.318,8.318,8.3663,8.396,8.396,8.4443,8.4852,8.5149,8.5149,8.5298,8.5595,8.5595,8.5855,8.6375,8.6375,8.6784,8.7638,8.7638,8.8084,8.8864,8.8864,8.8864,8.8901,8.9719,0.0,0.0,0.0,0.0,9.2579,0.0,0.0,0.0,0.0,0.0,0.0,0.0,9.2988,9.2988,9.2988,9.2988,0.0,0.0,0.0,0.0,0.0,0.0,0.0,9.2988,9.2988,9.3434,9.5031,9.5403,9.5886,9.7557,9.7892,9.7892,9.7892,9.7892,9.8338,9.9675,10.0121,10.0789,10.209,10.2498,10.2721,10.2721,10.2721,10.2721,10.2721,10.2721,10.2721,0.0,0.0,10.2907,10.3501,10.4096,10.4913,10.5916,10.6511,10.6808,10.6808,10.5693,10.4802,10.3984,10.3093,10.2721,10.2721,10.2721,10.2721,10.2721,10.2721,10.2721,10.2721,10.2721,10.2721,10.2721,10.2721,10.2721,10.2721,10.2721,10.2721,10.2721,0.0,0.0,0.0,0.0,0.0,8.1545,0.0,0.0,0.0,0.0,0.0,0.0,0.0,0.0,8.37,8.396,8.448,8.4778,8.4778,8.5298,8.5706,8.6004,8.6004,8.6152,8.6412,8.6449,8.6709,8.723,8.723,8.7527,8.8084,8.8381,8.879,8.931,8.9867,8.9942,0.0,0.0,0.0,9.1725,0.0,0.0,9.2988,0.0,0.0,0.0,0.0,0.0,0.0,0.0,9.2988,9.2988,9.2988,0.0,0.0,0.0,0.0,0.0,9.2988,0.0,0.0,9.2988,9.2988,9.3434,9.5031,9.5403,9.5886,9.7557,9.7892,9.7892,9.7892,9.7892,9.8412,10.0009,10.0307,10.0901,10.2498,10.2721,10.2721,10.2721,10.2721,10.2721,10.2721,10.2721,10.2721,10.2721,0.0,0.0,10.3501,10.3799,10.4616,10.5991,10.5991,10.5916,10.5619,10.5099,10.4393,10.3613,10.3019,10.2721,10.2721,10.2721,10.2721,10.2721,10.2721,10.2721,10.2721,10.2721,10.2721,10.2721,10.2721,10.2721,10.2721,10.2721,10.2721,10.2721,0.0,8.266,8.318,8.318,8.318,8.318,8.318,8.3217,8.3217,8.3217,0.0,0.0,0.0,0.0,0.0,8.5521,8.5632,8.5632,8.5632,8.5669,8.6004,8.6784,8.6821,8.723,8.8084,8.8084,8.8084,8.8084,8.8121,8.8121,8.8158,8.8938,8.9347,8.9421,9.1019,9.1279,9.061,0.0,9.1725,9.1799,0.0,9.2988,9.2988,0.0,0.0,0.0,9.2988,9.2988,0.0,0.0,9.2988,9.2988,0.0,0.0,0.0,0.0,0.0,0.0,0.0,0.0,0.0,9.2988,9.2988,9.3434,9.5031,9.5403,9.5886,9.7557,9.7892,9.7892,9.7892,9.7892,9.8412,10.0009,10.0307,10.0901,10.2424,10.2721,10.2721,10.2721,10.2721,10.2721,10.2721,10.2721,10.2721,10.2721,10.2721,10.2721,10.2721,10.3501,10.4393,10.5099,10.521,10.4802,10.3984,10.3984,10.3613,10.2721,10.2721,10.2721,10.2721,10.2721,10.2721,10.2721,10.2721,10.2721,10.2721,10.2721,10.2721,10.2721,10.2721,10.2721,10.2721,10.2721,10.2721,10.2721,8.2846,8.3032,8.318,8.318,8.318,8.318,8.318,0.0,8.4072,0.0,0.0,0.0,8.5223,8.5261,8.5372,8.5558,8.6115,8.6486,8.6486,8.7044,8.749,8.7712,8.775,8.7861,8.8084,8.8084,8.8084,8.8084,8.8678,8.8976,8.8976,8.9793,9.0462,9.1056,9.1502,9.1948,9.2319,9.2542,0.0,0.0,9.2914,9.2988,0.0,0.0,0.0,0.0,0.0,9.2988,0.0,0.0,9.2988,9.2988,0.0,0.0,0.0,0.0,0.0,0.0,9.2988,0.0,0.0,0.0,0.0,0.0,9.5031,9.5403,9.5886,9.7557,9.7892,9.7892,9.7892,9.7892,9.8226,9.9266,9.9935,10.0715,10.1718,10.2313,10.2721,10.2721,10.2721,10.2721,10.2721,10.2721,10.2721,0.0,10.2721,10.2721,10.2721,10.3501,10.4096,10.4319,10.4913,10.4802,10.3984,10.3984,10.3613,10.2721,10.2721,10.2721,10.2721,10.2721,10.2721,10.2721,10.2721,10.2721,10.2721,10.2721,10.2721,10.2721,10.2721,10.2721,10.2721,10.2721,10.2721,10.2721,8.318,8.318,8.3292,8.3626,8.37,8.3812,0.0,0.0,0.0,0.0,0.0,0.0,8.6041,8.6412,8.6635,8.6635,8.7081,8.749,8.7824,8.8307,8.8753,8.9087,8.9087,8.9087,8.9087,8.9087,8.9087,0.0,0.0,8.9793,8.983,9.061,0.0,9.1725,9.2096,9.2505,9.2988,0.0,0.0,0.0,9.2988,0.0,0.0,9.2988,9.2988,0.0,0.0,0.0,9.2988,9.2988,9.2988,0.0,0.0,0.0,0.0,0.0,0.0,0.0,0.0,0.0,0.0,0.0,0.0,0.0,9.5105,9.5663,9.6294,9.7632,9.7892,9.7892,9.7892,9.7892,9.804,9.8523,9.9266,10.0084,10.0901,10.1718,10.2201,10.2201,10.2498,10.2721,10.2721,10.2721,10.2721,10.2721,10.2721,10.2721,10.2721,10.3204,10.3501,10.3501,10.391,10.391,10.3501,10.3501,10.3204,10.2721,10.2721,10.2721,10.2721,10.2721,10.2721,10.2721,10.2721,10.2721,10.2721,10.2721,10.2721,10.2721,10.2721,10.2721,10.2721,10.2721,10.2721,10.2721,0.0,8.3477,8.3663,8.4406,8.4518,8.4778,0.0,0.0,0.0,0.0,8.5818,8.6189,8.7007,8.775,8.827,8.8344,8.8381,8.8678,8.9384,8.9421,8.9756,9.0462,9.0499,9.0499,9.0499,9.0499,9.0499,0.0,0.0,0.0,0.0,0.0,0.0,0.0,9.2653,9.2988,9.2988,0.0,0.0,9.2988,9.2988,9.2988,0.0,0.0,9.2988,0.0,9.2988,9.2988,9.2988,9.2988,9.2988,0.0,0.0,0.0,0.0,0.0,9.2988,0.0,0.0,0.0,0.0,0.0,0.0,0.0,9.5328,9.6108,9.6852,9.7706,9.7892,9.7892,9.7892,9.7892,9.7892,9.7892,9.8486,9.9266,10.0084,10.0901,10.1421,10.1421,10.209,10.261,10.261,10.261,10.2721,10.2721,10.2721,10.2721,10.2721,10.2721,10.2721,10.2721,10.2721,10.2721,10.2721,10.2721,10.2721,10.2721,10.2721,10.2721,10.2721,10.2721,10.2721,10.2721,10.2721,10.2721,10.2721,10.2721,10.2721,10.2721,10.2721,10.2721,10.2721,10.2721,10.2721,10.2721,8.5112,8.5112,8.5186,8.5335,8.5372,0.0,0.0,0.0,0.0,8.6561,8.7192,8.7898,8.8716,8.8938,8.931,8.9979,9.0016,9.009,9.0276,9.0276,9.035,9.0499,9.0499,9.0499,9.0499,9.0499,9.0499,0.0,0.0,0.0,0.0,0.0,0.0,0.0,9.2914,9.2988,9.2988,0.0,0.0,9.2988,9.2988,0.0,9.2988,9.2988,9.2988,9.2988,9.2988,9.2988,9.2988,0.0,9.2988,9.2988,0.0,0.0,0.0,0.0,0.0,0.0,0.0,0.0,0.0,0.0,0.0,0.0,9.6034,9.648,9.6852,9.7706,9.7892,9.7892,9.7892,9.7892,9.7892,9.7892,9.804,9.8412,9.9229,10.0009,10.0492,10.0492,10.1198,10.1718,10.1718,10.2313,10.2721,10.2721,10.2721,10.2721,10.2721,10.2721,10.2721,10.2721,10.2721,10.2721,10.2721,10.2721,10.2721,10.2721,10.2721,10.2721,10.2721,10.2721,10.2721,10.2721,10.2721,10.2721,10.2721,10.2721,10.2721,10.2721,10.2721,10.2721,10.2721,10.2721,10.2721,10.2721,8.5595,8.5595,8.5743,8.6115,0.0,0.0,0.0,0.0,8.7452,8.7452,8.8158,8.9013,8.9793,8.9904,9.0053,9.0462,9.0499,9.0685,9.1056,9.1093,9.1279,9.1725,9.1762,9.1762,9.1762,9.1762,9.1762,0.0,0.0,0.0,0.0,0.0,0.0,0.0,0.0,0.0,0.0,0.0,9.2988,9.2988,9.2988,0.0,9.2988,9.2988,9.2988,9.2988,9.2988,9.2988,9.2988,9.2988,9.2988,0.0,0.0,9.3285,9.3582,0.0,9.3879,9.4214,0.0,0.0,0.0,9.4697,0.0,0.0,0.0,9.6926,9.7372,9.7817,9.7892,9.7892,9.7892,9.7892,9.7892,9.7892,9.7892,9.804,9.8449,9.9192,9.9712,9.9712,10.0418,10.0901,10.0901,10.1607,10.2313,10.2721,10.2721,10.2721,10.2721,10.2721,10.2721,10.2721,10.2721,10.2721,10.2721,10.2721,10.2721,10.2721,10.2721,10.2721,10.2721,10.2721,10.2721,10.2721,10.2721,10.2721,10.2721,10.2721,10.2721,10.2721,10.2721,10.2721,10.2721,10.2721,10.2721,10.2721,8.6152,8.6078,8.6301,8.6932,0.0,0.0,0.0,0.0,8.8381,8.853,8.9124,8.983,9.0647,9.0722,9.0796,9.0982,9.0982,9.1242,0.0,0.0,0.0,9.2951,9.2988,9.2988,9.2988,0.0,0.0,0.0,0.0,0.0,0.0,0.0,0.0,0.0,0.0,0.0,0.0,0.0,0.0,9.2988,0.0,9.2988,9.2988,9.2988,9.2988,9.2988,9.2988,9.2988,9.3025,9.3174,0.0,9.3248,9.3397,9.3917,0.0,0.0,0.0,0.0,0.0,0.0,0.0,0.0,0.0,9.6629,0.0,0.0,0.0,9.7892,9.7892,9.7892,9.7892,9.7892,9.7892,9.7892,9.7892,9.7892,0.0,9.8449,0.0,9.8858,9.9563,10.0084,10.0084,10.0901,10.1793,10.2424,10.261,10.2721,10.2721,10.2721,10.2721,10.2721,10.2721,10.2721,10.2721,10.2721,10.2721,10.2721,10.2721,10.2721,10.2721,10.2721,10.2721,10.2721,10.2721,10.2721,10.2721,10.2721,10.2721,10.2721,10.2721,10.2721,10.2721,10.2721,10.2721,10.2721,8.8084,8.7824,8.7824,8.7935,0.0,0.0,0.0,0.0,8.9421,9.0127,9.0313,9.0685,0.0,0.0,0.0,0.0,0.0,0.0,9.2839,0.0,0.0,0.0,0.0,0.0,9.2988,0.0,0.0,0.0,0.0,0.0,0.0,0.0,0.0,0.0,9.2988,0.0,0.0,0.0,9.2988,0.0,9.2988,9.2988,0.0,9.2988,9.2988,9.2988,9.2988,9.2988,9.3099,0.0,9.4065,9.4177,0.0,9.518,0.0,0.0,0.0,0.0,0.0,0.0,0.0,0.0,9.6517,0.0,0.0,0.0,9.7892,9.7892,0.0,9.7892,9.7892,0.0,0.0,9.7892,9.7892,9.7892,9.7892,9.7966,9.804,9.804,9.8746,9.9229,9.9229,10.0604,10.1495,10.1607,10.2313,10.2721,10.2721,10.2721,10.2721,10.2721,10.2721,10.2721,10.2721,10.2721,10.2721,10.2721,10.2721,10.2721,10.2721,10.2721,10.2721,10.2721,10.2721,10.2721,10.2721,10.2721,10.2721,10.2721,10.2721,10.2721,10.2721,10.2721,10.2721,10.2721,8.9644,8.9496,8.9496,8.9496,0.0,0.0,0.0,8.9979,9.0276,9.1093,9.1205,9.1502,0.0,0.0,0.0,0.0,0.0,0.0,0.0,0.0,0.0,0.0,0.0,0.0,0.0,0.0,0.0,0.0,9.2988,0.0,0.0,0.0,0.0,0.0,9.2988,0.0,9.2988,0.0,0.0,0.0,0.0,0.0,0.0,9.3174,9.3285,9.3768,9.4214,9.44,9.4437,0.0,9.4883,0.0,0.0,0.0,0.0,0.0,0.0,0.0,0.0,0.0,0.0,0.0,0.0,0.0,0.0,0.0,9.7892,0.0,0.0,0.0,0.0,0.0,0.0,0.0,9.7892,9.7892,9.7892,9.7892,9.7892,9.7892,0.0,0.0,9.9043,9.9712,10.0492,10.1421,10.1793,10.2201,10.2721,10.2721,10.2721,10.2721,10.2721,10.2721,10.2721,10.2721,10.2721,10.2721,10.2721,10.2721,10.2721,10.2721,10.2721,10.2721,10.2721,10.2721,10.2721,10.2721,10.2721,10.2721,10.2721,10.2721,10.2721,10.2721,10.2721,10.2721,9.1205,0.0,0.0,0.0,0.0,0.0,9.0796,9.1019,9.139,0.0,0.0,0.0,9.2914,9.2988,0.0,0.0,0.0,9.2988,0.0,0.0,9.2988,0.0,0.0,0.0,0.0,0.0,0.0,0.0,0.0,0.0,0.0,0.0,0.0,0.0,0.0,9.2988,9.2988,0.0,0.0,9.3025,9.3248,9.3805,9.4474,9.3879,9.4028,9.4622,9.518,9.5403,9.544,9.5663,9.5737,0.0,9.5997,0.0,0.0,0.0,0.0,0.0,9.7892,0.0,0.0,0.0,0.0,0.0,0.0,0.0,0.0,0.0,0.0,0.0,0.0,0.0,0.0,0.0,0.0,9.7892,9.7892,9.7892,9.7892,0.0,0.0,0.0,0.0,9.8969,9.9675,10.1087,10.1421,10.1904,10.2721,10.2721,10.2721,10.2721,10.2721,10.2721,10.2721,10.2721,10.2721,10.2721,10.2721,10.2721,10.2721,10.2721,10.2721,10.2721,10.2721,10.2721,10.2721,10.2721,10.2721,10.2721,10.2721,10.2721,10.2721,10.2721,10.2721,10.2721,9.2914,9.1613,0.0,0.0,0.0,0.0,0.0,0.0,0.0,0.0,0.0,0.0,0.0,0.0,0.0,0.0,0.0,9.2988,9.2988,0.0,9.2988,0.0,0.0,0.0,0.0,0.0,0.0,0.0,0.0,0.0,0.0,0.0,0.0,0.0,0.0,9.2988,9.2988,9.2988,9.2988,9.3062,9.3842,9.4622,9.5365,0.0,9.5328,9.5365,9.5403,0.0,0.0,9.6294,9.6554,0.0,0.0,0.0,0.0,0.0,0.0,0.0,0.0,0.0,0.0,9.7892,0.0,0.0,0.0,0.0,9.7892,0.0,0.0,0.0,0.0,0.0,0.0,0.0,0.0,0.0,0.0,9.7892,9.7892,9.7892,0.0,0.0,0.0,9.8635,9.9452,10.0307,10.1087,10.1904,10.2721,10.2721,10.2721,10.2721,10.2721,10.2721,10.2721,10.2721,10.2721,10.2721,10.2721,10.2721,10.2721,10.2721,10.2721,10.2721,10.2721,10.2721,10.2721,10.2721,10.2721,10.2721,10.2721,10.2721,10.2721,10.2721,10.2721,10.2721,9.2988,0.0,0.0,0.0,0.0,0.0,0.0,9.2802,0.0,0.0,0.0,0.0,0.0,0.0,9.2988,0.0,0.0,9.2988,9.2988,9.2988,0.0,0.0,0.0,9.2988,0.0,0.0,0.0,0.0,0.0,0.0,0.0,0.0,0.0,0.0,0.0,9.2988,0.0,0.0,0.0,0.0,0.0,9.596,9.6183,0.0,0.0,9.6257,9.6852,9.7037,0.0,9.7372,9.7446,9.752,9.7817,9.7892,9.7892,9.7892,9.7892,0.0,0.0,0.0,9.7892,9.7892,0.0,0.0,0.0,0.0,0.0,0.0,0.0,0.0,0.0,0.0,0.0,0.0,0.0,0.0,0.0,9.7892,9.7892,0.0,0.0,0.0,0.0,0.0,9.8635,9.9452,10.0307,10.1087,10.1904,10.2424,10.2721,10.2721,10.2721,10.2721,10.2721,10.2721,10.2721,10.2721,10.2721,10.2721,10.2721,10.2721,10.2721,10.2721,10.2721,10.2721,10.2721,10.2721,10.2721,10.2721,10.2721,10.2721,10.2721,10.2721,10.2721,10.2721,9.2988,0.0,0.0,0.0,0.0,0.0,0.0,0.0,0.0,0.0,9.2988,0.0,9.2922,0.0,9.2988,0.0,9.2988,9.2988,9.2988,9.2988,0.0,9.2988,9.2988,0.0,0.0,0.0,0.0,0.0,0.0,9.2988,0.0,0.0,0.0,0.0,0.0,0.0,9.3879,0.0,9.4622,0.0,0.0,9.6777,0.0,0.0,9.7074,9.7149,0.0,9.7892,9.7892,9.7892,9.8077,9.8338,9.8338,9.8523,9.8709,9.8412,9.8338,9.8263,9.7966,9.7892,0.0,9.7892,9.7892,0.0,9.7892,0.0,0.0,0.0,0.0,0.0,0.0,0.0,0.0,0.0,0.0,0.0,0.0,9.7892,0.0,0.0,0.0,0.0,0.0,9.7892,9.8226,9.9043,9.9861,10.0715,0.0,10.2313,10.2721,10.2721,10.2721,10.2721,10.2721,10.2721,10.2721,10.2721,10.2721,10.2721,10.2721,10.2721,10.2721,10.2721,10.2721,10.2721,10.2721,10.2721,10.2721,10.2721,10.2721,10.2721,10.2721,10.2721,10.2721,10.2721,0.0,0.0,0.0,0.0,9.2988,0.0,0.0,0.0,9.2988,0.0,9.2988,9.2922,9.2684,9.2855,9.2922,9.2684,9.2855,0.0,9.2988,9.2988,0.0,0.0,9.2988,9.2988,9.2988,0.0,0.0,0.0,0.0,0.0,0.0,0.0,0.0,0.0,9.4251,0.0,9.5403,9.544,9.5477,9.5588,9.6369,9.7186,9.7966,9.7966,9.7966,9.8003,9.7966,9.7966,9.8003,9.8003,9.8523,9.9155,9.9155,9.9675,10.0121,9.9378,9.9155,9.9006,9.8226,9.8003,9.8003,9.8003,0.0,0.0,0.0,0.0,9.7966,0.0,0.0,0.0,0.0,0.0,0.0,0.0,0.0,0.0,0.0,0.0,0.0,0.0,0.0,0.0,0.0,9.7892,9.8226,9.8969,9.9824,10.0604,0.0,10.2201,10.2721,10.2721,10.2721,10.2721,10.2721,10.2721,10.2721,10.2721,10.2721,10.2721,10.2721,10.2721,10.2721,10.2721,10.2721,10.2721,10.2721,10.2721,10.2721,10.2721,10.2721,10.2721,10.2721,10.2721,10.2721,10.2721,9.2988,9.2988,9.2988,0.0,9.2988,9.2988,0.0,0.0,0.0,0.0,9.2788,9.2684,9.2479,9.2547,9.2547,9.2479,9.2547,0.0,0.0,0.0,0.0,9.2988,9.2988,9.2988,9.2988,9.2988,0.0,9.2988,0.0,0.0,9.3879,0.0,0.0,0.0,0.0,0.0,9.544,9.6034,9.6666,9.726,9.7483,9.8077,0.0,0.0,9.9155,9.9601,9.9006,9.9192,9.9675,9.9675,9.9824,10.0009,10.0009,10.0121,10.0307,10.0084,10.0009,9.9935,9.9749,9.9675,9.9675,9.9675,9.9675,9.9675,0.0,0.0,0.0,0.0,0.0,0.0,0.0,0.0,0.0,0.0,0.0,0.0,0.0,0.0,0.0,9.7892,0.0,9.7892,9.7892,9.7892,9.8003,9.8189,9.9526,0.0,0.0,0.0,10.2721,10.2721,10.2721,10.2721,10.2721,10.2721,10.2721,10.2721,10.2721,10.2721,10.2721,10.2721,10.2721,10.2721,10.2721,10.2721,10.2721,10.2721,10.2721,10.2721,10.2721,10.2721,10.2721,10.2721,10.2721,10.2721,9.2988,0.0,0.0,9.2988,0.0,0.0,9.2922,0.0,0.0,9.2616,9.2547,0.0,9.2303,9.2635,9.2857,9.2786,9.3189,0.0,0.0,0.0,0.0,9.3412,9.3374,9.3293,9.3025,9.2988,0.0,9.3508,0.0,0.0,9.4734,0.0,0.0,0.0,0.0,9.6146,0.0,9.6963,9.7446,9.7929,9.8263,0.0,0.0,9.9489,10.0121,10.0789,10.0307,10.0195,10.0307,10.0307,10.0492,10.0789,10.0789,10.1087,10.131,10.0901,10.0789,10.0715,10.0418,10.0307,10.0307,10.0307,10.0307,10.0307,10.0307,9.9935,9.9638,0.0,0.0,0.0,0.0,0.0,0.0,0.0,0.0,0.0,0.0,0.0,0.0,0.0,9.7892,9.7892,9.7892,9.7892,9.7892,9.7892,9.9378,0.0,0.0,0.0,10.2721,10.2721,10.2721,10.2721,10.2721,10.2721,10.2721,10.2721,10.2721,10.2721,10.2721,10.2721,10.2721,10.2721,10.2721,10.2721,10.2721,10.2721,10.2721,10.2721,10.2721,10.2721,10.2721,10.2721,10.2721,10.2721,0.0,0.0,0.0,0.0,0.0,0.0,0.0,9.2684,0.0,9.2409,0.0,9.2417,9.2276,9.3084,9.3634,9.3418,0.0,9.4739,9.4739,9.4739,9.4515,9.4022,9.4022,9.3826,9.3256,9.3322,0.0,0.0,0.0,0.0,0.0,0.0,0.0,0.0,0.0,0.0,0.0,9.7892,9.7966,9.8115,9.882,9.9229,9.9489,10.0195,10.1012,10.1718,10.1718,10.1198,10.0604,10.0604,10.1087,10.1718,10.1718,10.2127,10.261,10.1904,10.1718,10.1495,10.0789,10.0604,10.0604,10.0604,10.0604,10.0604,10.0604,10.0492,10.0492,10.0492,10.0381,10.0084,0.0,0.0,0.0,0.0,0.0,0.0,0.0,0.0,0.0,0.0,0.0,0.0,9.7892,9.7892,9.7892,9.7892,0.0,0.0,0.0,0.0,10.2721,10.2721,10.2721,10.2721,10.2721,0.0,10.2721,10.2721,10.2721,10.2721,10.2721,10.2721,10.2721,10.2721,10.2721,10.2721,10.2721,10.2721,10.2721,10.2721,10.2721,10.2721,10.2721,10.2721,10.2721,10.2721,0.0,0.0,0.0,0.0,0.0,9.2616,9.2233,9.2479,9.2547,9.2162,9.2752,0.0,9.2941,9.3676,9.4154,9.4154,9.4264,0.0,0.0,0.0,0.0,9.4626,9.48,9.4832,9.4753,9.4889,9.5031,0.0,0.0,0.0,0.0,0.0,0.0,0.0,0.0,0.0,9.7892,9.7892,0.0,9.8895,9.9043,9.9898,10.1087,10.1198,10.1793,10.2498,10.2498,10.2424,10.2313,10.2313,10.2387,10.2498,10.2498,10.261,10.2721,10.2498,10.2498,10.2498,10.2313,10.2313,10.2313,10.2313,10.2313,10.2313,10.2313,10.1793,10.131,10.131,10.0789,10.0307,10.0121,0.0,0.0,0.0,0.0,0.0,0.0,0.0,0.0,0.0,0.0,9.7892,0.0,9.7892,9.7892,0.0,0.0,0.0,0.0,0.0,10.2721,0.0,10.2721,0.0,0.0,0.0,10.2721,10.2721,10.2721,10.2721,10.2721,10.2721,10.2721,10.2721,10.2721,10.2721,10.2721,10.2721,10.2721,10.2721,10.2721,10.2721,10.2721,10.2721,10.2721,10.2721,0.0,0.0,0.0,0.0,0.0,0.0,0.0,9.3229,0.0,9.2684,9.3345,9.375,9.3712,9.4446,9.4923,9.4923,9.529,9.5623,9.5661,9.5661,9.5552,9.5331,9.5403,0.0,9.4952,0.0,9.5452,9.586,0.0,0.0,0.0,0.0,0.0,0.0,0.0,9.7892,0.0,0.0,0.0,9.9155,10.0009,10.0789,10.1495,10.2015,10.2387,10.2721,10.2721,10.2721,10.2721,10.2721,10.2721,10.2721,10.2721,10.2721,10.2721,10.2721,10.2721,10.2721,10.2721,10.2721,10.2721,10.2721,10.2721,10.2721,10.2721,10.2424,10.2127,10.2127,10.1793,10.1421,10.1012,10.0307,0.0,0.0,0.0,0.0,0.0,0.0,0.0,0.0,0.0,0.0,0.0,0.0,0.0,0.0,0.0,0.0,0.0,0.0,10.2721,0.0,0.0,0.0,0.0,0.0,0.0,10.2721,10.2721,10.2721,10.2721,10.2721,10.2721,10.2721,10.2721,10.2721,10.2721,10.2721,10.2721,10.2721,10.2721,10.2721,10.2721,10.2721,10.2721,10.2721,0.0,9.2764,0.0,0.0,9.3262,0.0,9.3529,9.4191,9.4375,9.3455,9.4042,9.4556,9.4556,9.529,9.5768,9.5731,9.6318,9.6685,9.6685,9.6685,9.6505,9.5994,9.6031,9.5811,9.5292,9.547,9.5943,0.0,0.0,0.0,0.0,0.0,0.0,0.0,0.0,0.0,0.0,0.0,9.9452,9.9712,10.1012,10.1607,10.1793,10.2498,10.2721,10.2721,10.2907,10.3019,10.3019,10.3204,10.3019,10.2721,10.2721,10.2796,10.3019,10.3019,10.3093,10.3204,10.3204,10.3204,10.3204,10.3204,10.3204,10.3204,10.3204,10.3204,10.3204,10.3204,10.3093,10.2721,10.1718,10.1012,0.0,0.0,0.0,0.0,0.0,0.0,0.0,0.0,0.0,0.0,9.8412,0.0,0.0,0.0,0.0,0.0,10.0492,0.0,0.0,0.0,0.0,10.2721,10.2721,0.0,10.2721,10.2721,10.2721,10.2721,10.2721,10.2721,10.2721,10.2721,10.2721,10.2721,10.2721,10.2721,10.2721,10.2721,10.2721,10.2721,10.2721,10.2721,10.2721,10.2721,0.0,0.0,0.0,0.0,0.0,0.0,0.0,9.485,9.5107,9.4299,9.4887,9.5401,9.5401,9.6098,9.6575,9.6575,9.6649,9.6685,9.6685,9.6685,9.6649,9.6575,9.6803,9.6841,9.6842,9.699,9.7245,0.0,0.0,0.0,0.0,0.0,0.0,0.0,0.0,0.0,0.0,9.9861,10.0604,10.131,10.1421,10.1904,10.261,10.2721,10.2721,10.2796,10.3613,10.391,10.3984,10.469,10.3984,10.2721,10.2721,10.3204,10.391,10.391,10.4393,10.4987,10.4987,10.4987,10.4987,10.4987,10.4987,10.4987,10.4987,10.4987,10.4987,10.4987,10.4393,10.339,10.1793,10.1421,10.1124,0.0,0.0,0.0,0.0,0.0,0.0,0.0,0.0,0.0,0.0,10.0084,0.0,0.0,10.0195,0.0,0.0,0.0,0.0,10.2721,0.0,10.2721,10.2721,10.2721,10.2721,10.2721,10.2721,10.2721,10.2721,10.2721,10.2721,10.2721,10.2721,10.2721,10.2721,10.2721,10.2721,10.2721,10.2721,10.2721,10.2721,10.2721,10.2721,10.2721,0.0,0.0,0.0,0.0,0.0,0.0,0.0,9.6428,9.7016,9.7163,9.6612,9.6392,9.6906,9.7236,9.7603,9.8117,9.8154,9.8154,9.8154,9.8154,9.8154,9.8154,9.8231,9.8309,9.8309,9.8462,9.8355,0.0,0.0,0.0,0.0,0.0,0.0,0.0,0.0,9.9537,9.9646,10.0462,10.1054,10.1607,10.261,10.3204,10.3501,10.4022,10.4207,10.4207,10.4616,10.469,10.4802,10.5099,10.4802,10.4207,10.4207,10.4393,10.469,10.469,10.4913,10.521,10.521,10.521,10.521,10.521,10.521,10.521,10.521,10.521,10.521,10.521,10.4616,10.3799,10.3093,10.261,10.2015,0.0,0.0,0.0,0.0,0.0,0.0,0.0,0.0,0.0,0.0,0.0,0.0,0.0,0.0,0.0,0.0,0.0,0.0,10.2721,0.0,10.2721,10.2721,10.2721,10.2721,10.2721,10.2721,10.2721,10.2721,10.2721,10.2721,10.2721,10.2721,10.2721,10.2721,10.2721,10.2721,10.2721,10.2721,10.2721,10.2721,10.2721,10.2721,10.2721,9.4448,0.0,9.511,0.0,9.5878,9.6759,9.7309,9.7897,9.8447,9.9035,9.8117,9.764,9.819,9.8264,9.8484,9.9071,9.9108,9.9108,9.9108,9.9108,9.9108,9.9108,9.9108,0.0,9.9108,9.9264,9.9048,9.8572,9.9427,0.0,0.0,0.0,0.0,0.0,10.0019,10.0315,10.0722,10.1648,10.2204,10.2611,10.391,10.4393,10.4393,10.4987,10.521,10.521,10.5508,10.5619,10.5619,10.5805,10.5916,10.5805,10.5322,10.5396,10.5619,10.5619,10.5693,10.5916,10.5916,10.5916,10.5916,10.5916,10.5916,10.5916,10.5916,10.5916,10.5805,10.5619,10.5099,10.4616,10.4096,10.3501,10.2796,10.2015,0.0,0.0,0.0,0.0,0.0,0.0,0.0,10.1012,10.1012,10.1012,0.0,0.0,0.0,0.0,0.0,0.0,0.0,0.0,0.0,0.0,0.0,10.2721,10.2721,10.2721,10.2721,10.2721,10.2721,10.2721,10.2721,10.2721,10.2721,10.2721,10.2721,10.2721,10.2721,10.2721,10.2721,10.2721,10.2721,10.2721,10.2721,10.2721,9.4299,9.5584,9.6685,9.6685,9.8007,9.9071,9.9071,9.9071,9.9108,9.9108,9.9071,9.9071,9.9071,9.9108,9.9108,9.9108,9.9108,9.9108,9.9108,9.9108,9.9108,0.0,0.0,9.9108,9.9108,9.9108,9.9186,9.9382,0.0,0.0,9.9722,0.0,9.9722,9.9759,10.0535,10.1311,10.2086,10.3202,10.4093,10.4871,10.5098,10.521,10.521,10.521,10.521,10.5322,10.6102,10.6399,10.6511,10.7328,10.7625,10.7328,10.5693,10.5693,10.6399,10.6399,10.6919,10.7625,10.7625,10.7625,10.7625,10.7625,10.7625,10.7625,10.7625,10.7625,10.7328,10.6511,10.6399,10.5916,10.4319,10.3984,10.3687,10.2796,0.0,0.0,0.0,0.0,0.0,0.0,10.2721,10.2721,10.2721,10.2721,0.0,0.0,0.0,0.0,0.0,0.0,0.0,10.2721,10.2721,0.0,10.2721,10.2721,10.2721,10.2721,10.2721,10.2721,10.2721,10.2721,10.2721,10.2721,10.2721,10.2721,10.2721,10.2721,10.2721,10.2721,10.2721,10.2721,10.2721,10.2721,10.2721,10.2721,9.7566,9.797,9.8337,9.8337,9.8778,9.9292,9.9842,9.9916,10.0099,10.0686,10.0686,10.0686,10.0686,10.0209,10.0099,0.0,10.0686,10.0686,0.0,10.0686,10.0686,10.0686,10.0686,10.0686,10.0686,10.0686,10.0466,9.9995,0.0,0.0,0.0,10.1194,10.1412,10.2001,10.2065,10.2733,10.3586,10.4081,10.4495,10.4982,10.573,10.5991,10.6102,10.6622,10.6808,10.6919,10.7105,10.7217,10.7291,10.7514,10.7625,10.7514,10.6994,10.6994,10.7217,10.7217,10.7402,10.7625,10.7625,10.7625,10.7625,10.7625,10.7625,10.7625,10.7625,10.7625,10.7514,10.7291,10.6808,10.6213,10.5693,10.469,10.391,10.3613,10.3093,0.0,0.0,0.0,0.0,0.0,10.2721,10.2721,0.0,10.2721,0.0,0.0,0.0,0.0,0.0,0.0,0.0,0.0,10.2721,0.0,10.2721,10.2721,10.2721,10.2721,10.2721,10.2721,10.2721,10.2721,10.2721,10.2721,10.2721,10.2721,10.2721,10.2721,10.2721,10.2721,10.2721,10.2721,10.2721,10.2721,10.2721,10.2721,9.9108,9.9365,9.9548,9.9548,9.9805,10.0209,10.0686,10.0796,10.1017,10.1788,10.1971,10.2081,10.2375,10.1971,0.0,10.1494,10.1494,10.1494,10.1494,10.1788,10.1971,10.1971,10.2191,10.2375,10.2375,0.0,0.0,10.1677,10.2316,10.269,10.2812,10.258,10.2867,10.3272,10.3227,10.3705,10.464,10.4765,10.5226,10.56,10.6316,10.6616,10.669,10.7286,10.7472,10.7549,10.7625,10.7625,10.7625,10.7625,10.7625,10.7625,10.7625,10.7625,10.7625,10.7625,10.7625,10.7625,10.7625,10.7625,10.7625,10.7625,10.7625,10.7625,10.7625,10.7625,10.7625,10.7625,10.7217,10.6808,10.6511,10.5322,10.4393,10.4022,10.3316,10.2721,10.2721,0.0,0.0,0.0,0.0,0.0,0.0,10.2721,10.2721,0.0,0.0,0.0,0.0,0.0,0.0,10.2721,10.2721,0.0,10.2721,10.2721,10.2721,10.2721,10.2721,10.2721,10.2721,10.2721,10.2721,10.2721,10.2721,10.2721,10.2721,10.2721,10.2721,10.2721,10.2721,10.2721,10.2721,10.2721,10.2721,10.2721,9.9212,9.9879,0.0,0.0,10.098,0.0,10.1567,10.1604,10.1898,10.2705,10.2815,10.3109,10.3806,10.388,10.3293,10.1788,0.0,0.0,0.0,10.2375,10.2815,10.2815,10.3513,10.388,10.388,10.388,10.388,10.388,10.388,10.388,10.388,10.388,10.388,10.399,10.399,10.4394,10.5201,10.5486,10.5973,10.6673,10.6918,10.6998,10.6962,10.72,10.7316,10.7279,10.7472,10.7586,10.7586,10.7625,10.7625,10.7625,10.7625,10.7625,10.7625,10.7625,10.7625,10.7625,10.7625,10.7625,10.7625,10.7625,10.7625,10.7625,10.7625,10.7625,10.7625,10.7625,10.7625,10.7402,10.6622,10.5805,10.4987,10.4207,10.3316,10.2721,10.2721,0.0,0.0,0.0,0.0,0.0,0.0,10.2721,10.2721,0.0,0.0,0.0,0.0,0.0,10.2721,10.2721,10.2721,10.2721,10.2721,10.2721,10.2721,10.2721,10.2721,10.2721,10.2721,10.2721,10.2721,10.2721,10.2721,10.2721,10.2721,10.2721,10.2721,10.2721,10.2721,10.2721,10.2721,10.2721,10.2721,10.2721,0.0,0.0,10.12,10.12,10.1898,10.2412,10.2412,10.2889,10.3403,10.3586,10.3586,10.3696,10.388,10.388,10.3696,10.3403,10.3293,10.3293,10.3293,10.3513,10.3586,10.3586,10.3806,10.388,10.388,10.388,10.388,10.388,10.388,10.388,10.388,10.388,10.421,10.4798,10.4798,10.5311,10.6082,10.6296,10.6489,10.6673,10.6918,10.6998,10.6998,10.7116,10.7079,10.7079,10.7121,10.7121,10.7158,10.7279,10.7394,10.7394,10.7586,10.7625,10.7625,10.7625,10.7625,10.7625,10.7625,10.7625,10.7625,10.7625,10.7625,10.7625,10.7625,10.7625,10.7625,10.7625,10.7625,10.7514,10.7402,10.6213,10.5099,10.4913,10.3687,10.2721,10.2721,10.2721,0.0,0.0,10.2721,10.2721,10.2721,10.2721,10.2721,0.0,0.0,0.0,0.0,10.2721,10.2721,10.2721,10.2721,10.2721,10.2721,10.2721,10.2721,10.2721,10.2721,10.2721,10.2721,10.2721,10.2721,10.2721,10.2721,10.2721,10.2721,10.2721,10.2721,10.2721,10.2721,10.2721,10.2721,10.2721,10.2721,10.2721,10.1259,10.1465,10.1706,10.2192,10.2595,10.3044,10.3128,10.3494,10.3944,10.443,10.4394,10.4614,10.4981,10.4981,10.4981,10.4981,10.4284,10.388,10.388,10.421,10.4394,10.4394,10.4798,10.4981,10.4981,10.4981,10.4981,10.4981,10.4981,10.4981,10.4981,10.4981,10.5311,10.5715,10.5715,10.6009,10.6376,10.6544,10.6581,10.6581,10.671,10.6673,10.6718,10.6837,10.6874,10.6874,10.7035,10.6998,10.6962,10.7121,10.7158,10.7237,10.7316,10.7279,10.732,10.7434,10.7511,10.7625,10.7625,10.7625,10.7625,10.7625,10.7625,10.7625,10.7625,10.7625,10.7625,10.7625,10.7625,10.7625,10.7625,10.6288,10.521,10.521,10.3799,10.2721,10.2721,10.2721,0.0,10.2721,10.2721,10.2721,10.2721,10.2721,10.2721,10.2721,0.0,0.0,10.2721,10.2721,10.2721,10.2721,10.2721,10.2721,10.2721,10.2721,10.2721,10.2721,10.2721,10.2721,10.2721,10.2721,10.2721,10.2721,10.2721,10.2721,10.2721,10.2721,10.2721,10.2721,10.2721,10.2721,10.2721,10.2721,10.2721,10.2721,10.141,10.1733,10.204,10.2797,10.314,10.33,10.3632,10.3827,10.4205,10.5117,10.5348,10.5605,10.6302,10.6376,10.6376,10.6376,10.5091,10.4284,10.4284,10.4908,10.5311,10.5311,10.6009,10.6376,10.6376,10.6376,10.6376,10.6376,10.6376,10.6376,10.6376,10.6376,10.6376,10.6376,10.6376,10.6376,10.6376,10.6376,10.6376,10.6376,10.6376,10.6376,10.6376,10.6627,10.6664,10.671,10.68,10.6918,10.6918,10.6881,10.7035,10.7035,10.6998,10.6998,10.7042,10.72,10.7394,10.7511,10.7625,10.7625,10.7625,10.7625,10.7625,10.7625,10.7625,10.7625,10.7625,10.7625,10.7625,10.7625,10.7402,10.6213,10.521,10.5025,10.3724,10.2721,10.2721,0.0,10.2721,10.2721,10.2721,10.2721,10.2721,10.2721,10.2721,10.2721,10.2721,10.2721,10.2721,10.2721,10.2721,10.2721,10.2721,10.2721,10.2721,10.2721,10.2721,10.2721,10.2721,10.2721,10.2721,10.2721,10.2721,10.2721,10.2721,10.2721,10.2721,10.2721,10.2721,10.2721,10.2721,10.2721,10.2721,10.2721,10.2721,10.2721,10.1259,10.1507,10.1673,10.1838,10.2601,10.3347,10.3566,10.4632,10.5422,10.5778,10.6108,10.6192,10.6376,10.6376,10.6376,10.6376,10.6192,10.6009,10.6009,10.6082,10.6192,10.6192,10.6302,10.6376,10.6376,10.6376,10.6376,10.6376,10.6376,10.6376,10.6376,10.6376,10.6376,10.6376,10.6376,10.6376,10.6376,10.6376,10.6376,10.6376,10.6376,10.6376,10.6376,10.6376,10.6423,10.6534,10.6497,10.646,10.6544,10.671,10.6718,10.6792,10.6881,10.6998,10.6998,10.7042,10.7079,10.7158,10.7511,10.7625,10.7625,10.7625,10.7625,10.7625,10.7625,10.7625,10.7625,10.7625,10.7625,10.7402,10.6696,10.5805,10.4987,10.4319,10.339,10.2721,10.2721,0.0,10.2721,10.2721,10.2721,10.2721,10.2721,10.2721,10.2721,10.2721,10.2721,10.2721,10.2721,10.2721,10.2721,10.2721,10.2721,10.2721,10.2721,10.2721,10.2721,10.2721,10.2721,10.2721,10.2721,10.2721,10.2721,10.2721,10.2721,10.2721,10.2721,10.2721,10.2721,10.2721,10.2721,10.2721,10.2721,10.2721,10.2721,10.2721,10.0889,10.1197,10.154,10.223,10.2686,10.3195,10.3842,10.4412,10.4907,10.538,10.5611,10.5823,10.5823,10.5997,10.6206,10.6206,10.6291,10.6376,10.6376,10.6376,10.6376,10.6376,10.6376,10.6376,10.6376,10.6376,10.6376,10.6376,10.6376,10.6376,10.6376,10.6376,10.6376,10.6376,10.6376,10.6376,10.6376,10.6376,10.6376,10.6376,10.6376,10.6376,10.6376,10.6376,10.6376,10.6376,10.6376,10.6376,10.6376,10.646,10.6507,10.6581,10.6553,10.671,10.671,10.6755,10.6998,10.72,10.7394,10.7511,10.7625,10.7625,10.7625,10.7625,10.7625,10.7625,10.7625,10.7625,10.7625,10.7402,10.6511,10.5693,10.4913,10.4096,10.3316,0.0,0.0,10.2721,10.2721,10.2721,10.2721,10.2721,10.2721,10.2721,10.2721,10.2721,10.2721,10.2721,10.2721,10.2721,10.2721,10.2721,10.2721,10.2721,10.2721,10.2721,10.2721,10.2721,10.2721,10.2721,10.2721,10.2721,10.2721,10.2721,10.2721,10.2721,10.2721,10.2721,10.2721,10.2721,10.2721,10.2721,10.2721,10.2721,10.2721,10.2721,10.0693,10.0905,10.1152,10.2244,10.2455,10.2939,10.3473,10.3804,10.4132,10.4644,10.4759,10.498,10.5108,10.5433,10.5699,10.5787,10.612,10.6169,10.6291,10.6413,10.6376,10.6376,10.6376,10.6376,10.6376,10.6376,10.6376,10.6376,10.6376,10.6376,10.6376,10.6376,10.6376,10.6376,10.6376,10.6376,10.6376,10.6376,10.6376,10.6376,10.6376,10.6376,10.6376,10.6376,10.6376,10.6376,10.6376,10.6376,10.6376,10.6376,10.6376,10.6376,10.6376,10.6376,10.6376,10.6544,10.6874,10.7158,10.7316,10.7357,10.7511,10.7625,10.7625,10.7625,10.7625,10.7625,10.7625,10.7625,10.7625,10.7328,10.6325,10.5619,10.4913,10.391,0.0,0.0,0.0,10.2721,10.2721,10.2721,10.2721,10.2721,10.2721,10.2721,10.2721,10.2721,10.2721,10.2721,10.2721,10.2721,10.2721,10.2721,10.2721,10.2721,10.2721,10.2721,10.2721,10.2721,10.2721,10.2721,10.2721,10.2721,10.2721,10.2721,10.2721,10.2721,10.2721,10.2721,10.2721,10.2721,10.2721,10.2721,10.2721,10.2721,10.2721,10.2721,10.0837,10.0837,10.0837,10.0872,10.1458,10.1891,10.2211,10.2904,10.3544,10.384,10.3999,10.4252,10.4478,10.4608,10.4795,10.529,10.5486,10.5823,10.5997,10.6328,10.6376,10.6376,10.6376,10.6376,10.6376,10.6376,10.6376,10.6376,10.6376,10.6376,10.6376,10.6376,10.6376,10.6376,10.6376,10.6376,10.6376,10.6376,10.6376,10.6376,10.6376,10.6376,10.6376,10.6376,10.6376,10.6376,10.6376,10.6376,10.6376,10.6376,10.6376,10.6376,10.6376,10.6376,10.6376,10.6376,10.6581,10.6837,10.7237,10.7279,10.7394,10.7586,10.7625,10.7625,10.7625,10.7625,10.7625,10.7625,10.7625,10.7105,10.5619,10.521,10.469,10.3093,0.0,0.0,10.2721,10.2721,10.2721,10.2721,10.2721,10.2721,10.2721,10.2721,10.2721,10.2721,10.2721,10.2721,10.2721,10.2721,10.2721,10.2721,10.2721,10.2721,10.2721,10.2721,10.2721,10.2721,10.2721,10.2721,10.2721,10.2721,10.2721,10.2721,10.2721,10.2721,10.2721,10.2721,10.2721,10.2721,10.2721,10.2721,10.2721,10.2721,10.2721,10.2721,10.0194,10.0194,10.0343,10.0491,10.0683,10.1018,10.1458,10.1856,10.2034,10.2386,10.2627,10.2832,10.3173,10.3473,10.3927,10.4514,10.4795,10.5071,10.5522,10.5823,10.612,10.6413,10.6376,10.6376,10.6376,10.6376,10.6376,10.6376,10.6376,10.6376,10.6376,10.6376,10.6376,10.6376,10.6376,10.6376,10.6376,10.6376,10.6376,10.6376,10.6376,10.6376,10.6376,10.6376,10.6376,10.6376,10.6376,10.6376,10.6376,10.6376,10.6376,10.6376,10.6376,10.6376,10.6376,10.6376,10.6497,10.6581,10.691,10.6962,10.7121,10.72,10.7279,10.7357,10.7357,10.7511,10.7625,10.7625,10.7217,10.6511,10.5396,10.4802,10.4096,10.2907,0.0,10.2721,10.2721,10.2721,10.2721,10.2721,10.2721,10.2721,10.2721,10.2721,10.2721,10.2721,10.2721,10.2721,10.2721,10.2721,10.2721,10.2721,10.2721,10.2721,10.2721,10.2721,10.2721,10.2721,10.2721,10.2721,10.2721,10.2721,10.2721,10.2721,10.2721,10.2721,10.2721,10.2721,10.2721,10.2721,10.2721,10.2721,10.2721,10.2721,10.2721,10.2721,9.9883,9.9883,9.9999,10.0149,10.0263,10.0491,10.0907,10.0983,10.1164,10.1384,10.1497,10.1713,10.2105,10.2351,10.2797,10.3473,10.3769,10.4156,10.4924,10.5307,10.575,10.6413,10.6376,10.6376,10.6376,10.6376,10.6376,10.6376,10.6376,10.6376,10.6376,10.6376,10.6376,10.6376,10.6376,10.6376,10.6376,10.6376,10.6376,10.6376,10.6376,10.6376,10.6376,10.6376,10.6376,10.6376,10.6376,10.6376,10.6376,10.6376,10.6376,10.6376,10.6376,10.6376,10.6376,10.6376,10.6376,10.6376,10.6581,10.6673,10.68,10.7035,10.7195,10.7316,10.7316,10.7509,10.7625,10.7625,10.6994,10.6213,10.5322,10.4505,10.3687,10.2796,10.2721,10.2721,10.2721,10.2721,10.2721,10.2721,10.2721,10.2721,10.2721,10.2721,10.2721,10.2721,10.2721,10.2721,10.2721,10.2721,10.2721,10.2721,10.2721,10.2721,10.2721,10.2721,10.2721,10.2721,10.2721,10.2721,10.2721,10.2721,10.2721,10.2721,10.2721,10.2721,10.2721,10.2721,10.2721,10.2721,10.2721,10.2721,10.2721,10.2721,10.2721,10.2721,9.9883,9.9883,9.9883,9.9883,10.0183,10.0412,10.0412,10.0605,10.083,10.083,10.083,10.0907,10.1239,10.1204,10.1497,10.2386,10.2663,10.3173,10.3963,10.4999,10.575,10.6413,10.6413,10.6376,10.6376,10.6376,10.6376,10.6376,10.6376,10.6376,10.6376,10.6376,10.6376,10.6376,10.6376,10.6376,10.6376,10.6376,10.6376,10.6376,10.6376,10.6376,10.6376,10.6376,10.6376,10.6376,10.6376,10.6376,10.6376,10.6376,10.6376,10.6376,10.6376,10.6376,10.6376,10.6376,10.6376,10.6376,10.6376,10.6376,10.646,10.6918,10.7084,10.7316,10.7316,10.7509,10.7625,10.7625,10.6919,10.6102,10.5322,10.4505,10.3687,10.2796,10.2721,10.2721,10.2721,10.2721,10.2721,10.2721,10.2721,10.2721,10.2721,10.2721,10.2721,10.2721,10.2721,10.2721,10.2721,10.2721,10.2721,10.2721,10.2721,10.2721,10.2721,10.2721,10.2721,10.2721,10.2721,10.2721,10.2721,10.2721,10.2721,10.2721,10.2721,10.2721,10.2721,10.2721,10.2721,10.2721,10.2721,10.2721,10.2721,10.2721,10.2721,10.2721,9.9883,9.9883,9.9883,9.9883,10.0033,9.9999,9.9999,10.0114,10.0149,10.0149,10.0149,10.0263,10.0605,10.057,10.0942,10.1532,10.1606,10.2246,10.3544,10.4478,10.5307,10.5787,10.6206,10.6376,10.6376,10.6376,10.6376,10.6376,10.6376,10.6376,10.6376,10.6376,10.6376,10.6376,10.6376,10.6376,10.6376,10.6376,10.6376,10.6376,10.6376,10.6376,10.6376,10.6376,10.6376,10.6376,10.6376,10.6376,10.6376,10.6376,10.6376,10.6376,10.6376,10.6376,10.6376,10.6376,10.6376,10.6376,10.6376,10.6376,10.6376,10.6507,10.6673,10.6874,10.6874,10.7121,10.7209,10.669,10.6027,10.5322,10.4505,10.3687,10.3019,10.2721,10.2721,10.2721,10.2721,10.2721,10.2721,10.2721,10.2721,10.2721,10.2721,10.2721,10.2721,10.2721,10.2721,10.2721,10.2721,10.2721,10.2721,10.2721,10.2721,10.2721,10.2721,10.2721,10.2721,10.2721,10.2721,10.2721,10.2721,10.2721,10.2721,10.2721,10.2721,10.2721,10.2721,10.2721,10.2721,10.2721,10.2721,10.2721,10.2721,10.2721,10.2721,10.2721,9.9883,9.9883,9.9883,9.9883,9.9883,9.9883,9.9883,9.9883,9.9883,9.9883,9.9883,10.0033,10.0183,10.0149,10.0378,10.076,10.1239,10.1749,10.2837,10.3769,10.4629,10.509,10.5648,10.612,10.6413,10.6376,10.6376,10.6376,10.6376,10.6376,10.6376,10.6376,10.6376,10.6376,10.6376,10.6376,10.6376,10.6376,10.6376,10.6376,10.6376,10.6376,10.6376,10.6376,10.6376,10.6376,10.6376,10.6376,10.6376,10.6376,10.6376,10.6376,10.6376,10.6376,10.6376,10.6376,10.6376,10.6376,10.6376,10.6376,10.6376,10.6376,10.6581,10.671,10.671,10.6777,10.6686,10.6205,10.5394,10.4616,10.4096,10.3316,10.2721,10.2721,10.2721,10.2721,10.2721,10.2721,10.2721,10.2721,10.2721,10.2721,10.2721,10.2721,10.2721,10.2721,10.2721,10.2721,10.2721,10.2721,10.2721,10.2721,10.2721,10.2721,10.2721,10.2721,10.2721,10.2721,10.2721,10.2721,10.2721,10.2721,10.2721,10.2721,10.2721,10.2721,10.2721,10.2721,10.2721,10.2721,10.2721,10.2721,10.2721,10.2721,10.2721,10.2721,9.9883,9.9883,9.9883,9.9883,9.9883,9.9883,9.9883,9.9883,9.9883,9.9883,9.9883,9.9883,9.9883,9.9883,9.9999,10.0263,10.1164,10.1676,10.1998,10.3006,10.3769,10.4419,10.4887,10.547,10.6206,10.6291,10.6291,10.6291,10.6291,10.6254,10.6413,10.6413,10.6413,10.6376,10.6376,10.6376,10.6376,10.6376,10.6376,10.6376,10.6376,10.6376,10.6376,10.6376,10.6376,10.6376,10.6376,10.6376,10.6376,10.6376,10.6376,10.6376,10.6376,10.6376,10.6376,10.6376,10.6376,10.6376,10.6376,10.6376,10.6376,10.6376,10.6507,10.6636,10.6636,10.6334,10.5979,10.5945,10.4838,10.4022,10.391,10.3204,10.2721,10.2721,10.2721,10.2721,10.2721,10.2721,10.2721,10.2721,10.2721,10.2721,10.2721,10.2721,10.2721,10.2721,10.2721,10.2721,10.2721,10.2721,10.2721,10.2721,10.2721,10.2721,10.2721,10.2721,10.2721,10.2721,10.2721,10.2721,10.2721,10.2721,10.2721,10.2721,10.2721,10.2721,10.2721,10.2721,10.2721,10.2721,10.2721,10.2721,10.2721,10.2721,10.2721,10.2721,9.9883,9.9883,9.9883,9.9883,9.9883,9.9883,9.9883,9.9883,9.9883,9.9883,9.9883,9.9883,9.9883,9.9883,9.9883,10.0033,10.0378,10.0942,10.1349,10.2246,10.2934,10.3473,10.4024,10.4383,10.4499,10.5271,10.5823,10.5823,10.5823,10.5911,10.6084,10.6084,10.6206,10.6376,10.6376,10.6376,10.6376,10.6376,10.6376,10.6376,10.6376,10.6376,10.6376,10.6376,10.6376,10.6376,10.6376,10.6376,10.6376,10.6376,10.6376,10.6376,10.6376,10.6376,10.6376,10.6376,10.6376,10.6376,10.6376,10.6376,10.6376,10.6376,10.5862,10.5432,10.5432,10.5486,10.5251,10.4081,10.3795,10.3576,10.313,10.2796,10.2721,10.2721,10.2721,10.2721,10.2721,10.2721,10.2721,10.2721,10.2721,10.2721,10.2721,10.2721,10.2721,10.2721,10.2721,10.2721,10.2721,10.2721,10.2721,10.2721,10.2721,10.2721,10.2721,10.2721,10.2721,10.2721,10.2721,10.2721,10.2721,10.2721,10.2721,10.2721,10.2721,10.2721,10.2721,10.2721,10.2721,10.2721,10.2721,10.2721,10.2721,10.2721,10.2721,10.2721,9.9883,9.9883,9.9883,9.9883,9.9883,9.9883,9.9883,9.9883,9.9883,9.9883,9.9883,9.9883,9.9883,9.9883,9.9883,9.9883,10.0149,10.0491,10.083,10.1458,10.1999,10.249,10.2797,10.3101,10.3202,10.383,10.4311,10.4779,10.4943,10.5126,10.5253,10.5522,10.5699,10.586,10.6084,10.6169,10.6169,10.6339,10.6376,10.6376,10.6376,10.6376,10.6376,10.6376,10.6376,10.6376,10.6376,10.6376,10.6376,10.6376,10.6376,10.6376,10.6376,10.6376,10.6376,10.6376,10.6376,10.6376,10.6376,10.6376,10.6376,10.6376,10.5715,10.5128,10.5128,10.4706,10.4102,10.3375,10.32,10.302,10.2685,10.2721,10.2721,10.2721,10.2721,10.2721,10.2721,10.2721,10.2721,10.2721,10.2721,10.2721,10.2721,10.2721,10.2721,10.2721,10.2721,10.2721,10.2721,10.2721,10.2721,10.2721,10.2721,10.2721,10.2721,10.2721,10.2721,10.2721,10.2721,10.2721,10.2721,10.2721,10.2721,10.2721,10.2721,10.2721,10.2721,10.2721,10.2721,10.2721,10.2721,10.2721,10.2721,10.2721,10.2721,10.2721,9.9883,9.9883,9.9883,9.9883,9.9883,9.9883,9.9883,9.9883,9.9883,9.9883,9.9883,9.9883,9.9883,9.9883,9.9883,9.9883,10.0183,10.0263,10.0412,10.0795,10.1239,10.1458,10.1749,10.1928,10.2105,10.2105,10.2663,10.3697,10.4096,10.4156,10.4288,10.4795,10.5144,10.5235,10.5559,10.5823,10.5911,10.6084,10.6328,10.6254,10.6254,10.6413,10.6376,10.6376,10.6376,10.6376,10.6376,10.6376,10.6376,10.6376,10.6376,10.6376,10.6376,10.6376,10.6376,10.6376,10.6376,10.6376,10.6376,10.6376,10.6376,10.6192,10.5495,10.4908,10.4724,10.3823,10.2991,10.308,10.2719,10.2389,10.2685,10.2721,10.2721,10.2721,10.2721,10.2721,10.2721,10.2721,10.2721,10.2721,10.2721,10.2721,10.2721,10.2721,10.2721,10.2721,10.2721,10.2721,10.2721,10.2721,10.2721,10.2721,10.2721,10.2721,10.2721,10.2721,10.2721,10.2721,10.2721,10.2721,10.2721,10.2721,10.2721,10.2721,10.2721,10.2721,10.2721,10.2721,10.2721,10.2721,10.2721,10.2721,10.2721,10.2721,10.2721,10.2721,9.9883,9.9883,9.9883,9.9883,9.9883,9.9883,9.9883,9.9883,9.9883,9.9883,9.9883,9.9883,9.9883,9.9883,9.9883,9.9883,9.9883,10.0149,10.0412,10.0561,10.0605,10.0907,10.0872,10.1053,10.0983,10.0983,10.1497,10.2592,10.3006,10.3173,10.3437,10.3733,10.4228,10.4608,10.4702,10.5016,10.538,10.538,10.5684,10.612,10.612,10.6206,10.6376,10.6376,10.6376,10.6376,10.6376,10.6376,10.6376,10.6376,10.6376,10.6376,10.6376,10.6376,10.6376,10.6376,10.6376,10.6376,10.6376,10.6376,10.6192,10.5495,10.4687,10.388,10.3219,10.2889,10.261,10.2305,10.2197,10.2313,10.2611,10.2721,10.2721,10.2721,10.2721,10.2721,10.2721,10.2721,10.2721,10.2721,10.2721,10.2721,10.2721,10.2721,10.2721,10.2721,10.2721,10.2721,10.2721,10.2721,10.2721,10.2721,10.2721,10.2721,10.2721,10.2721,10.2721,10.2721,10.2721,10.2721,10.2721,10.2721,10.2721,10.2721,10.2721,10.2721,10.2721,10.2721,10.2721,10.2721,10.2721,10.2721,10.2721,10.2721,10.2721,10.2721,9.9883,9.9883,9.9883,9.9883,9.9883,9.9883,9.9883,9.9883,9.9883,9.9883,9.9883,9.9883,9.9883,9.9883,9.9883,9.9883,9.9883,9.9999,10.0149,10.0149,10.0149,10.0229,10.0343,10.0343,10.0343,10.0343,10.0535,10.1059,10.1571,10.2034,10.214,10.2524,10.3006,10.3409,10.3706,10.3963,10.4383,10.4702,10.5016,10.5163,10.547,10.5699,10.5997,10.6084,10.6328,10.6376,10.6376,10.6376,10.6376,10.6376,10.6376,10.6376,10.6376,10.6376,10.6376,10.6376,10.6376,10.6376,10.6376,10.6009,10.5605,10.5201,10.421,10.3109,10.2815,10.2412,10.1978,10.212,10.2123,10.2163,10.2611,10.2721,10.2721,10.2721,10.2721,10.2721,10.2721,10.2721,10.2721,10.2721,10.2721,10.2721,10.2721,10.2721,10.2721,10.2721,10.2721,10.2721,10.2721,10.2721,10.2721,10.2721,10.2721,10.2721,10.2721,10.2721,10.2721,10.2721,10.2721,10.2721,10.2721,10.2721,10.2721,10.2721,10.2721,10.2721,10.2721,10.2721,10.2721,10.2721,10.2721,10.2721,10.2721,10.2721,10.2721,10.261]},{"header":{"parameterUnit":"m.s-1","parameterCategory":1,"la1":30.6,"la2":28.766,"lo1":-90.7593,"lo2":-88.6598,"dy":0.0162,"dx":0.0183,"nx":116,"ny":114,"refTime":"2024-02-25T06:00:00:Z","depth":0,"parameterNumber":3,"parameterNumberName":"V-component_of_WINDS"},"data":[0.0,0.0,0.0,0.0,0.0,0.0,0.0,0.0,0.0,0.0,0.0,0.0,0.0,0.0,0.0,0.0,0.0,0.0,0.0,0.0,0.0,0.0,0.0,0.0,0.0,0.0,0.0,0.0,0.0,0.0,0.0,0.0,0.0,0.0,0.0,0.0,0.0,0.0,0.0,0.0,0.0,0.0,0.0,0.0,0.0,0.0,0.0,0.0,0.0,0.0,0.0,0.0,0.0,0.0,0.0,0.0,0.0,0.0,0.0,0.0,0.0,0.0,0.0,0.0,0.0,0.0,0.0,0.0,0.0,0.0,0.0,0.0,0.0,0.0,0.0,0.0,0.0,0.0,0.0,0.0,0.0,0.0,0.0,0.0,0.0,0.0,0.0,0.0,0.0,0.0,0.0,0.0,0.0,0.0,0.0,0.0,0.0,0.0,0.0,0.0,0.0,0.0,0.0,0.0,0.0,0.0,0.0,0.0,0.0,0.0,0.0,0.0,0.0,0.0,0.0,0.0,0.0,0.0,0.0,0.0,0.0,0.0,0.0,0.0,0.0,0.0,0.0,0.0,0.0,0.0,0.0,0.0,0.0,0.0,0.0,0.0,0.0,0.0,0.0,0.0,0.0,0.0,0.0,0.0,0.0,0.0,0.0,0.0,0.0,0.0,0.0,0.0,0.0,0.0,0.0,0.0,0.0,0.0,0.0,0.0,0.0,0.0,0.0,0.0,0.0,0.0,0.0,0.0,0.0,0.0,0.0,0.0,0.0,0.0,0.0,0.0,0.0,0.0,0.0,0.0,0.0,0.0,0.0,0.0,0.0,0.0,0.0,0.0,0.0,0.0,0.0,0.0,0.0,0.0,0.0,0.0,0.0,0.0,0.0,0.0,0.0,0.0,0.0,0.0,0.0,0.0,0.0,0.0,0.0,0.0,0.0,0.0,0.0,0.0,0.0,0.0,0.0,0.0,0.0,0.0,0.0,0.0,0.0,0.0,0.0,0.0,0.0,0.0,0.0,0.0,0.0,0.0,0.0,0.0,0.0,0.0,0.0,0.0,0.0,0.0,0.0,0.0,0.0,0.0,0.0,0.0,0.0,0.0,0.0,0.0,0.0,0.0,0.0,0.0,0.0,0.0,0.0,0.0,0.0,0.0,0.0,0.0,0.0,0.0,0.0,0.0,0.0,0.0,0.0,0.0,0.0,0.0,0.0,0.0,0.0,0.0,0.0,0.0,0.0,0.0,0.0,0.0,0.0,0.0,0.0,0.0,0.0,0.0,0.0,0.0,0.0,0.0,0.0,0.0,0.0,0.0,0.0,0.0,0.0,0.0,0.0,0.0,0.0,0.0,0.0,0.0,0.0,0.0,0.0,0.0,0.0,0.0,0.0,0.0,0.0,0.0,0.0,0.0,0.0,0.0,0.0,0.0,0.0,0.0,0.0,0.0,0.0,0.0,0.0,0.0,0.0,0.0,0.0,0.0,0.0,0.0,0.0,0.0,0.0,0.0,0.0,0.0,0.0,0.0,0.0,0.0,0.0,0.0,0.0,0.0,0.0,0.0,0.0,0.0,0.0,0.0,0.0,0.0,0.0,0.0,0.0,0.0,0.0,0.0,0.0,0.0,0.0,0.0,0.0,0.0,0.0,0.0,0.0,0.0,0.0,0.0,0.0,0.0,0.0,0.0,0.0,0.0,0.0,0.0,0.0,0.0,0.0,0.0,0.0,0.0,0.0,0.0,0.0,0.0,0.0,0.0,0.0,0.0,0.0,0.0,0.0,0.0,0.0,0.0,0.0,0.0,0.0,0.0,0.0,0.0,0.0,0.0,0.0,0.0,0.0,0.0,0.0,0.0,0.0,0.0,0.0,0.0,0.0,0.0,0.0,0.0,0.0,0.0,0.0,0.0,0.0,0.0,0.0,0.0,0.0,0.0,0.0,0.0,0.0,0.0,0.0,0.0,0.0,0.0,0.0,0.0,0.0,0.0,0.0,0.0,0.0,0.0,0.0,0.0,0.0,0.0,0.0,0.0,0.0,0.0,0.0,0.0,0.0,0.0,0.0,0.0,0.0,0.0,0.0,0.0,0.0,0.0,0.0,0.0,0.0,0.0,0.0,0.0,0.0,0.0,0.0,0.0,0.0,0.0,0.0,0.0,0.0,0.0,0.0,0.0,0.0,0.0,0.0,0.0,0.0,0.0,0.0,0.0,0.0,0.0,0.0,0.0,0.0,0.0,0.0,0.0,0.0,0.0,0.0,0.0,0.0,0.0,0.0,0.0,0.0,0.0,0.0,0.0,0.0,0.0,0.0,0.0,0.0,0.0,0.0,0.0,0.0,0.0,0.0,0.0,0.0,0.0,0.0,0.0,0.0,0.0,0.0,0.0,0.0,0.0,0.0,0.0,0.0,0.0,0.0,0.0,0.0,0.0,0.0,0.0,0.0,0.0,0.0,0.0,0.0,0.0,0.0,0.0,0.0,0.0,0.0,0.0,0.0,0.0,0.0,0.0,0.0,0.0,0.0,0.0,0.0,0.0,0.0,0.0,0.0,0.0,0.0,0.0,0.0,0.0,0.0,0.0,0.0,0.0,0.0,0.0,0.0,0.0,0.0,0.0,0.0,0.0,0.0,0.0,0.0,0.0,0.0,0.0,0.0,0.0,0.0,0.0,0.0,0.0,0.0,0.0,0.0,0.0,0.0,0.0,0.0,0.0,0.0,0.0,0.0,0.0,0.0,0.0,0.0,0.0,0.0,0.0,0.0,0.0,0.0,0.0,0.0,0.0,0.0,0.0,0.0,0.0,0.0,0.0,0.0,0.0,0.0,0.0,0.0,0.0,0.0,0.0,0.0,0.0,0.0,0.0,0.0,0.0,0.0,0.0,0.0,0.0,0.0,0.0,0.0,0.0,0.0,0.0,0.0,0.0,0.0,0.0,0.0,0.0,0.0,0.0,0.0,0.0,0.0,0.0,0.0,0.0,0.0,0.0,0.0,0.0,0.0,0.0,0.0,0.0,0.0,0.0,0.0,0.0,0.0,0.0,0.0,0.0,0.0,0.0,0.0,0.0,0.0,0.0,0.0,0.0,0.0,0.0,0.0,0.0,0.0,0.0,0.0,0.0,0.0,0.0,0.0,0.0,0.0,0.0,0.0,0.0,0.0,0.0,0.0,0.0,0.0,0.0,0.0,0.0,0.0,0.0,0.0,0.0,0.0,0.0,0.0,0.0,0.0,0.0,0.0,0.0,0.0,0.0,0.0,0.0,0.0,0.0,0.0,0.0,0.0,0.0,0.0,0.0,0.0,0.0,0.0,0.0,0.0,0.0,0.0,0.0,0.0,0.0,0.0,0.0,0.0,0.0,0.0,0.0,0.0,0.0,0.0,0.0,0.0,0.0,0.0,0.0,0.0,0.0,0.0,0.0,0.0,0.0,0.0,0.0,0.0,0.0,0.0,0.0,0.0,0.0,0.0,0.0,0.0,0.0,0.0,0.0,0.0,0.0,0.0,0.0,0.0,0.0,0.0,0.0,0.0,0.0,0.0,0.0,0.0,0.0,0.0,0.0,0.0,0.0,0.0,0.0,0.0,0.0,0.0,0.0,0.0,0.0,0.0,0.0,0.0,0.0,0.0,0.0,0.0,0.0,0.0,0.0,0.0,0.0,0.0,0.0,0.0,0.0,0.0,0.0,0.0,0.0,0.0,0.0,0.0,0.0,0.0,0.0,0.0,0.0,0.0,0.0,0.0,0.0,0.0,0.0,0.0,0.0,0.0,0.0,0.0,0.0,0.0,0.0,0.0,0.0,0.0,0.0,0.0,0.0,0.0,0.0,0.0,0.0,0.0,0.0,0.0,0.0,0.0,0.0,0.0,0.0,0.0,0.0,0.0,0.0,0.0,0.0,0.0,0.0,0.0,0.0,0.0,0.0,0.0,0.0,0.0,0.0,0.0,0.0,0.0,0.0,0.0,0.0,0.0,0.0,0.0,0.0,0.0,0.0,0.0,0.0,0.0,0.0,0.0,0.0,0.0,0.0,0.0,0.0,0.0,0.0,0.0,0.0,0.0,0.0,0.0,0.0,0.0,0.0,0.0,0.0,0.0,0.0,0.0,0.0,0.0,0.0,0.0,0.0,0.0,0.0,0.0,0.0,0.0,0.0,0.0,0.0,0.0,0.0,0.0,0.0,0.0,0.0,0.0,0.0,0.0,0.0,0.0,0.0,0.0,0.0,0.0,0.0,0.0,0.0,0.0,0.0,0.0,0.0,0.0,0.0,0.0,0.0,0.0,0.0,0.0,0.0,0.0,0.0,0.0,0.0,0.0,0.0,0.0,0.0,0.0,0.0,0.0,0.0,0.0,0.0,0.0,0.0,0.0,0.0,0.0,0.0,0.0,0.0,0.0,0.0,0.0,0.0,0.0,0.0,0.0,0.0,0.0,0.0,0.0,0.0,0.0,0.0,0.0,0.0,0.0,0.0,0.0,0.0,0.0,0.0,0.0,0.0,0.0,0.0,0.0,0.0,0.0,0.0,0.0,0.0,0.0,0.0,0.0,0.0,0.0,0.0,0.0,0.0,0.0,0.0,0.0,0.0,0.0,0.0,0.0,0.0,0.0,0.0,0.0,0.0,0.0,0.0,0.0,0.0,0.0,0.0,0.0,0.0,0.0,0.0,0.0,0.0,0.0,0.0,0.0,0.0,0.0,0.0,0.0,0.0,0.0,0.0,0.0,0.0,0.0,0.0,0.0,0.0,0.0,0.0,0.0,0.0,0.0,0.0,0.0,0.0,0.0,0.0,0.0,0.0,0.0,0.0,0.0,0.0,0.0,0.0,0.0,0.0,0.0,0.0,0.0,0.0,0.0,0.0,0.0,0.0,0.0,0.0,0.0,0.0,0.0,0.0,0.0,0.0,0.0,0.0,0.0,0.0,0.0,0.0,0.0,0.0,0.0,0.0,0.0,0.0,0.0,0.0,0.0,0.0,0.0,0.0,0.0,0.0,0.0,0.0,0.0,0.0,0.0,0.0,0.0,0.0,0.0,0.0,0.0,0.0,0.0,0.0,0.0,0.0,0.0,0.0,0.0,0.0,0.0,0.0,0.0,0.0,0.0,0.0,0.0,0.0,0.0,0.0,0.0,0.0,0.0,0.0,0.0,0.0,0.0,0.0,0.0,0.0,0.0,0.0,0.0,0.0,0.0,0.0,0.0,0.0,0.0,0.0,0.0,0.0,0.0,0.0,0.0,0.0,0.0,0.0,0.0,0.0,0.0,0.0,0.0,0.0,0.0,0.0,0.0,0.0,0.0,0.0,0.0,0.0,0.0,0.0,0.0,0.0,0.0,0.0,0.0,0.0,0.0,0.0,0.0,0.0,0.0,0.0,0.0,0.0,0.0,0.0,0.0,0.0,0.0,0.0,0.0,0.0,0.0,0.0,0.0,0.0,0.0,0.0,0.0,0.0,0.0,0.0,0.0,0.0,0.0,0.0,0.0,0.0,0.0,0.0,0.0,0.0,0.0,0.0,0.0,0.0,0.0,0.0,0.0,0.0,0.0,0.0,0.0,0.0,0.0,0.0,0.0,0.0,0.0,0.0,0.0,0.0,0.0,0.0,0.0,0.0,0.0,0.0,0.0,0.0,0.0,0.0,0.0,0.0,0.0,0.0,0.0,0.0,0.0,0.0,0.0,0.0,0.0,0.0,0.0,0.0,0.0,0.0,0.0,0.0,0.0,0.0,0.0,0.0,0.0,0.0,0.0,0.0,0.0,0.0,0.0,0.0,0.0,0.0,0.0,0.0,0.0,0.0,0.0,0.0,0.0,0.0,0.0,0.0,0.0,0.0,0.0,0.0,0.0,0.0,0.0,0.0,0.0,0.0,0.0,0.0,0.0,0.0,0.0,0.0,0.0,0.0,0.0,0.0,0.0,0.0,0.0,0.0,0.0,0.0,0.0,0.0,0.0,0.0,0.0,0.0,0.0,0.0,0.0,0.0,0.0,0.0,0.0,0.0,0.0,0.0,0.0,0.0,0.0,0.0,0.0,0.0,0.0,0.0,0.0,0.0,0.0,0.0,0.0,0.0,0.0,0.0,0.0,0.0,0.0,0.0,0.0,0.0,1.2812,0.0,0.0,0.0,0.0,0.0,0.0,0.0,0.0,0.0,0.0,0.0,0.0,0.0,0.0,0.0,0.0,0.0,0.0,0.0,0.0,0.0,0.0,0.0,0.0,0.0,0.0,0.0,2.384,2.384,2.384,2.384,2.384,2.384,2.384,2.384,2.384,2.384,2.384,2.384,2.384,2.384,2.3852,2.3973,2.3961,2.384,0.0,0.0,0.0,0.0,0.0,0.0,0.0,0.0,0.0,0.0,0.0,0.0,0.0,0.0,0.0,0.0,0.0,0.0,0.0,0.0,0.0,0.0,0.0,0.0,0.0,0.0,0.0,0.0,0.0,0.0,0.0,0.0,0.0,0.0,0.0,0.0,0.0,0.0,0.0,0.0,0.0,0.0,0.0,0.0,0.0,0.0,0.0,0.0,0.0,0.0,0.0,0.0,0.0,0.0,0.0,0.0,0.0,0.0,0.0,0.0,0.0,0.0,0.0,0.0,0.0,0.0,0.0,0.0,0.0,0.0,0.0,1.2545,0.0,0.0,0.0,0.0,0.0,0.0,0.0,0.0,0.0,0.0,0.0,0.0,0.0,0.0,0.0,0.0,0.0,0.0,0.0,0.0,0.0,0.0,0.0,2.384,2.384,2.384,2.384,2.384,2.384,2.384,2.384,2.384,2.384,2.384,2.384,2.384,2.384,2.384,2.3888,2.3937,2.3985,2.4202,2.419,2.3985,2.3985,0.0,0.0,0.0,0.0,0.0,0.0,0.0,0.0,0.0,0.0,0.0,0.0,0.0,0.0,0.0,0.0,0.0,0.0,0.0,0.0,0.0,0.0,0.0,0.0,0.0,0.0,0.0,0.0,0.0,0.0,0.0,0.0,0.0,0.0,0.0,0.0,0.0,0.0,0.0,0.0,0.0,0.0,0.0,0.0,0.0,0.0,0.0,0.0,0.0,0.0,0.0,0.0,0.0,0.0,0.0,0.0,0.0,0.0,0.0,0.0,0.0,0.0,0.0,1.5248,1.5262,1.5269,1.5391,1.5261,1.4865,1.3798,1.3181,1.2991,0.0,0.0,0.0,0.0,0.0,0.0,0.0,0.0,0.0,0.0,0.0,0.0,0.0,0.0,0.0,0.0,0.0,0.0,0.0,0.0,0.0,0.0,2.384,2.384,2.384,2.384,2.384,2.384,2.384,2.384,2.384,2.384,2.384,2.384,2.384,2.384,2.384,2.4069,2.4299,2.4528,2.4552,2.4552,2.4516,2.4516,0.0,0.0,0.0,0.0,0.0,0.0,0.0,0.0,0.0,0.0,0.0,0.0,0.0,0.0,0.0,0.0,0.0,0.0,0.0,0.0,0.0,0.0,0.0,0.0,0.0,0.0,0.0,0.0,0.0,0.0,0.0,0.0,0.0,0.0,0.0,0.0,0.0,0.0,0.0,0.0,0.0,0.0,0.0,1.4299,1.4299,0.0,0.0,0.0,0.0,0.0,0.0,0.0,0.0,0.0,0.0,0.0,0.0,0.0,1.5133,1.5153,1.5289,1.5364,1.5384,1.5513,1.5581,1.5581,1.5601,1.5608,1.5415,1.4816,0.0,1.3251,1.3251,0.0,0.0,0.0,0.0,0.0,0.0,0.0,0.0,0.0,0.0,0.0,0.0,0.0,0.0,0.0,0.0,0.0,0.0,0.0,0.0,0.0,2.384,2.384,2.384,2.384,2.384,2.384,2.384,2.384,2.384,2.384,2.384,2.384,2.3985,2.4142,2.4287,2.4395,2.4516,2.4625,2.4782,2.4866,2.4866,2.5011,2.4914,2.4625,2.4625,0.0,0.0,0.0,0.0,0.0,0.0,0.0,0.0,0.0,0.0,0.0,0.0,0.0,0.0,0.0,0.0,0.0,0.0,0.0,0.0,0.0,0.0,0.0,0.0,0.0,0.0,0.0,0.0,0.0,0.0,0.0,0.0,0.0,0.0,0.0,0.0,0.0,0.0,0.0,1.4367,1.4421,1.4421,1.4496,1.457,0.0,0.0,0.0,0.0,0.0,0.0,0.0,0.0,0.0,1.5215,1.5276,1.535,1.5438,1.5506,1.554,1.554,1.5608,1.5642,1.5642,1.5723,1.5757,1.5764,1.5649,1.5093,1.4293,1.3945,1.3691,1.3309,0.0,0.0,0.0,0.0,1.2536,1.2536,0.0,0.0,0.0,0.0,0.0,0.0,0.0,0.0,0.0,0.0,0.0,0.0,2.384,2.384,2.384,2.384,2.384,2.384,2.384,2.384,2.384,2.384,2.3913,2.3949,2.3949,2.4202,2.4468,2.4733,2.4733,2.477,2.4842,2.5047,2.5144,2.5156,2.5349,2.5216,2.483,2.483,2.483,0.0,0.0,0.0,0.0,0.0,0.0,0.0,0.0,0.0,0.0,0.0,0.0,0.0,0.0,0.0,0.0,0.0,0.0,0.0,0.0,0.0,0.0,0.0,0.0,0.0,0.0,0.0,0.0,0.0,0.0,0.0,0.0,0.0,0.0,0.0,0.0,0.0,0.0,1.4441,1.4523,1.4563,1.4672,1.4753,0.0,0.0,0.0,0.0,0.0,0.0,1.5079,1.5181,1.5309,1.5466,1.5466,1.552,1.5635,1.5676,1.5696,1.5696,1.573,1.575,1.5757,1.5866,1.5913,1.592,1.6035,1.5884,1.5459,1.4655,1.4183,1.3988,1.3401,1.3205,1.3205,1.2819,1.2623,1.2623,0.0,0.0,0.0,0.0,0.0,0.0,0.0,0.0,0.0,0.0,0.0,2.384,2.384,2.384,2.384,2.384,2.384,2.384,2.384,2.384,2.384,2.384,2.4082,2.4214,2.4214,2.4468,2.4745,2.5023,2.5023,2.5156,2.5397,2.5409,2.5421,2.5421,2.5433,2.5421,2.5397,2.5397,2.5397,2.5373,0.0,0.0,0.0,0.0,0.0,0.0,0.0,0.0,0.0,0.0,0.0,0.0,0.0,0.0,0.0,0.0,0.0,0.0,0.0,0.0,0.0,0.0,0.0,0.0,0.0,0.0,0.0,0.0,0.0,0.0,0.0,0.0,0.0,0.0,0.0,0.0,0.0,0.0,0.0,1.4713,1.4733,0.0,0.0,0.0,0.0,1.5153,1.5167,1.5235,1.5377,1.5398,1.5466,1.5622,1.5628,1.5635,1.5642,1.5778,1.5845,1.5845,1.5988,1.6056,1.6062,1.6069,1.6069,1.6069,1.6076,1.6083,1.5884,1.4862,1.4265,1.3672,1.3068,1.2868,1.2868,1.2868,1.2868,1.2868,0.0,0.0,0.0,0.0,0.0,0.0,0.0,0.0,2.384,2.384,2.384,2.384,2.384,2.384,2.384,2.384,2.384,2.384,2.384,2.384,2.3925,2.4094,2.419,2.4395,2.4745,2.4854,2.5023,2.5301,2.5301,2.5349,2.5433,2.5433,2.5433,2.5433,2.5433,2.5433,2.5433,2.5433,2.5433,2.5421,2.5337,2.5301,0.0,0.0,0.0,0.0,0.0,0.0,0.0,0.0,0.0,0.0,0.0,0.0,0.0,0.0,0.0,0.0,0.0,0.0,0.0,0.0,0.0,0.0,0.0,0.0,0.0,0.0,0.0,0.0,0.0,0.0,0.0,0.0,0.0,0.0,0.0,0.0,0.0,1.4882,1.497,0.0,1.5099,1.5106,1.5167,1.5316,1.533,1.5398,1.5547,1.556,1.5628,1.5771,1.5778,1.5825,1.592,1.5974,1.6001,1.6001,1.6157,1.6232,1.6232,1.632,1.6368,1.6368,1.6368,1.6368,1.6368,1.5557,1.5044,1.4682,1.369,1.3535,1.3402,1.3206,1.3053,1.3113,0.0,0.0,0.0,0.0,0.0,0.0,0.0,0.0,2.384,2.384,2.384,2.384,2.384,2.384,2.384,2.384,2.384,2.384,2.384,2.3925,2.4057,2.4226,2.4407,2.4721,2.5168,2.518,2.5264,2.5433,2.5433,2.5433,2.5433,2.5433,2.5433,2.5433,2.5433,2.5433,2.5433,2.5433,2.5433,2.5433,2.5433,2.5433,2.5433,0.0,0.0,0.0,0.0,0.0,0.0,0.0,0.0,0.0,0.0,0.0,0.0,0.0,0.0,0.0,0.0,0.0,0.0,0.0,0.0,0.0,0.0,0.0,0.0,0.0,0.0,0.0,0.0,0.0,0.0,0.0,0.0,0.0,0.0,0.0,1.4991,1.5038,1.5174,1.5262,1.5262,1.5303,1.5377,1.5479,1.5486,1.5554,1.5703,1.571,1.5778,1.5927,1.5934,1.6001,1.6157,1.6157,1.6185,1.6232,1.6334,1.6381,1.6381,1.6476,1.6524,1.6524,1.6524,1.6524,1.6524,1.6115,1.5799,1.5623,1.4421,1.4065,1.3938,1.3536,1.3377,1.3238,0.0,0.0,0.0,0.0,0.0,0.0,0.0,2.384,2.384,2.384,2.384,2.384,2.384,2.384,2.384,2.384,2.384,2.3852,2.3852,2.4094,2.4238,2.4263,2.477,2.518,2.5433,2.5433,2.5433,2.5433,2.5433,2.5433,2.5433,2.5433,2.5433,2.5433,2.5433,2.5433,2.5433,2.5433,2.5433,2.5433,2.5433,2.5433,2.5433,0.0,0.0,0.0,0.0,0.0,0.0,0.0,0.0,0.0,0.0,0.0,0.0,0.0,0.0,0.0,0.0,0.0,0.0,0.0,0.0,0.0,0.0,0.0,0.0,0.0,0.0,0.0,0.0,0.0,0.0,0.0,0.0,0.0,1.5162,1.4984,1.5038,1.5174,1.5323,1.5418,1.5418,1.5554,1.5642,1.5642,1.5642,1.571,1.5852,1.5866,1.5934,1.6083,1.6096,1.6164,1.6313,1.632,1.6388,1.6524,1.6524,1.653,1.653,1.653,1.6537,1.6537,1.6537,1.6537,1.6537,1.6537,1.6537,1.6333,1.5302,1.4687,1.4071,1.4071,1.366,1.3249,0.0,0.0,0.0,0.0,0.0,0.0,0.0,2.384,2.384,2.384,2.384,2.384,2.384,2.384,2.384,2.384,2.384,2.3925,2.4118,2.419,2.4407,2.4806,2.5144,2.5361,2.5433,2.5433,2.5433,2.5433,2.5433,2.5433,2.5433,2.5433,2.5433,2.5433,2.5433,2.5433,2.5433,2.5433,2.5433,2.5433,2.5433,2.5433,2.5433,0.0,0.0,0.0,0.0,0.0,0.0,0.0,0.0,0.0,0.0,0.0,0.0,0.0,0.0,0.0,0.0,0.0,0.0,0.0,0.0,0.0,0.0,0.0,0.0,0.0,0.0,0.0,0.0,0.0,0.0,0.0,0.0,1.7319,1.6449,1.5967,1.6052,1.6481,1.6627,1.6729,1.6729,1.6773,1.6652,1.6377,1.6384,1.6447,1.6595,1.6715,1.6799,1.6841,1.6954,1.6835,1.6463,1.6463,1.6687,1.7144,1.7249,1.7298,1.7305,1.7418,1.7266,1.6856,1.6856,1.6856,1.6856,1.6856,1.6856,1.6829,1.5789,1.5159,1.4831,1.4411,1.3845,1.3504,0.0,0.0,0.0,0.0,0.0,0.0,0.0,2.384,2.384,2.384,2.384,2.384,2.384,2.384,2.384,2.384,2.3949,2.4069,2.4226,2.4444,2.477,2.5192,2.5361,2.5433,2.5433,2.5433,2.5433,2.5433,2.5433,2.5433,2.5433,2.5433,2.5433,2.5433,2.5433,2.5433,2.5433,2.5433,2.5433,2.5433,2.5433,2.5433,2.5433,2.5433,2.5433,2.5433,2.5433,2.5433,2.5433,2.5433,0.0,0.0,0.0,0.0,0.0,0.0,0.0,0.0,0.0,0.0,0.0,0.0,0.0,0.0,0.0,0.0,0.0,0.0,0.0,0.0,0.0,0.0,0.0,0.0,1.9501,1.9184,1.8961,1.7725,1.7222,1.7604,1.8135,1.8238,1.8238,1.8503,1.8582,1.8097,1.7977,1.7863,1.7961,1.7918,1.8008,1.821,1.8104,1.799,1.7639,1.744,1.7476,1.7953,1.804,1.7876,1.7675,1.7768,1.7601,0.0,1.6978,1.6978,1.6978,1.6978,1.6978,0.0,0.0,0.0,0.0,0.0,1.3752,1.3602,0.0,0.0,0.0,0.0,0.0,0.0,0.0,2.384,2.384,2.384,2.384,2.384,2.384,2.384,2.3852,2.3888,2.4106,2.4263,2.4323,2.4806,2.5192,2.5421,2.5433,2.5433,2.5433,2.5433,2.5433,2.5433,2.5433,2.5458,2.5482,2.5482,2.5494,2.553,2.553,2.5506,2.5482,2.5482,2.5458,2.5433,2.5433,2.5433,2.5433,2.5433,2.5433,2.5433,2.5433,2.5433,2.5433,2.5433,0.0,0.0,0.0,0.0,0.0,0.0,0.0,0.0,0.0,0.0,0.0,0.0,0.0,0.0,0.0,0.0,0.0,0.0,0.0,0.0,0.0,0.0,0.0,0.0,2.1508,2.1206,2.1973,2.0098,1.8761,1.9121,1.9657,2.0156,2.0156,2.072,2.0834,2.0243,2.0033,1.9741,1.9941,0.0,0.0,0.0,0.0,1.9505,1.9664,1.9053,1.8915,1.9052,1.9059,1.8641,1.823,1.802,1.7601,1.7188,1.6978,1.6978,1.6978,1.6978,1.6978,1.6978,1.6768,1.6131,1.5072,1.4024,1.3602,1.3602,0.0,0.0,0.0,0.0,0.0,0.0,0.0,2.384,2.384,2.384,2.384,2.384,2.384,2.384,2.3925,2.4142,2.4202,2.442,2.4866,2.5192,2.5385,2.5433,2.5433,2.5433,2.5433,2.5433,2.5433,2.5433,2.5433,2.5542,2.5747,2.5747,2.5868,2.6073,2.6073,2.5953,2.5747,2.5747,2.5627,2.5433,2.5433,2.5433,2.5433,2.5433,2.5433,2.5433,2.5433,2.5433,2.5433,2.5433,2.5433,2.5433,2.5433,0.0,0.0,0.0,0.0,0.0,0.0,0.0,0.0,0.0,0.0,0.0,0.0,0.0,0.0,0.0,0.0,0.0,0.0,0.0,0.0,2.2626,2.2431,2.2557,2.2606,2.2364,2.2013,2.1449,2.1809,2.1939,2.1939,2.2116,2.2038,2.1641,2.1622,2.1729,2.1729,2.1926,0.0,2.2034,2.1971,2.1862,2.1492,2.1285,2.1509,2.1959,0.0,0.0,2.052,1.9477,1.8641,1.7601,1.7188,1.6978,1.6978,1.6978,1.6978,1.6978,1.592,1.55,1.5072,1.4024,1.3602,1.3602,0.0,0.0,0.0,0.0,0.0,0.0,0.0,2.384,2.384,2.384,2.384,2.384,2.384,2.384,2.3949,2.4214,2.448,2.4818,2.5216,2.5361,2.5433,2.5433,2.5433,2.5433,2.5433,2.5433,2.5506,2.5627,2.5627,2.5771,2.6025,2.6025,2.6097,2.6218,2.6218,2.6146,2.6025,2.6025,2.5953,2.582,2.5687,2.5627,2.5615,2.5482,2.5433,2.5433,2.5433,2.5433,2.5458,2.559,2.5627,2.5651,2.5784,2.5832,2.5856,0.0,0.0,0.0,0.0,0.0,0.0,0.0,0.0,0.0,0.0,0.0,0.0,0.0,0.0,2.4323,2.4441,0.0,2.471,2.4557,2.4705,2.4822,2.4928,2.4861,2.43,2.3217,2.3296,2.3796,2.4102,2.4411,2.4721,2.4635,2.4247,2.3962,2.3962,2.3769,2.3679,2.4295,2.4187,2.4029,2.4029,2.3409,2.3409,2.3606,2.3004,2.2392,2.1561,2.0937,1.9887,1.8641,1.8432,1.802,1.7811,1.7601,1.7398,1.7188,1.5914,1.5283,1.5072,1.4024,1.3602,1.3602,0.0,0.0,0.0,0.0,0.0,0.0,0.0,2.384,2.384,2.384,2.384,2.384,2.384,2.3888,2.4045,2.4359,2.4842,2.5216,2.5421,2.5433,2.5433,2.5433,2.5433,2.5433,2.5433,2.5433,2.5566,2.5832,2.5832,2.5989,2.6303,2.6303,2.6327,2.6375,2.6375,2.6351,2.6303,2.6303,2.6266,2.6194,2.5989,2.5904,2.588,2.5663,2.5554,2.5518,2.5566,2.559,2.5627,2.5832,2.5904,2.594,2.6158,2.6218,2.623,2.6278,2.6303,0.0,0.0,0.0,0.0,0.0,0.0,0.0,0.0,0.0,2.5079,2.5079,2.491,2.4922,2.5339,2.5694,2.6095,2.6725,2.6759,2.685,2.7101,2.6759,2.5993,2.4866,2.4824,2.5288,2.6113,2.6573,2.6882,2.7281,2.671,2.6243,2.6243,2.5604,2.5707,2.6529,2.6108,2.6097,2.6508,2.5676,2.5265,2.5265,2.4657,2.3841,2.2806,2.2599,2.1552,2.0095,2.0095,1.9678,1.9052,1.8641,1.8222,1.802,1.6545,1.5914,1.5493,1.4024,1.3602,1.3602,0.0,0.0,0.0,0.0,0.0,0.0,0.0,0.0,2.384,2.384,2.384,2.384,2.384,2.4057,2.4395,2.4914,2.5228,2.5409,2.5433,2.5433,2.5433,2.5433,2.5433,2.5433,2.5433,2.5433,2.5566,2.5832,2.5832,2.6085,2.6592,2.6592,2.6713,2.6942,2.6942,2.681,2.6592,2.6592,2.6447,2.6218,2.6182,2.6182,2.617,2.6146,2.5989,2.582,2.6049,2.6134,2.6134,2.617,2.6182,2.6182,2.6206,2.6218,2.6266,2.652,2.6592,2.6641,2.6882,2.6942,2.6761,2.6435,2.6276,2.6118,0.0,0.0,2.5891,2.5891,2.6096,2.6348,2.6565,2.6633,2.6736,2.6976,2.7021,2.7113,2.7376,2.741,2.7305,2.752,2.6551,2.6113,2.675,2.7181,2.7527,2.794,2.8189,2.8337,2.8337,2.8155,2.8178,2.8382,2.8178,2.8178,2.8382,2.8167,2.8167,2.8167,2.7553,2.6713,2.5687,2.4647,2.3616,2.2374,2.1959,2.1336,2.092,2.0712,2.0087,1.9261,1.8432,1.7594,1.6545,1.4446,1.3602,1.3602,0.0,0.0,0.0,0.0,0.0,0.0,0.0,0.0,0.0,2.384,2.384,2.384,2.384,2.4214,2.4625,2.5011,2.5289,2.5433,2.5433,2.5433,2.5433,2.5433,2.5433,2.5433,2.5433,2.559,2.5796,2.6061,2.6218,2.6496,2.687,2.687,2.693,2.7027,2.7027,2.6966,2.687,2.687,2.6798,2.6677,2.6532,2.646,2.646,2.646,2.6399,2.6291,2.6242,2.6218,0.0,2.6411,2.646,2.6496,2.6641,2.6689,2.6713,2.6834,2.687,2.6894,2.7003,2.7027,2.7027,0.0,2.6783,2.689,2.6707,2.6711,2.6713,2.6713,2.6547,2.6766,2.7059,2.7198,2.7518,0.0,2.8161,2.8303,2.841,2.8171,2.816,2.8415,2.7747,2.7514,2.8027,2.8341,2.8669,2.9213,2.9127,2.8982,2.8982,2.879,2.879,2.8982,2.8982,2.9197,2.9604,2.9337,2.9202,2.9202,2.894,2.8168,2.7535,2.6911,2.6275,2.5231,2.4594,2.3975,2.3555,2.3135,2.2302,2.1247,1.9867,1.8564,1.7291,1.5313,1.4446,1.403,0.0,0.0,0.0,0.0,0.0,0.0,0.0,0.0,0.0,0.0,2.384,2.39,2.4045,2.4468,2.4854,2.5132,2.5325,2.5433,2.5433,2.5433,2.5433,2.5433,2.5433,2.5433,2.5433,2.5627,2.5844,2.6109,2.6387,2.6665,2.6918,2.7003,2.7027,2.7027,2.7027,2.7027,2.7027,2.7027,2.7027,2.7015,2.6822,2.6749,2.6749,2.6749,2.6749,2.6725,2.652,2.6447,2.6472,2.6677,2.6749,2.6773,2.6966,2.7027,2.7027,2.7027,2.7027,2.7027,2.7027,2.7087,0.0,2.7135,2.7341,2.7534,2.7534,2.7541,2.7357,2.7357,2.7381,2.7378,2.7759,2.7972,2.8331,2.8729,2.8958,2.9151,2.9224,2.8998,2.9025,2.9285,2.8906,2.8906,2.932,2.9119,2.9391,3.0202,2.9808,2.9593,2.9593,2.9197,2.9197,2.9593,2.9663,2.9903,3.0322,3.0165,3.0089,3.0089,2.9862,2.9526,2.8898,2.8898,2.8258,2.7618,2.7197,2.6565,2.6143,2.552,2.4673,2.339,2.1754,2.0221,1.8939,1.7127,1.5561,1.4241,0.0,0.0,0.0,0.0,0.0,0.0,0.0,0.0,0.0,0.0,0.0,0.0,0.0,2.4866,2.5144,2.5397,2.5433,2.5433,2.5433,2.5433,2.5433,2.5433,2.5433,2.5433,2.5433,2.5446,2.5578,2.5844,2.6097,2.6375,2.6653,2.6906,2.7027,2.7027,2.7027,2.7027,2.7027,2.7027,2.7027,2.7027,2.7015,2.7015,2.7015,2.7015,2.7015,2.7015,2.7003,0.0,2.7003,2.7015,2.7015,2.7015,2.7027,2.7027,2.7027,2.7027,2.7027,2.7027,2.7027,0.0,2.7413,2.7413,2.7606,2.7799,2.7799,2.8005,2.8186,2.8186,2.8415,2.8608,2.8608,2.8825,2.9006,2.9006,2.9224,2.9477,2.9743,2.9779,2.9888,3.0165,3.0202,3.0202,0.0,2.9784,2.9581,3.0214,3.0214,3.0214,3.0214,3.0214,3.0214,3.0214,3.0467,3.06,3.06,3.0853,3.0986,3.0986,3.0998,3.0582,3.0176,2.9538,2.9328,2.9328,2.9328,2.8898,2.8258,2.7849,2.7008,2.5731,2.4673,2.3187,2.1481,1.9761,1.7003,1.4241,0.0,0.0,0.0,0.0,0.0,0.0,0.0,0.0,0.0,0.0,0.0,0.0,0.0,0.0,0.0,0.0,2.5433,2.5433,2.5433,2.5433,2.5433,2.5433,2.5433,2.5433,2.5433,2.5602,2.5735,2.5832,2.6097,2.6266,2.6363,2.6641,2.6773,2.6773,2.6954,2.7027,2.7027,2.7027,2.7027,2.7027,2.7027,2.7027,2.7027,2.7027,2.7027,2.7027,0.0,2.7027,2.7027,2.7027,2.7027,2.7027,2.7027,2.7027,2.7063,2.7244,2.7292,2.7329,2.7498,0.0,2.7679,2.7679,2.7872,2.8077,2.8077,2.8282,2.8475,2.8475,2.8693,2.8886,2.8886,2.9091,2.9272,2.9272,2.9489,2.9695,2.9779,2.996,3.0105,3.0202,3.0214,0.0,0.0,0.0,0.0,3.0214,3.0214,3.0214,3.0214,3.0383,3.0479,3.0479,3.0733,3.0865,3.0865,3.1119,3.1264,3.1264,3.1445,3.1541,3.133,3.1118,3.0894,3.0894,3.0894,3.0681,3.0021,2.9607,2.854,2.746,2.6236,2.468,2.2947,2.1523,1.9479,1.7256,0.0,0.0,0.0,0.0,0.0,0.0,0.0,0.0,0.0,0.0,0.0,0.0,0.0,0.0,0.0,0.0,0.0,2.5433,2.5433,2.5433,2.5433,2.5433,2.5433,2.5433,2.5433,2.5602,2.5687,2.5687,2.6049,2.6218,2.623,2.6604,2.6773,2.6785,2.6954,2.7027,2.7027,2.7027,2.7027,2.7027,2.7027,2.7027,2.7027,2.7027,2.7027,0.0,2.7027,2.7027,2.7027,2.7027,2.7027,2.7027,2.7027,2.7099,2.7208,2.7377,2.7486,2.7594,2.7763,2.7884,2.7956,2.7956,2.8149,2.8355,2.8355,2.85,2.8644,2.8741,2.8898,2.9043,2.9139,2.9369,2.955,2.955,2.9767,2.9948,2.9948,3.0105,3.0214,3.0214,3.0214,3.0214,0.0,0.0,0.0,3.0214,3.0214,3.0262,3.0346,3.0515,3.0648,3.0745,3.0998,3.1143,3.1143,3.1409,3.1541,3.1541,3.1722,3.1807,3.1807,3.1807,3.1807,3.1807,3.1807,3.1593,3.1154,3.0726,2.9868,2.92,2.7748,2.6397,2.4871,2.3655,2.1881,1.9931,0.0,0.0,0.0,0.0,0.0,0.0,0.0,0.0,0.0,0.0,0.0,0.0,0.0,0.0,0.0,0.0,0.0,0.0,2.5433,2.5433,2.5433,2.5433,2.5433,2.5433,2.5433,2.5433,2.5446,2.5458,2.5953,2.6206,2.623,2.6761,2.7015,2.7015,2.7027,2.7027,2.7027,2.7027,2.7027,2.7027,2.7027,2.7027,2.7027,2.7027,2.7027,2.7027,2.7027,2.7027,2.7027,2.7027,2.7027,2.7027,2.7027,2.7208,2.7425,2.7437,2.763,2.7836,2.7848,2.8041,2.8222,2.8222,2.8427,2.862,2.862,2.8632,2.8717,2.8958,2.9031,2.9127,0.0,0.0,2.9815,2.9815,3.0045,3.0214,3.0214,3.0214,3.0214,0.0,0.0,0.0,0.0,0.0,0.0,3.0238,0.0,3.0346,3.06,3.0636,3.0757,3.101,3.1276,3.1409,3.1409,3.1674,3.1807,3.1807,3.1807,3.1807,3.1807,3.1807,3.1807,3.1807,3.1807,3.1807,3.1807,3.1142,3.0928,3.0714,2.9641,2.8565,2.7486,2.6383,2.4418,2.1967,0.0,0.0,0.0,0.0,0.0,0.0,0.0,0.0,0.0,0.0,0.0,0.0,0.0,0.0,0.0,0.0,0.0,0.0,2.5433,2.5433,2.5433,2.5433,2.5433,2.5433,2.5433,2.5433,2.553,2.5723,2.5856,2.6025,2.623,2.658,2.6737,2.6749,2.6942,2.7027,2.7027,2.7027,2.7027,2.7027,2.7027,2.7027,2.7027,2.7027,2.7027,2.7027,2.7027,2.7027,0.0,0.0,2.7027,2.7027,2.7027,2.7208,2.7461,2.7655,2.7896,2.8149,2.8355,2.8463,2.8512,2.8512,2.8572,2.862,2.862,2.8777,2.8934,2.9006,2.932,2.9622,0.0,0.0,0.0,3.0105,3.0165,0.0,3.0214,3.0214,0.0,3.0214,0.0,3.0214,3.0214,3.0395,0.0,0.0,3.0503,3.0539,3.06,3.0974,3.1215,3.1288,3.1553,3.1698,3.1698,3.1771,3.1807,3.1807,3.1807,3.1807,3.1807,3.1807,3.1807,3.1807,3.1807,3.1807,3.1807,3.1142,3.0928,3.0928,3.0082,2.9426,2.8781,2.8339,2.7465,2.592,0.0,0.0,0.0,0.0,0.0,0.0,0.0,0.0,0.0,0.0,0.0,0.0,0.0,0.0,0.0,0.0,0.0,0.0,0.0,2.5433,2.5433,2.5433,2.5433,2.5433,2.5433,2.5433,2.5506,2.5651,2.5892,2.6073,2.623,2.6629,2.681,2.6822,2.6966,2.7027,2.7027,2.7027,2.7027,0.0,0.0,2.7027,2.7027,2.7027,2.7027,2.7027,2.7027,0.0,0.0,0.0,0.0,2.7051,2.7172,2.7377,2.7642,2.7908,0.0,2.8427,2.8584,2.862,2.862,2.862,2.862,2.8656,2.8765,2.891,2.9079,2.9308,2.9586,0.0,2.996,3.0105,0.0,0.0,0.0,0.0,3.0214,3.0214,3.0214,0.0,3.0214,0.0,3.0371,3.0527,3.066,0.0,3.0781,3.0829,3.0938,3.1228,3.1445,3.1566,3.1722,3.1807,3.1807,3.1807,3.1807,3.1807,3.1807,3.1807,3.1807,3.1807,3.1807,3.1807,0.0,3.1807,3.1807,3.1368,3.1368,3.1368,3.094,3.0511,2.9856,2.9856,2.92,2.8113,0.0,0.0,0.0,0.0,0.0,0.0,0.0,0.0,0.0,0.0,0.0,0.0,0.0,0.0,0.0,0.0,0.0,0.0,0.0,0.0,2.5433,2.5433,2.5433,2.5433,2.5433,2.5433,2.5458,2.5494,2.594,2.6182,2.623,2.6737,2.6979,2.6979,2.7015,2.7027,2.7027,2.7027,2.7027,2.7027,2.7027,2.7027,2.7027,0.0,0.0,0.0,0.0,0.0,0.0,0.0,2.7027,2.7075,2.7341,2.7594,2.786,2.8125,2.8403,2.862,2.862,2.862,2.862,2.862,2.8644,2.8729,2.8958,2.9067,2.9248,2.9707,0.0,2.9924,3.0165,3.0214,3.0214,3.0214,0.0,3.0214,3.0214,3.0214,3.0214,3.0214,3.025,3.0358,3.0588,3.0672,3.0805,3.1034,3.1083,3.1191,3.1384,3.1421,3.1553,3.1807,3.1807,3.1807,3.1807,3.1807,3.1831,3.1855,3.1855,3.1879,3.1916,3.1916,3.1916,3.1916,0.0,0.0,3.1916,3.1916,3.1916,3.1916,3.1916,3.1665,3.0975,3.0975,3.0308,2.9426,0.0,0.0,0.0,0.0,0.0,0.0,0.0,0.0,0.0,0.0,2.4601,2.4818,0.0,0.0,0.0,0.0,0.0,0.0,0.0,0.0,0.0,2.5433,2.5433,2.5433,2.5433,2.5433,2.5542,2.5759,2.5856,2.6013,2.623,2.6556,2.6713,2.6713,2.693,2.7027,2.7027,2.7027,2.7027,2.7027,2.7027,2.7027,2.7027,0.0,0.0,0.0,0.0,0.0,0.0,0.0,2.7027,2.7075,2.7341,2.7594,2.786,2.8125,2.8403,2.862,2.862,2.862,2.862,2.862,2.8789,2.8958,2.9006,2.9344,0.0,0.0,2.9984,3.0153,3.0202,3.0214,3.0214,3.0214,3.0214,3.0214,3.0214,3.0214,3.0214,0.0,3.0407,0.0,0.0,0.0,0.0,0.0,0.0,3.159,3.1397,3.1614,3.1759,3.1807,3.1807,3.1807,3.1807,3.1807,3.1916,3.2133,3.2133,3.2242,3.2459,3.2459,3.2459,3.2459,3.2459,0.0,3.2459,3.2459,3.2459,3.2459,3.2459,3.2314,3.1917,3.1917,3.1773,3.1166,0.0,0.0,0.0,0.0,0.0,0.0,0.0,2.384,2.4033,2.4552,2.4625,2.483,2.5373,2.5433,0.0,0.0,0.0,0.0,0.0,0.0,0.0,0.0,2.5433,2.5433,2.5433,2.5433,2.5494,2.5627,0.0,2.5892,2.6025,2.6291,2.6423,2.6435,2.6701,2.6834,2.6834,2.6966,2.7027,2.7027,2.7027,2.7027,0.0,0.0,0.0,0.0,0.0,0.0,0.0,0.0,2.7123,2.728,2.7546,2.7799,2.8065,2.8343,2.8512,2.862,2.862,2.862,2.8656,2.8789,2.8922,2.9091,2.9357,0.0,0.0,0.0,3.0117,3.0214,3.0214,3.0214,3.0214,3.0214,3.0214,3.0214,3.0214,3.0214,3.0262,3.0407,3.0527,3.0708,0.0,0.0,0.0,0.0,0.0,3.1747,3.1614,3.1735,3.1807,3.1807,3.1807,3.1879,3.2012,3.2012,3.2145,3.2398,3.2398,3.2471,3.2592,3.2592,3.2592,3.2592,3.2592,0.0,3.2592,3.2592,3.2592,3.2592,3.2592,3.2519,3.2398,3.2398,3.2326,3.2001,0.0,0.0,0.0,0.0,0.0,0.0,0.0,2.3888,2.4094,2.4564,2.4673,2.4902,2.5385,2.5433,2.5433,0.0,0.0,0.0,0.0,0.0,0.0,0.0,0.0,0.0,0.0,0.0,0.0,0.0,2.5639,0.0,0.0,0.0,0.0,0.0,0.0,2.658,2.6653,2.6858,2.6979,0.0,0.0,0.0,0.0,0.0,0.0,0.0,0.0,0.0,0.0,0.0,2.7292,2.7546,2.7811,2.8041,2.8258,2.8536,2.862,2.862,2.862,2.8669,2.8753,2.8958,2.9103,2.9296,2.9707,2.9839,0.0,3.0165,3.0214,3.0214,3.0214,3.0214,3.0214,0.0,3.0214,3.0214,3.0214,3.0214,3.031,3.0576,3.066,0.0,3.1348,3.1445,0.0,0.0,0.0,0.0,3.1807,3.1807,3.1831,3.1891,3.1891,3.2012,3.2278,3.229,3.241,3.2688,3.2688,3.2688,3.2748,3.2748,3.2748,3.2748,3.2748,0.0,0.0,3.2748,3.2748,3.2748,3.2748,3.2724,3.2688,3.2688,3.2628,3.2579,0.0,0.0,0.0,0.0,0.0,0.0,0.0,2.4045,2.4299,2.4589,2.4854,2.512,2.5409,2.5433,2.5433,0.0,0.0,0.0,0.0,0.0,0.0,0.0,0.0,0.0,0.0,0.0,0.0,0.0,0.0,0.0,0.0,0.0,0.0,0.0,0.0,0.0,0.0,2.6665,0.0,0.0,0.0,0.0,0.0,0.0,0.0,0.0,0.0,0.0,0.0,0.0,0.0,2.7824,2.8089,2.8186,2.8258,2.8536,0.0,0.0,2.862,2.8801,2.8982,2.9006,2.9369,2.9743,2.9791,0.0,3.0189,3.0214,3.0214,3.0214,3.0214,3.0214,0.0,0.0,0.0,3.0214,3.0214,3.0214,3.031,3.0576,0.0,0.0,3.136,3.1626,0.0,0.0,0.0,0.0,3.1807,3.1807,3.1916,3.2157,3.2169,3.229,3.2555,3.2555,3.2688,3.2954,3.2954,3.3074,3.3304,3.3304,3.3304,3.3304,3.3304,0.0,0.0,3.3304,3.3304,3.3304,3.3304,3.3147,3.2954,3.2954,3.2785,3.2579,0.0,0.0,0.0,0.0,0.0,0.0,2.4057,2.4166,2.4395,2.4818,2.4975,2.5144,2.5409,2.5433,2.5433,0.0,0.0,0.0,0.0,0.0,0.0,0.0,0.0,0.0,0.0,0.0,0.0,2.5433,0.0,0.0,0.0,0.0,0.0,0.0,0.0,0.0,0.0,0.0,0.0,0.0,0.0,0.0,0.0,0.0,0.0,0.0,0.0,0.0,2.7075,0.0,0.0,0.0,2.8125,2.8318,0.0,0.0,2.862,2.862,2.862,2.8813,2.9055,2.9212,2.9526,2.9839,3.0008,0.0,3.0214,3.0214,3.0214,3.0214,3.0214,3.0214,0.0,0.0,0.0,0.0,3.0214,3.0214,3.0371,3.0793,3.0938,0.0,0.0,0.0,3.1879,0.0,0.0,0.0,3.2266,3.2133,3.2169,3.2423,3.2435,3.2555,3.2821,3.2821,3.2954,3.3207,3.3207,3.328,3.3376,3.3376,3.3376,3.3376,3.3376,0.0,0.0,3.3376,3.3376,3.3376,3.3376,3.3304,3.3207,3.3207,3.3147,3.3074,0.0,0.0,0.0,0.0,0.0,2.4045,2.4311,2.442,2.4613,2.4999,2.512,2.5228,2.5421,2.5433,2.5433,2.5433,0.0,0.0,0.0,0.0,0.0,0.0,0.0,0.0,0.0,0.0,2.5433,2.5433,2.5433,2.5433,0.0,0.0,0.0,0.0,0.0,0.0,0.0,0.0,0.0,0.0,0.0,0.0,0.0,0.0,0.0,0.0,0.0,0.0,0.0,0.0,0.0,0.0,0.0,0.0,0.0,0.0,2.862,2.8644,2.8717,2.8934,2.9188,2.9453,2.9719,2.9972,0.0,0.0,3.0214,3.0214,3.0214,3.0214,3.0214,3.0214,3.0214,0.0,0.0,3.0214,3.0214,3.0214,3.0407,3.0938,0.0,3.1215,0.0,3.1879,0.0,0.0,0.0,0.0,3.2688,3.2531,3.2519,3.2688,3.2724,3.2821,3.3086,3.3111,3.3183,3.3376,3.3376,3.3376,3.3376,3.3376,3.3376,3.3376,0.0,0.0,0.0,3.3376,3.3376,3.3376,3.3376,3.3376,3.3376,3.3376,3.3376,3.3376,0.0,0.0,0.0,0.0,0.0,0.0,2.4576,2.4854,2.5035,2.5047,2.5277,2.5433,2.5433,2.5433,2.5433,2.5433,2.5433,0.0,0.0,0.0,0.0,0.0,0.0,0.0,0.0,0.0,2.5433,2.5433,2.5433,2.5433,2.5433,2.5433,0.0,0.0,0.0,0.0,0.0,0.0,0.0,0.0,0.0,0.0,0.0,0.0,0.0,0.0,0.0,0.0,0.0,0.0,0.0,0.0,0.0,2.862,2.862,2.862,2.862,2.8681,2.8934,2.92,2.9465,2.9731,3.0008,3.0214,0.0,3.0214,3.0214,3.0214,3.0214,3.0214,3.0214,3.0214,3.0214,0.0,0.0,0.0,3.0214,3.0214,3.0407,3.0938,3.0998,3.1215,3.1759,3.2048,0.0,0.0,0.0,0.0,3.2954,3.2978,3.2978,3.2978,3.2978,3.3111,3.3376,3.3376,3.3376,3.3376,3.3376,3.3376,3.3376,3.3376,3.3376,0.0,0.0,0.0,0.0,3.3376,3.3376,3.3376,3.3376,3.3376,3.3376,3.3376,3.3376,3.3376,0.0,0.0,0.0,0.0,0.0,0.0,0.0,2.4987,2.5108,2.5289,2.5385,2.5433,2.5433,2.5433,2.5433,2.5433,2.5433,0.0,0.0,0.0,0.0,0.0,0.0,0.0,0.0,0.0,2.5433,2.5433,2.5433,2.5433,2.5433,2.5433,2.5433,2.5433,0.0,0.0,0.0,0.0,0.0,0.0,0.0,0.0,0.0,0.0,0.0,0.0,0.0,0.0,0.0,0.0,0.0,0.0,0.0,0.0,0.0,2.862,2.862,2.8681,2.8946,2.9212,2.9465,2.9731,3.0008,3.0214,3.0214,3.0214,3.0214,3.0214,3.0214,3.0214,3.0214,3.0214,3.0214,0.0,0.0,0.0,0.0,3.0214,3.0407,3.0938,3.1324,3.1626,0.0,0.0,0.0,0.0,0.0,0.0,3.3243,3.3243,3.3243,3.3243,3.3243,3.328,3.3376,3.3376,3.3376,3.3376,3.3376,3.3376,3.3376,3.3376,3.3376,0.0,0.0,0.0,0.0,3.3376,3.3376,3.3376,3.3376,3.3376,3.3376,3.3376,3.3376,3.3376,0.0,0.0,0.0,0.0,0.0,0.0,0.0,2.5192,2.5252,2.5409,2.5433,2.5433,2.5433,2.5433,2.5433,2.5433,2.5433,0.0,0.0,0.0,0.0,0.0,0.0,0.0,2.5433,2.5433,2.5433,2.5433,2.5433,2.5433,2.5433,2.5433,2.5433,2.5433,2.5433,2.5433,0.0,0.0,0.0,0.0,0.0,0.0,2.7027,0.0,0.0,0.0,0.0,0.0,0.0,0.0,0.0,0.0,0.0,0.0,0.0,0.0,2.8693,2.8825,2.9091,2.9357,2.9622,2.9888,3.0081,3.0214,3.0214,0.0,3.0214,3.0214,3.0214,3.0214,3.0214,3.0214,3.0214,0.0,0.0,0.0,0.0,0.0,0.0,3.1083,0.0,0.0,0.0,0.0,0.0,0.0,0.0,0.0,3.3376,3.3376,3.3376,3.3376,3.3376,3.3376,3.3376,3.3376,3.3376,3.3376,3.3376,3.3376,3.3376,3.3376,3.3376,0.0,0.0,0.0,0.0,3.3376,3.3376,3.3376,3.3376,3.3376,3.3376,3.3376,3.3376,3.3376,0.0,0.0,0.0,0.0,0.0,0.0,0.0,2.5433,2.5433,2.5433,2.5433,2.5433,2.5433,2.5433,2.5433,2.5433,0.0,0.0,0.0,0.0,0.0,0.0,0.0,0.0,2.5433,2.5433,2.5433,2.5433,2.5433,2.5433,2.5433,2.5433,2.5433,2.5433,2.5433,2.5446,2.5494,2.6001,2.6375,2.6665,2.693,2.7027,0.0,0.0,0.0,0.0,0.0,0.0,0.0,0.0,0.0,0.0,0.0,0.0,0.0,0.0,0.0,0.0,0.0,2.9598,2.9864,3.0141,3.0214,3.0214,3.0214,0.0,0.0,3.0214,3.0214,3.0214,3.0214,3.0214,3.0214,0.0,0.0,0.0,0.0,3.0455,0.0,0.0,3.1638,0.0,0.0,0.0,0.0,0.0,0.0,0.0,3.3376,3.3376,3.3376,3.3376,3.3376,3.3376,3.3376,3.3376,3.3376,3.3376,3.3376,3.3376,3.3376,3.3376,3.3376,0.0,0.0,0.0,0.0,3.3376,3.3376,3.3376,3.3376,3.3376,3.3376,3.3376,3.3376,3.3376,0.0,0.0,0.0,0.0,0.0,0.0,0.0,0.0,0.0,0.0,2.5433,2.5433,2.5433,2.5433,2.5433,0.0,0.0,0.0,0.0,0.0,0.0,0.0,0.0,0.0,2.5433,2.5433,2.5433,2.5433,2.5433,2.5433,2.5433,2.5433,2.5433,2.5433,2.5433,2.5542,2.5759,2.6085,2.6375,2.6665,2.693,2.7027,0.0,0.0,0.0,0.0,2.7027,2.7027,0.0,0.0,0.0,0.0,0.0,0.0,0.0,0.0,2.8958,2.9332,2.9393,0.0,2.9864,3.0141,3.0214,3.0214,0.0,0.0,0.0,0.0,0.0,3.0214,3.0214,3.0214,3.0214,0.0,0.0,3.0214,3.0214,0.0,0.0,0.0,0.0,0.0,0.0,0.0,0.0,0.0,0.0,3.3376,3.3376,3.3376,3.3376,3.3376,3.3376,3.3376,3.3376,3.3376,3.3376,3.3376,3.3376,3.3376,3.3376,3.3376,3.3376,0.0,0.0,0.0,3.3376,3.3376,3.3376,3.3376,3.3376,3.3376,3.3376,3.3376,3.3376,3.3376,0.0,0.0,0.0,0.0,0.0,0.0,0.0,0.0,0.0,0.0,0.0,0.0,0.0,0.0,0.0,0.0,0.0,0.0,0.0,0.0,0.0,0.0,0.0,2.5433,2.5433,2.5433,2.5433,2.5433,2.5433,2.5433,2.5433,2.5433,2.5433,2.5433,2.5433,2.5578,2.5844,2.6109,2.6375,2.6665,2.693,0.0,0.0,0.0,0.0,0.0,2.7027,2.7111,0.0,2.7679,2.7896,2.8065,0.0,0.0,0.0,0.0,2.9091,2.9429,2.955,2.9779,3.002,3.0177,3.0214,3.0214,3.0214,0.0,0.0,0.0,0.0,0.0,3.0214,0.0,0.0,0.0,3.0214,0.0,0.0,0.0,3.1276,3.1553,0.0,0.0,0.0,0.0,0.0,0.0,0.0,3.3376,3.3376,3.3376,3.3376,3.3376,3.3376,3.3376,3.3376,3.3376,3.3376,3.3376,3.3376,3.3376,3.3376,3.3376,3.3376,0.0,0.0,0.0,3.3376,3.3376,3.3376,3.3376,3.3376,3.3376,3.3376,3.3376,3.3376,3.3376,0.0,0.0,0.0,0.0,0.0,0.0,0.0,0.0,0.0,0.0,0.0,0.0,0.0,0.0,0.0,0.0,0.0,0.0,0.0,0.0,0.0,0.0,2.5433,2.5433,2.5433,2.5433,2.5433,2.5433,2.5433,2.5433,2.5433,2.5433,2.5433,2.5433,2.5433,2.5578,2.5844,2.6109,2.6375,2.6665,2.693,0.0,0.0,0.0,0.0,0.0,0.0,0.0,0.0,2.7727,2.798,2.8246,2.8536,0.0,0.0,0.0,0.0,0.0,2.9719,3.0008,3.0214,3.0214,3.0214,3.0214,3.0214,0.0,0.0,0.0,0.0,0.0,0.0,0.0,0.0,0.0,0.0,0.0,3.0926,3.1228,3.1493,3.1771,0.0,0.0,0.0,0.0,0.0,0.0,0.0,3.3376,3.3376,3.3376,3.3376,3.3376,3.3376,3.3376,3.3376,3.3376,3.3376,3.3376,3.3376,3.3376,3.3376,3.3376,3.3376,3.3376,0.0,0.0,3.3376,3.3376,3.3376,3.3376,3.3376,3.3376,3.3376,3.3376,3.3376,3.3376,0.0,0.0,0.0,0.0,0.0,0.0,0.0,0.0,0.0,0.0,0.0,0.0,0.0,0.0,0.0,0.0,0.0,0.0,0.0,0.0,0.0,2.5433,2.5433,2.5433,2.5433,2.5433,2.5433,2.5433,2.5433,2.5433,2.5433,2.5433,2.5433,2.5433,2.5433,2.5578,2.5844,2.6109,2.6375,2.6665,2.693,0.0,0.0,0.0,0.0,0.0,0.0,0.0,0.0,2.7727,2.798,2.8246,2.8536,0.0,0.0,0.0,0.0,0.0,2.9719,3.0008,3.0214,3.0214,3.0214,3.0214,3.0214,0.0,0.0,0.0,0.0,0.0,0.0,0.0,0.0,0.0,0.0,0.0,0.0,0.0,0.0,0.0,0.0,0.0,0.0,0.0,0.0,0.0,0.0,3.3376,3.3376,3.3376,3.3376,3.3376,3.3376,3.3376,3.3376,3.3376,3.3376,3.3376,3.3376,3.3376,3.3376,3.3376,3.3376,3.3376,0.0,3.3376,3.3376,3.3376,3.3376,3.3376,3.3376,3.3376,3.3376,3.3376,3.3376,3.3376,0.0,0.0,0.0,0.0,0.0,0.0,0.0,0.0,0.0,0.0,0.0,0.0,0.0,0.0,0.0,0.0,0.0,0.0,0.0,0.0,2.5433,2.5433,2.5433,2.5433,2.5433,2.5433,2.5433,2.5433,2.5433,2.5433,2.5433,2.5433,2.5433,2.5446,2.5578,2.5796,2.6061,2.6327,2.6604,2.6858,0.0,0.0,0.0,0.0,0.0,0.0,0.0,0.0,0.0,0.0,2.821,2.8451,2.8584,0.0,0.0,0.0,0.0,0.0,2.9912,3.0117,3.0214,3.0214,3.0214,3.0214,3.0214,0.0,0.0,0.0,0.0,0.0,0.0,0.0,0.0,0.0,0.0,0.0,0.0,0.0,0.0,0.0,0.0,0.0,0.0,0.0,0.0,0.0,0.0,0.0,3.3376,3.3376,3.3376,3.3376,3.3376,3.3376,3.3376,3.3376,3.3376,3.3376,3.3376,3.3376,3.3376,3.3376,3.3376,3.3376,0.0,3.3376,3.3376,3.3376,3.3376,3.3376,3.3376,3.3376,3.3376,3.3376,3.3376,3.3376,0.0,0.0,0.0,0.0,0.0,0.0,0.0,0.0,0.0,0.0,0.0,0.0,0.0,0.0,0.0,0.0,0.0,0.0,0.0,2.5433,2.5433,2.5433,2.5433,2.5433,2.5433,2.5433,2.5433,2.5433,2.5433,2.5433,2.5433,2.5494,2.553,2.5542,2.5808,2.6073,2.6327,2.6544,2.6785,2.7027,0.0,0.0,0.0,0.0,0.0,0.0,0.0,0.0,0.0,0.0,0.0,0.0,0.0,0.0,0.0,2.9272,2.9441,2.9598,3.0081,3.0214,3.0214,3.0214,3.0214,3.0214,3.0214,0.0,0.0,0.0,0.0,0.0,0.0,0.0,0.0,0.0,0.0,0.0,0.0,0.0,0.0,0.0,0.0,0.0,0.0,0.0,0.0,0.0,0.0,0.0,3.3376,3.3376,3.3376,3.3376,3.3376,3.3376,3.3376,3.3376,3.3376,3.3376,3.3376,3.3376,3.3376,3.3376,3.3376,3.3376,3.3376,3.3376,3.3376,3.3376,3.3376,3.3376,3.3376,3.3376,3.3376,3.3376,3.3376,3.3376,0.0,0.0,0.0,0.0,0.0,0.0,0.0,0.0,0.0,0.0,0.0,0.0,0.0,0.0,0.0,0.0,0.0,0.0,0.0,2.5433,2.5433,2.5433,2.5433,2.5433,2.5433,2.5433,2.5433,2.5433,2.5433,2.5433,2.5446,2.5687,2.5796,2.5808,2.6073,2.6351,2.6604,2.6629,2.6785,2.7027,2.7027,0.0,0.0,0.0,0.0,0.0,0.0,0.0,0.0,0.0,0.0,0.0,0.0,0.0,2.9043,2.932,2.9574,2.9839,3.0129,3.0214,3.0214,3.0214,3.0214,0.0,3.0214,3.0214,0.0,0.0,0.0,0.0,0.0,0.0,0.0,0.0,0.0,0.0,0.0,0.0,0.0,0.0,0.0,0.0,0.0,0.0,0.0,0.0,0.0,0.0,3.3376,3.3376,3.3376,3.3376,3.3376,3.3376,3.3376,3.3376,3.3376,3.3376,3.3376,3.3376,3.3376,3.3376,3.3376,3.3376,3.3376,3.3376,3.3376,3.3376,3.3376,3.3376,3.3376,3.3376,3.3376,3.3376,3.3376,3.3376,0.0,0.0,0.0,0.0,0.0,0.0,0.0,0.0,0.0,0.0,0.0,0.0,0.0,0.0,0.0,0.0,0.0,0.0,0.0,2.5433,2.5433,2.5433,2.5433,2.5433,2.5433,2.5433,2.5433,2.5433,2.5433,2.5518,2.5687,2.5784,2.5916,2.6085,2.6363,2.6544,2.6653,2.681,2.6942,2.7027,2.7027,2.7027,0.0,0.0,0.0,0.0,0.0,0.0,0.0,0.0,2.8536,2.8656,0.0,2.8934,2.9103,2.9526,2.9719,2.9851,3.0141,3.0214,3.0214,3.0214,3.0214,0.0,0.0,0.0,0.0,0.0,0.0,0.0,0.0,0.0,0.0,0.0,0.0,0.0,0.0,0.0,0.0,0.0,0.0,0.0,0.0,0.0,0.0,0.0,0.0,0.0,3.3376,3.3376,3.3376,3.3376,3.3376,3.3376,3.3376,3.3376,3.3376,3.3376,3.3376,3.3376,3.3376,3.3376,3.3376,3.3376,3.3376,3.3376,3.3376,3.3376,3.3376,3.3376,3.3376,3.3376,3.3376,3.3376,3.3376,3.3376,0.0,0.0,0.0,0.0,0.0,0.0,0.0,0.0,0.0,0.0,0.0,0.0,0.0,0.0,0.0,0.0,0.0,0.0,2.5433,2.5433,2.5433,2.5433,2.5433,2.5482,2.5554,2.5566,2.5518,2.5433,2.5518,2.5699,2.5953,2.6037,2.6182,2.6363,2.6641,2.6761,2.6773,2.6954,2.7027,2.7027,2.7027,2.7027,0.0,0.0,0.0,0.0,0.0,0.0,0.0,0.0,2.862,2.8669,0.0,0.0,2.9224,2.967,2.9851,2.9972,3.0165,3.0214,3.0214,3.0214,3.0214,0.0,3.0214,0.0,0.0,0.0,0.0,0.0,0.0,0.0,0.0,0.0,0.0,0.0,0.0,0.0,0.0,0.0,0.0,0.0,0.0,0.0,0.0,0.0,0.0,0.0,0.0,3.3376,3.3376,3.3376,3.3376,3.34,3.3497,3.3497,3.3497,3.3497,3.3497,3.3473,3.3376,3.3376,3.3376,3.3376,3.3376,3.3376,3.3376,3.3376,3.3376,3.3376,3.3376,3.3376,3.3376,3.3376,3.3376,3.3376,0.0,0.0,0.0,0.0,0.0,0.0,0.0,0.0,0.0,0.0,0.0,0.0,0.0,0.0,0.0,0.0,0.0,0.0,2.5433,2.5433,2.5433,2.5446,2.5446,2.5566,2.582,2.5832,2.5699,2.5446,2.5699,2.5965,2.623,2.6508,2.6641,2.6653,2.6918,2.7027,2.7027,2.7027,2.7027,2.7027,2.7039,2.7039,2.7063,0.0,0.0,0.0,0.0,0.0,0.0,0.0,2.862,2.8669,0.0,0.0,0.0,2.9719,2.9996,3.0214,3.0214,3.0214,3.0214,3.0214,3.0214,0.0,3.0214,0.0,0.0,0.0,0.0,0.0,0.0,0.0,0.0,0.0,0.0,0.0,0.0,0.0,0.0,0.0,0.0,0.0,0.0,0.0,0.0,0.0,0.0,0.0,0.0,3.3376,3.3376,3.3376,3.3376,3.3497,3.3787,3.3787,3.3787,3.3787,3.3787,3.363,3.3376,3.3376,3.3376,3.3376,3.3376,3.3376,3.3376,3.3376,3.3376,3.3376,3.3376,3.3376,3.3376,3.3376,3.3376,3.3376,0.0,0.0,0.0,0.0,0.0,0.0,0.0,0.0,0.0,0.0,0.0,0.0,0.0,0.0,0.0,0.0,0.0,0.0,2.5433,2.5433,2.5518,2.5699,2.5711,2.5832,2.6097,2.6097,2.6061,2.5989,2.6061,2.6242,2.652,2.6604,2.6737,2.6918,2.6991,2.7027,2.7027,2.7027,2.7027,2.7051,2.7232,2.7304,2.7329,0.0,0.0,0.0,0.0,0.0,0.0,0.0,0.0,0.0,2.9212,0.0,2.9731,3.0008,3.0153,3.0214,3.0214,3.0214,0.0,0.0,0.0,0.0,0.0,0.0,0.0,0.0,0.0,0.0,0.0,0.0,0.0,0.0,0.0,0.0,0.0,0.0,0.0,0.0,0.0,0.0,0.0,0.0,0.0,0.0,0.0,0.0,0.0,3.3376,3.3376,3.3376,3.3569,3.3702,3.3787,3.3992,3.4052,3.4052,3.3883,3.363,3.3376,3.3376,3.3376,3.3376,3.3376,3.3376,3.3376,3.3376,3.3376,3.3376,3.3376,3.3376,3.3376,3.3376,3.3376,3.3376,0.0,0.0,0.0,0.0,0.0,0.0,0.0,0.0,0.0,0.0,2.5433,2.5433,0.0,0.0,0.0,0.0,0.0,0.0,0.0,2.559,2.5711,2.5977,2.5989,2.6109,2.6375,2.6484,2.6544,2.6544,2.6435,2.6532,2.6798,2.6798,2.6882,2.7027,2.7027,2.7027,2.7039,2.7135,2.7184,2.7208,2.7473,2.7582,2.7606,0.0,0.0,0.0,0.0,0.0,0.0,0.0,0.0,0.0,0.0,0.0,0.0,3.0129,3.0214,3.0214,3.0214,0.0,0.0,0.0,0.0,0.0,0.0,0.0,0.0,0.0,0.0,0.0,0.0,0.0,0.0,0.0,0.0,0.0,0.0,0.0,0.0,0.0,0.0,0.0,0.0,0.0,0.0,0.0,0.0,0.0,0.0,3.3376,3.3437,3.3533,3.3702,3.3895,3.4088,3.4245,3.4342,3.4342,3.4088,3.3799,3.3533,3.3437,3.3376,3.3376,3.3376,3.3376,3.3376,3.3376,3.3376,3.3376,3.3376,3.3376,3.3376,3.3376,3.3376,3.3376,0.0,0.0,2.5433,2.5433,0.0,0.0,0.0,0.0,0.0,0.0,2.5433,2.5433,0.0,0.0,0.0,0.0,0.0,0.0,0.0,2.5856,2.5977,2.6242,2.6278,2.6411,2.6665,2.6906,2.7027,2.7027,2.6798,2.6798,2.7027,2.7027,2.7027,2.7027,2.7027,2.7039,2.7087,2.7317,2.7437,2.7486,2.7739,2.7848,2.7872,2.8137,0.0,0.0,0.0,0.0,0.0,0.0,0.0,0.0,2.9646,2.9815,2.9888,3.0141,3.0214,3.0214,3.0214,0.0,0.0,0.0,0.0,0.0,0.0,0.0,0.0,0.0,0.0,0.0,0.0,0.0,0.0,0.0,0.0,0.0,0.0,0.0,0.0,0.0,0.0,0.0,0.0,0.0,0.0,0.0,0.0,0.0,0.0,3.3376,3.3497,3.3787,3.3823,3.4052,3.4571,3.4607,3.4607,3.4607,3.4318,3.4052,3.3823,3.3497,3.3376,3.3376,3.3376,3.3376,3.3376,3.3376,3.3376,3.3376,3.3376,3.3376,3.3376,3.3376,3.3376,3.3376,0.0,0.0,2.5433,2.5433,0.0,0.0,0.0,0.0,0.0,0.0,0.0,0.0,0.0,0.0,0.0,0.0,0.0,0.0,0.0,2.6025,2.6254,2.6532,2.6749,2.6882,2.6942,2.7003,2.7027,2.7027,2.6979,2.6979,2.7027,2.7027,2.7027,2.7027,2.7027,2.7148,2.7341,2.7401,2.7534,2.7751,2.8017,2.8113,2.8149,2.8427,2.8536,0.0,0.0,0.0,0.0,0.0,0.0,0.0,2.9755,2.9948,3.0141,3.0202,3.0214,3.0214,0.0,3.0214,0.0,0.0,0.0,0.0,0.0,0.0,0.0,0.0,0.0,0.0,0.0,0.0,0.0,0.0,0.0,0.0,0.0,0.0,0.0,0.0,0.0,0.0,0.0,0.0,0.0,0.0,0.0,0.0,3.3376,3.3376,3.3497,3.3787,3.3992,3.4245,3.4571,3.4776,3.4873,0.0,3.4414,3.4149,3.4088,3.3593,3.3376,3.3376,3.3376,3.3376,3.3376,3.3376,3.3376,3.3376,3.3376,3.3376,3.3376,3.3376,3.3376,3.3376,0.0,0.0,0.0,0.0,0.0,0.0,0.0,0.0,0.0,0.0,0.0,0.0,0.0,0.0,0.0,0.0,0.0,0.0,0.0,0.0,2.6544,2.681,2.6954,2.7027,2.7027,2.7027,2.7027,2.7027,2.7027,2.7027,2.7027,2.7027,2.7099,2.722,2.722,2.7365,2.7618,2.7739,2.7872,2.8029,2.8294,2.8403,2.8427,2.8705,2.8813,2.885,2.9103,0.0,0.0,0.0,0.0,0.0,0.0,0.0,3.0214,3.0214,3.0214,3.0214,0.0,0.0,0.0,0.0,0.0,0.0,0.0,0.0,0.0,0.0,0.0,0.0,0.0,0.0,0.0,0.0,0.0,0.0,0.0,0.0,0.0,0.0,0.0,0.0,0.0,0.0,0.0,0.0,0.0,3.3376,3.3376,3.3497,3.369,3.3956,3.4245,3.4511,3.4764,3.4897,3.497,3.497,3.4438,3.4052,3.3799,3.3497,3.3376,3.3376,3.3376,3.3376,3.3376,3.3376,3.3376,3.3376,3.3376,3.3376,3.3376,3.3376,3.3376,3.3376,0.0,0.0,0.0,0.0,0.0,0.0,0.0,0.0,0.0,0.0,0.0,0.0,0.0,0.0,0.0,0.0,0.0,0.0,0.0,0.0,0.0,2.7015,2.7027,2.7027,2.7027,2.7027,2.7027,2.7027,2.7027,2.7051,2.7099,2.7099,2.7208,2.7425,2.7473,2.763,2.7896,2.8113,2.8234,2.8294,2.8572,2.8693,2.8717,2.8982,2.9079,2.9115,2.9381,2.9477,2.9513,2.9779,0.0,0.0,0.0,0.0,3.0214,3.0214,3.0214,3.0214,3.0214,0.0,3.0214,3.0214,3.0214,0.0,3.0552,0.0,0.0,0.0,3.1433,3.1529,3.1771,3.1807,3.1807,3.1807,3.2036,3.229,3.2555,0.0,0.0,0.0,0.0,0.0,0.0,0.0,0.0,0.0,0.0,3.3376,3.3376,3.363,3.3919,3.4185,3.4438,3.4704,3.497,3.497,3.4933,3.4897,3.4378,3.3859,3.3376,3.3376,3.3376,3.3376,3.3376,3.3376,3.3376,3.3376,3.3376,3.3376,3.3376,3.3376,3.3376,3.3376,3.3376,3.3376,0.0,0.0,0.0,0.0,0.0,0.0,0.0,0.0,0.0,0.0,2.5639,2.5771,0.0,2.6013,2.617,2.617,2.6423,2.6604,2.6641,0.0,0.0,2.7027,2.7027,2.7027,2.7027,2.7027,2.7027,2.7027,2.7027,2.7148,2.7365,2.7365,2.7389,2.7425,2.7655,2.7908,2.8149,2.8186,2.8343,2.8596,2.885,2.8958,2.8994,2.9248,2.9357,2.9393,2.9646,2.9743,2.9791,3.0069,3.0165,0.0,0.0,0.0,3.0214,3.0214,3.0214,3.0214,0.0,0.0,3.0214,0.0,3.0214,3.0286,0.0,0.0,3.1071,0.0,3.1578,3.1759,3.1807,3.1807,3.1807,3.1807,3.2036,3.229,3.2555,3.2821,3.3074,3.334,3.3376,0.0,0.0,0.0,0.0,0.0,3.3376,3.3376,3.3376,3.363,3.3919,3.4185,3.4438,3.4704,3.497,3.497,3.4861,3.4607,3.4088,3.3666,3.3376,3.3376,3.3376,3.3376,3.3376,3.3376,3.3376,3.3376,3.3376,3.3376,3.3376,3.3376,3.3376,3.3376,3.3376,3.3376,0.0,0.0,0.0,0.0,0.0,0.0,0.0,0.0,0.0,0.0,0.0,2.6049,2.6049,2.6291,2.646,2.646,2.6701,2.6858,2.6858,2.6966,2.7027,2.7027,2.7027,2.7027,2.7027,2.7027,2.7099,2.7244,2.7244,2.7377,0.0,2.7787,2.786,2.786,2.798,2.8186,2.8439,2.8439,2.8596,2.885,2.897,2.9103,2.926,2.9526,2.9622,2.9658,2.9936,0.0,0.0,0.0,0.0,3.0214,3.0214,0.0,0.0,0.0,3.0214,0.0,3.0214,3.0214,3.0214,0.0,3.0214,3.0322,3.0733,0.0,3.1119,3.1541,3.1722,3.1807,3.1807,3.1807,3.1855,3.2,3.2254,3.2519,3.2785,3.305,3.3243,3.3376,3.3376,3.3376,0.0,0.0,0.0,0.0,3.3376,3.3437,3.3593,3.3859,3.4125,3.4378,3.4668,3.4837,3.497,3.497,3.4764,3.4342,3.3992,3.363,3.3376,3.3376,3.3376,3.3376,3.3376,3.3376,3.3376,3.3376,3.3376,3.3376,3.3376,3.3376,3.3376,3.3376,3.3376,3.3376,0.0,0.0,0.0,0.0,0.0,0.0,0.0,0.0,0.0,0.0,0.0,2.6327,2.6327,0.0,0.0,0.0,2.6918,2.7027,2.7027,2.7027,2.7063,2.7123,2.7123,2.716,2.7232,2.7232,2.7329,2.7522,2.7522,0.0,2.792,2.8113,2.8246,0.0,2.8306,2.8427,2.862,0.0,0.0,2.9031,2.9163,2.9332,2.9538,2.9803,2.99,2.9936,3.0141,0.0,0.0,0.0,0.0,0.0,3.0214,3.0214,0.0,0.0,0.0,0.0,0.0,0.0,3.0214,3.0214,3.0214,3.0358,0.0,0.0,3.1155,0.0,3.1807,3.1807,3.1807,3.1807,3.1891,3.2157,3.2423,3.2688,3.2954,3.3207,3.3376,3.3376,3.3376,3.3376,3.3376,0.0,0.0,0.0,3.3376,3.3473,3.3666,3.3992,3.4281,3.4475,3.4801,3.497,3.497,3.4837,3.4535,3.4088,3.3823,3.3569,3.3376,3.3376,3.3376,3.3376,3.3376,3.3376,3.3376,3.3376,3.3376,3.3376,3.3376,3.3376,3.3376,3.3376,3.3376,3.3376,0.0,0.0,0.0,0.0,0.0,0.0,0.0,0.0,0.0,0.0,0.0,2.6616,2.6616,2.6846,2.7015,2.7015,2.7027,2.7027,2.7027,2.7027,2.7135,2.7389,2.7401,0.0,2.7763,2.7775,2.7775,2.7787,0.0,0.0,2.8186,2.8198,2.8343,2.8596,2.8596,2.8608,2.8644,0.0,0.0,0.0,0.0,2.9767,2.9803,3.0081,3.0189,0.0,0.0,0.0,0.0,0.0,0.0,3.0214,3.0214,3.0214,3.0214,0.0,0.0,0.0,0.0,3.0214,0.0,3.0214,3.0214,3.0358,0.0,0.0,3.1155,3.1698,3.1807,3.1807,3.1807,3.1807,3.1891,3.2157,3.2423,3.2688,3.2954,3.3207,3.3376,3.3376,3.3376,3.3376,3.3376,3.3376,0.0,0.0,3.3376,3.3376,3.34,3.3895,3.4185,3.4209,3.4704,3.497,3.497,3.4475,3.4088,3.3823,3.3533,3.3376,3.3376,3.3376,3.3376,3.3376,3.3376,3.3376,3.3376,3.3376,3.3376,3.3376,3.3376,3.3376,3.3376,3.3376,3.3376,3.3376,0.0,0.0,0.0,0.0,0.0,0.0,0.0,0.0,0.0,0.0,0.0,0.0,0.0,2.6979,2.7027,2.7027,2.7184,2.728,2.728,2.7437,2.757,2.7667,2.7667,2.7715,2.7811,2.7811,2.7896,2.8065,2.8065,2.8198,2.8475,2.8475,2.862,2.8874,2.8874,2.8874,2.8886,2.9151,0.0,0.0,0.0,0.0,3.0081,0.0,0.0,0.0,0.0,0.0,0.0,0.0,3.0214,3.0214,3.0214,3.0214,0.0,0.0,0.0,0.0,0.0,0.0,0.0,3.0214,3.0214,3.0358,3.0877,3.0998,3.1155,3.1698,3.1807,3.1807,3.1807,3.1807,3.1952,3.2386,3.2531,3.2748,3.3171,3.3304,3.3376,3.3376,3.3376,3.3376,3.3376,3.3376,3.3376,0.0,0.0,3.3437,3.363,3.3823,3.4088,3.4414,3.4607,3.4704,3.4704,3.4342,3.4052,3.3787,3.3497,3.3376,3.3376,3.3376,3.3376,3.3376,3.3376,3.3376,3.3376,3.3376,3.3376,3.3376,3.3376,3.3376,3.3376,3.3376,3.3376,3.3376,0.0,0.0,0.0,0.0,0.0,2.6496,0.0,0.0,0.0,0.0,0.0,0.0,0.0,0.0,2.7196,2.728,2.7449,2.7546,2.7546,2.7715,2.7848,2.7944,2.7944,2.7993,2.8077,2.8089,2.8174,2.8343,2.8343,2.8439,2.862,2.8717,2.885,2.9019,2.92,2.9224,0.0,0.0,0.0,2.9803,0.0,0.0,3.0214,0.0,0.0,0.0,0.0,0.0,0.0,0.0,3.0214,3.0214,3.0214,0.0,0.0,0.0,0.0,0.0,3.0214,0.0,0.0,3.0214,3.0214,3.0358,3.0877,3.0998,3.1155,3.1698,3.1807,3.1807,3.1807,3.1807,3.1976,3.2495,3.2592,3.2785,3.3304,3.3376,3.3376,3.3376,3.3376,3.3376,3.3376,3.3376,3.3376,3.3376,0.0,0.0,3.363,3.3726,3.3992,3.4438,3.4438,3.4414,3.4318,3.4149,3.3919,3.3666,3.3473,3.3376,3.3376,3.3376,3.3376,3.3376,3.3376,3.3376,3.3376,3.3376,3.3376,3.3376,3.3376,3.3376,3.3376,3.3376,3.3376,3.3376,0.0,2.6858,2.7027,2.7027,2.7027,2.7027,2.7027,2.7039,2.7039,2.7039,0.0,0.0,0.0,0.0,0.0,2.7787,2.7824,2.7824,2.7824,2.7836,2.7944,2.8198,2.821,2.8343,2.862,2.862,2.862,2.862,2.8632,2.8632,2.8644,2.8898,2.9031,2.9055,2.9574,2.9658,2.9441,0.0,2.9803,2.9827,0.0,3.0214,3.0214,0.0,0.0,0.0,3.0214,3.0214,0.0,0.0,3.0214,3.0214,0.0,0.0,0.0,0.0,0.0,0.0,0.0,0.0,0.0,3.0214,3.0214,3.0358,3.0877,3.0998,3.1155,3.1698,3.1807,3.1807,3.1807,3.1807,3.1976,3.2495,3.2592,3.2785,3.328,3.3376,3.3376,3.3376,3.3376,3.3376,3.3376,3.3376,3.3376,3.3376,3.3376,3.3376,3.3376,3.363,3.3919,3.4149,3.4185,3.4052,3.3787,3.3787,3.3666,3.3376,3.3376,3.3376,3.3376,3.3376,3.3376,3.3376,3.3376,3.3376,3.3376,3.3376,3.3376,3.3376,3.3376,3.3376,3.3376,3.3376,3.3376,3.3376,2.6918,2.6979,2.7027,2.7027,2.7027,2.7027,2.7027,0.0,2.7317,0.0,0.0,0.0,2.7691,2.7703,2.7739,2.7799,2.798,2.8101,2.8101,2.8282,2.8427,2.85,2.8512,2.8548,2.862,2.862,2.862,2.862,2.8813,2.891,2.891,2.9175,2.9393,2.9586,2.9731,2.9876,2.9996,3.0069,0.0,0.0,3.0189,3.0214,0.0,0.0,0.0,0.0,0.0,3.0214,0.0,0.0,3.0214,3.0214,0.0,0.0,0.0,0.0,0.0,0.0,3.0214,0.0,0.0,0.0,0.0,0.0,3.0877,3.0998,3.1155,3.1698,3.1807,3.1807,3.1807,3.1807,3.1916,3.2254,3.2471,3.2724,3.305,3.3243,3.3376,3.3376,3.3376,3.3376,3.3376,3.3376,3.3376,0.0,3.3376,3.3376,3.3376,3.363,3.3823,3.3895,3.4088,3.4052,3.3787,3.3787,3.3666,3.3376,3.3376,3.3376,3.3376,3.3376,3.3376,3.3376,3.3376,3.3376,3.3376,3.3376,3.3376,3.3376,3.3376,3.3376,3.3376,3.3376,3.3376,3.3376,2.7027,2.7027,2.7063,2.7172,2.7196,2.7232,0.0,0.0,0.0,0.0,0.0,0.0,2.7956,2.8077,2.8149,2.8149,2.8294,2.8427,2.8536,2.8693,2.8837,2.8946,2.8946,2.8946,2.8946,2.8946,2.8946,0.0,0.0,2.9175,2.9188,2.9441,0.0,2.9803,2.9924,3.0057,3.0214,0.0,0.0,0.0,3.0214,0.0,0.0,3.0214,3.0214,0.0,0.0,0.0,3.0214,3.0214,3.0214,0.0,0.0,0.0,0.0,0.0,0.0,0.0,0.0,0.0,0.0,0.0,0.0,0.0,3.0902,3.1083,3.1288,3.1722,3.1807,3.1807,3.1807,3.1807,3.1855,3.2012,3.2254,3.2519,3.2785,3.305,3.3207,3.3207,3.3304,3.3376,3.3376,3.3376,3.3376,3.3376,3.3376,3.3376,3.3376,3.3533,3.363,3.363,3.3762,3.3762,3.363,3.363,3.3533,3.3376,3.3376,3.3376,3.3376,3.3376,3.3376,3.3376,3.3376,3.3376,3.3376,3.3376,3.3376,3.3376,3.3376,3.3376,3.3376,3.3376,3.3376,3.3376,0.0,2.7123,2.7184,2.7425,2.7461,2.7546,0.0,0.0,0.0,0.0,2.7884,2.8005,2.827,2.8512,2.8681,2.8705,2.8717,2.8813,2.9043,2.9055,2.9163,2.9393,2.9405,2.9405,2.9405,2.9405,2.9405,0.0,0.0,0.0,0.0,0.0,0.0,0.0,3.0105,3.0214,3.0214,0.0,0.0,3.0214,3.0214,3.0214,0.0,0.0,3.0214,0.0,3.0214,3.0214,3.0214,3.0214,3.0214,0.0,0.0,0.0,0.0,0.0,3.0214,0.0,0.0,0.0,0.0,0.0,0.0,0.0,3.0974,3.1228,3.1469,3.1747,3.1807,3.1807,3.1807,3.1807,3.1807,3.1807,3.2,3.2254,3.2519,3.2785,3.2954,3.2954,3.3171,3.334,3.334,3.334,3.3376,3.3376,3.3376,3.3376,3.3376,3.3376,3.3376,3.3376,3.3376,3.3376,3.3376,3.3376,3.3376,3.3376,3.3376,3.3376,3.3376,3.3376,3.3376,3.3376,3.3376,3.3376,3.3376,3.3376,3.3376,3.3376,3.3376,3.3376,3.3376,3.3376,3.3376,3.3376,2.7655,2.7655,2.7679,2.7727,2.7739,0.0,0.0,0.0,0.0,2.8125,2.8331,2.856,2.8825,2.8898,2.9019,2.9236,2.9248,2.9272,2.9332,2.9332,2.9357,2.9405,2.9405,2.9405,2.9405,2.9405,2.9405,0.0,0.0,0.0,0.0,0.0,0.0,0.0,3.0189,3.0214,3.0214,0.0,0.0,3.0214,3.0214,0.0,3.0214,3.0214,3.0214,3.0214,3.0214,3.0214,3.0214,0.0,3.0214,3.0214,0.0,0.0,0.0,0.0,0.0,0.0,0.0,0.0,0.0,0.0,0.0,0.0,3.1203,3.1348,3.1469,3.1747,3.1807,3.1807,3.1807,3.1807,3.1807,3.1807,3.1855,3.1976,3.2242,3.2495,3.2652,3.2652,3.2881,3.305,3.305,3.3243,3.3376,3.3376,3.3376,3.3376,3.3376,3.3376,3.3376,3.3376,3.3376,3.3376,3.3376,3.3376,3.3376,3.3376,3.3376,3.3376,3.3376,3.3376,3.3376,3.3376,3.3376,3.3376,3.3376,3.3376,3.3376,3.3376,3.3376,3.3376,3.3376,3.3376,3.3376,3.3376,2.7811,2.7811,2.786,2.798,0.0,0.0,0.0,0.0,2.8415,2.8415,2.8644,2.8922,2.9175,2.9212,2.926,2.9393,2.9405,2.9465,2.9586,2.9598,2.9658,2.9803,2.9815,2.9815,2.9815,2.9815,2.9815,0.0,0.0,0.0,0.0,0.0,0.0,0.0,0.0,0.0,0.0,0.0,3.0214,3.0214,3.0214,0.0,3.0214,3.0214,3.0214,3.0214,3.0214,3.0214,3.0214,3.0214,3.0214,0.0,0.0,3.031,3.0407,0.0,3.0503,3.0612,0.0,0.0,0.0,3.0769,0.0,0.0,0.0,3.1493,3.1638,3.1783,3.1807,3.1807,3.1807,3.1807,3.1807,3.1807,3.1807,3.1855,3.1988,3.2229,3.2398,3.2398,3.2628,3.2785,3.2785,3.3014,3.3243,3.3376,3.3376,3.3376,3.3376,3.3376,3.3376,3.3376,3.3376,3.3376,3.3376,3.3376,3.3376,3.3376,3.3376,3.3376,3.3376,3.3376,3.3376,3.3376,3.3376,3.3376,3.3376,3.3376,3.3376,3.3376,3.3376,3.3376,3.3376,3.3376,3.3376,3.3376,2.7993,2.7968,2.8041,2.8246,0.0,0.0,0.0,0.0,2.8717,2.8765,2.8958,2.9188,2.9453,2.9477,2.9501,2.9562,2.9562,2.9646,0.0,0.0,0.0,3.0202,3.0214,3.0214,3.0214,0.0,0.0,0.0,0.0,0.0,0.0,0.0,0.0,0.0,0.0,0.0,0.0,0.0,0.0,3.0214,0.0,3.0214,3.0214,3.0214,3.0214,3.0214,3.0214,3.0214,3.0226,3.0274,0.0,3.0298,3.0346,3.0515,0.0,0.0,0.0,0.0,0.0,0.0,0.0,0.0,0.0,3.1397,0.0,0.0,0.0,3.1807,3.1807,3.1807,3.1807,3.1807,3.1807,3.1807,3.1807,3.1807,0.0,3.1988,0.0,3.2121,3.235,3.2519,3.2519,3.2785,3.3074,3.328,3.334,3.3376,3.3376,3.3376,3.3376,3.3376,3.3376,3.3376,3.3376,3.3376,3.3376,3.3376,3.3376,3.3376,3.3376,3.3376,3.3376,3.3376,3.3376,3.3376,3.3376,3.3376,3.3376,3.3376,3.3376,3.3376,3.3376,3.3376,3.3376,3.3376,2.862,2.8536,2.8536,2.8572,0.0,0.0,0.0,0.0,2.9055,2.9284,2.9344,2.9465,0.0,0.0,0.0,0.0,0.0,0.0,3.0165,0.0,0.0,0.0,0.0,0.0,3.0214,0.0,0.0,0.0,0.0,0.0,0.0,0.0,0.0,0.0,3.0214,0.0,0.0,0.0,3.0214,0.0,3.0214,3.0214,0.0,3.0214,3.0214,3.0214,3.0214,3.0214,3.025,0.0,3.0564,3.06,0.0,3.0926,0.0,0.0,0.0,0.0,0.0,0.0,0.0,0.0,3.136,0.0,0.0,0.0,3.1807,3.1807,0.0,3.1807,3.1807,0.0,0.0,3.1807,3.1807,3.1807,3.1807,3.1831,3.1855,3.1855,3.2085,3.2242,3.2242,3.2688,3.2978,3.3014,3.3243,3.3376,3.3376,3.3376,3.3376,3.3376,3.3376,3.3376,3.3376,3.3376,3.3376,3.3376,3.3376,3.3376,3.3376,3.3376,3.3376,3.3376,3.3376,3.3376,3.3376,3.3376,3.3376,3.3376,3.3376,3.3376,3.3376,3.3376,3.3376,3.3376,2.9127,2.9079,2.9079,2.9079,0.0,0.0,0.0,2.9236,2.9332,2.9598,2.9634,2.9731,0.0,0.0,0.0,0.0,0.0,0.0,0.0,0.0,0.0,0.0,0.0,0.0,0.0,0.0,0.0,0.0,3.0214,0.0,0.0,0.0,0.0,0.0,3.0214,0.0,3.0214,0.0,0.0,0.0,0.0,0.0,0.0,3.0274,3.031,3.0467,3.0612,3.0672,3.0684,0.0,3.0829,0.0,0.0,0.0,0.0,0.0,0.0,0.0,0.0,0.0,0.0,0.0,0.0,0.0,0.0,0.0,3.1807,0.0,0.0,0.0,0.0,0.0,0.0,0.0,3.1807,3.1807,3.1807,3.1807,3.1807,3.1807,0.0,0.0,3.2181,3.2398,3.2652,3.2954,3.3074,3.3207,3.3376,3.3376,3.3376,3.3376,3.3376,3.3376,3.3376,3.3376,3.3376,3.3376,3.3376,3.3376,3.3376,3.3376,3.3376,3.3376,3.3376,3.3376,3.3376,3.3376,3.3376,3.3376,3.3376,3.3376,3.3376,3.3376,3.3376,3.3376,2.9634,0.0,0.0,0.0,0.0,0.0,2.9501,2.9574,2.9695,0.0,0.0,0.0,3.0189,3.0214,0.0,0.0,0.0,3.0214,0.0,0.0,3.0214,0.0,0.0,0.0,0.0,0.0,0.0,0.0,0.0,0.0,0.0,0.0,0.0,0.0,0.0,3.0214,3.0214,0.0,0.0,3.0226,3.0298,3.0479,3.0696,3.0503,3.0552,3.0745,3.0926,3.0998,3.101,3.1083,3.1107,0.0,3.1191,0.0,0.0,0.0,0.0,0.0,3.1807,0.0,0.0,0.0,0.0,0.0,0.0,0.0,0.0,0.0,0.0,0.0,0.0,0.0,0.0,0.0,0.0,3.1807,3.1807,3.1807,3.1807,0.0,0.0,0.0,0.0,3.2157,3.2386,3.2845,3.2954,3.3111,3.3376,3.3376,3.3376,3.3376,3.3376,3.3376,3.3376,3.3376,3.3376,3.3376,3.3376,3.3376,3.3376,3.3376,3.3376,3.3376,3.3376,3.3376,3.3376,3.3376,3.3376,3.3376,3.3376,3.3376,3.3376,3.3376,3.3376,3.3376,3.0189,2.9767,0.0,0.0,0.0,0.0,0.0,0.0,0.0,0.0,0.0,0.0,0.0,0.0,0.0,0.0,0.0,3.0214,3.0214,0.0,3.0214,0.0,0.0,0.0,0.0,0.0,0.0,0.0,0.0,0.0,0.0,0.0,0.0,0.0,0.0,3.0214,3.0214,3.0214,3.0214,3.0238,3.0491,3.0745,3.0986,0.0,3.0974,3.0986,3.0998,0.0,0.0,3.1288,3.1372,0.0,0.0,0.0,0.0,0.0,0.0,0.0,0.0,0.0,0.0,3.1807,0.0,0.0,0.0,0.0,3.1807,0.0,0.0,0.0,0.0,0.0,0.0,0.0,0.0,0.0,0.0,3.1807,3.1807,3.1807,0.0,0.0,0.0,3.2048,3.2314,3.2592,3.2845,3.3111,3.3376,3.3376,3.3376,3.3376,3.3376,3.3376,3.3376,3.3376,3.3376,3.3376,3.3376,3.3376,3.3376,3.3376,3.3376,3.3376,3.3376,3.3376,3.3376,3.3376,3.3376,3.3376,3.3376,3.3376,3.3376,3.3376,3.3376,3.3376,3.0214,0.0,0.0,0.0,0.0,0.0,0.0,3.0153,0.0,0.0,0.0,0.0,0.0,0.0,3.0214,0.0,0.0,3.0214,3.0214,3.0214,0.0,0.0,0.0,3.0214,0.0,0.0,0.0,0.0,0.0,0.0,0.0,0.0,0.0,0.0,0.0,3.0214,0.0,0.0,0.0,0.0,0.0,3.1179,3.1252,0.0,0.0,3.1276,3.1469,3.1529,0.0,3.1638,3.1662,3.1686,3.1783,3.1807,3.1807,3.1807,3.1807,0.0,0.0,0.0,3.1807,3.1807,0.0,0.0,0.0,0.0,0.0,0.0,0.0,0.0,0.0,0.0,0.0,0.0,0.0,0.0,0.0,3.1807,3.1807,0.0,0.0,0.0,0.0,0.0,3.2048,3.2314,3.2592,3.2845,3.3111,3.328,3.3376,3.3376,3.3376,3.3376,3.3376,3.3376,3.3376,3.3376,3.3376,3.3376,3.3376,3.3376,3.3376,3.3376,3.3376,3.3376,3.3376,3.3376,3.3376,3.3376,3.3376,3.3376,3.3376,3.3376,3.3376,3.3376,3.0214,0.0,0.0,0.0,0.0,0.0,0.0,0.0,0.0,0.0,3.0214,0.0,3.0416,0.0,3.0214,0.0,3.0214,3.0214,3.0214,3.0214,0.0,3.0214,3.0214,0.0,0.0,0.0,0.0,0.0,0.0,3.0214,0.0,0.0,0.0,0.0,0.0,0.0,3.0503,0.0,3.0745,0.0,0.0,3.1445,0.0,0.0,3.1541,3.1566,0.0,3.1807,3.1807,3.1807,3.1867,3.1952,3.1952,3.2012,3.2073,3.1976,3.1952,3.1928,3.1831,3.1807,0.0,3.1807,3.1807,0.0,3.1807,0.0,0.0,0.0,0.0,0.0,0.0,0.0,0.0,0.0,0.0,0.0,0.0,3.1807,0.0,0.0,0.0,0.0,0.0,3.1807,3.1916,3.2181,3.2447,3.2724,0.0,3.3243,3.3376,3.3376,3.3376,3.3376,3.3376,3.3376,3.3376,3.3376,3.3376,3.3376,3.3376,3.3376,3.3376,3.3376,3.3376,3.3376,3.3376,3.3376,3.3376,3.3376,3.3376,3.3376,3.3376,3.3376,3.3376,3.3376,0.0,0.0,0.0,0.0,3.0214,0.0,0.0,0.0,3.0214,0.0,3.0214,3.0416,3.1012,3.0619,3.0416,3.1012,3.0619,0.0,3.0214,3.0214,0.0,0.0,3.0214,3.0214,3.0214,0.0,0.0,0.0,0.0,0.0,0.0,0.0,0.0,0.0,3.0624,0.0,3.0998,3.101,3.1022,3.1059,3.1312,3.1578,3.1831,3.1831,3.1831,3.1843,3.1831,3.1831,3.1843,3.1843,3.2012,3.2217,3.2217,3.2386,3.2531,3.229,3.2217,3.2169,3.1916,3.1843,3.1843,3.1843,0.0,0.0,0.0,0.0,3.1831,0.0,0.0,0.0,0.0,0.0,0.0,0.0,0.0,0.0,0.0,0.0,0.0,0.0,0.0,0.0,0.0,3.1807,3.1916,3.2157,3.2435,3.2688,0.0,3.3207,3.3376,3.3376,3.3376,3.3376,3.3376,3.3376,3.3376,3.3376,3.3376,3.3376,3.3376,3.3376,3.3376,3.3376,3.3376,3.3376,3.3376,3.3376,3.3376,3.3376,3.3376,3.3376,3.3376,3.3376,3.3376,3.3376,3.0214,3.0214,3.0214,0.0,3.0214,3.0214,0.0,0.0,0.0,0.0,3.0822,3.1012,3.1617,3.1416,3.1416,3.1617,3.1416,0.0,0.0,0.0,0.0,3.0214,3.0214,3.0214,3.0214,3.0214,0.0,3.0214,0.0,0.0,3.0503,0.0,0.0,0.0,0.0,0.0,3.101,3.1203,3.1409,3.1602,3.1674,3.1867,0.0,0.0,3.2217,3.2362,3.2169,3.2229,3.2386,3.2386,3.2435,3.2495,3.2495,3.2531,3.2592,3.2519,3.2495,3.2471,3.241,3.2386,3.2386,3.2386,3.2386,3.2386,0.0,0.0,0.0,0.0,0.0,0.0,0.0,0.0,0.0,0.0,0.0,0.0,0.0,0.0,0.0,3.1807,0.0,3.1807,3.1807,3.1807,3.1843,3.1904,3.2338,0.0,0.0,0.0,3.3376,3.3376,3.3376,3.3376,3.3376,3.3376,3.3376,3.3376,3.3376,3.3376,3.3376,3.3376,3.3376,3.3376,3.3376,3.3376,3.3376,3.3376,3.3376,3.3376,3.3376,3.3376,3.3376,3.3376,3.3376,3.3376,3.0214,0.0,0.0,3.0214,0.0,0.0,3.0416,0.0,0.0,3.1214,3.1416,0.0,3.2008,3.2123,3.22,3.2402,3.2315,0.0,0.0,0.0,0.0,3.0803,3.079,3.0538,3.0226,3.0214,0.0,3.0383,0.0,0.0,3.0781,0.0,0.0,0.0,0.0,3.124,0.0,3.1505,3.1662,3.1819,3.1928,0.0,0.0,3.2326,3.2531,3.2748,3.2592,3.2555,3.2592,3.2592,3.2652,3.2748,3.2748,3.2845,3.2917,3.2785,3.2748,3.2724,3.2628,3.2592,3.2592,3.2592,3.2592,3.2592,3.2592,3.2471,3.2374,0.0,0.0,0.0,0.0,0.0,0.0,0.0,0.0,0.0,0.0,0.0,0.0,0.0,3.1807,3.1807,3.1807,3.1807,3.1807,3.1807,3.229,0.0,0.0,0.0,3.3376,3.3376,3.3376,3.3376,3.3376,3.3376,3.3376,3.3376,3.3376,3.3376,3.3376,3.3376,3.3376,3.3376,3.3376,3.3376,3.3376,3.3376,3.3376,3.3376,3.3376,3.3376,3.3376,3.3376,3.3376,3.3376,0.0,0.0,0.0,0.0,0.0,0.0,0.0,3.1012,0.0,3.1819,0.0,3.2274,3.2676,3.2734,3.2699,3.3311,0.0,3.2853,3.2853,3.2853,3.2544,3.1688,3.1688,3.1166,3.0526,3.0322,0.0,0.0,0.0,0.0,0.0,0.0,0.0,0.0,0.0,0.0,0.0,3.1807,3.1831,3.1879,3.2109,3.2242,3.2326,3.2555,3.2821,3.305,3.305,3.2881,3.2688,3.2688,3.2845,3.305,3.305,3.3183,3.334,3.3111,3.305,3.2978,3.2748,3.2688,3.2688,3.2688,3.2688,3.2688,3.2688,3.2652,3.2652,3.2652,3.2616,3.2519,0.0,0.0,0.0,0.0,0.0,0.0,0.0,0.0,0.0,0.0,0.0,0.0,3.1807,3.1807,3.1807,3.1807,0.0,0.0,0.0,0.0,3.3376,3.3376,3.3376,3.3376,3.3376,0.0,3.3376,3.3376,3.3376,3.3376,3.3376,3.3376,3.3376,3.3376,3.3376,3.3376,3.3376,3.3376,3.3376,3.3376,3.3376,3.3376,3.3376,3.3376,3.3376,3.3376,0.0,0.0,0.0,0.0,0.0,3.1214,3.2209,3.1617,3.1416,3.241,3.2618,0.0,3.3598,3.3864,3.4037,3.4037,3.4077,0.0,0.0,0.0,0.0,3.2582,3.195,3.173,3.1474,3.106,3.0877,0.0,0.0,0.0,0.0,0.0,0.0,0.0,0.0,0.0,3.1807,3.1807,0.0,3.2133,3.2181,3.2459,3.2845,3.2881,3.3074,3.3304,3.3304,3.328,3.3243,3.3243,3.3268,3.3304,3.3304,3.334,3.3376,3.3304,3.3304,3.3304,3.3243,3.3243,3.3243,3.3243,3.3243,3.3243,3.3243,3.3074,3.2917,3.2917,3.2748,3.2592,3.2531,0.0,0.0,0.0,0.0,0.0,0.0,0.0,0.0,0.0,0.0,3.1807,0.0,3.1807,3.1807,0.0,0.0,0.0,0.0,0.0,3.3376,0.0,3.3376,0.0,0.0,0.0,3.3376,3.3376,3.3376,3.3376,3.3376,3.3376,3.3376,3.3376,3.3376,3.3376,3.3376,3.3376,3.3376,3.3376,3.3376,3.3376,3.3376,3.3376,3.3376,3.3376,0.0,0.0,0.0,0.0,0.0,0.0,0.0,3.2557,0.0,3.3277,3.3514,3.3891,3.4108,3.4376,3.4549,3.4549,3.4683,3.4568,3.4346,3.4346,3.4072,3.3291,3.3083,0.0,3.2232,0.0,3.1475,3.161,0.0,0.0,0.0,0.0,0.0,0.0,0.0,3.1807,0.0,0.0,0.0,3.2217,3.2495,3.2748,3.2978,3.3147,3.3268,3.3376,3.3376,3.3376,3.3376,3.3376,3.3376,3.3376,3.3376,3.3376,3.3376,3.3376,3.3376,3.3376,3.3376,3.3376,3.3376,3.3376,3.3376,3.3376,3.3376,3.328,3.3183,3.3183,3.3074,3.2954,3.2821,3.2592,0.0,0.0,0.0,0.0,0.0,0.0,0.0,0.0,0.0,0.0,0.0,0.0,0.0,0.0,0.0,0.0,0.0,0.0,3.3376,0.0,0.0,0.0,0.0,0.0,0.0,3.3376,3.3376,3.3376,3.3376,3.3376,3.3376,3.3376,3.3376,3.3376,3.3376,3.3376,3.3376,3.3376,3.3376,3.3376,3.3376,3.3376,3.3376,3.3376,0.0,3.1264,0.0,0.0,3.2341,0.0,3.335,3.3586,3.3884,3.4015,3.4229,3.4416,3.4416,3.4683,3.4857,3.4843,3.5057,3.5191,3.5191,3.5191,3.4887,3.4229,3.4006,3.3693,3.3045,3.2408,3.2102,0.0,0.0,0.0,0.0,0.0,0.0,0.0,0.0,0.0,0.0,0.0,3.2314,3.2398,3.2821,3.3014,3.3074,3.3304,3.3376,3.3376,3.3437,3.3473,3.3473,3.3533,3.3473,3.3376,3.3376,3.34,3.3473,3.3473,3.3497,3.3533,3.3533,3.3533,3.3533,3.3533,3.3533,3.3533,3.3533,3.3533,3.3533,3.3533,3.3497,3.3376,3.305,3.2821,0.0,0.0,0.0,0.0,0.0,0.0,0.0,0.0,0.0,0.0,3.1976,0.0,0.0,0.0,0.0,0.0,3.2652,0.0,0.0,0.0,0.0,3.3376,3.3376,0.0,3.3376,3.3376,3.3376,3.3376,3.3376,3.3376,3.3376,3.3376,3.3376,3.3376,3.3376,3.3376,3.3376,3.3376,3.3376,3.3376,3.3376,3.3376,3.3376,3.3376,0.0,0.0,0.0,0.0,0.0,0.0,0.0,3.4523,3.4616,3.4322,3.4536,3.4723,3.4723,3.4977,3.5151,3.5151,3.5177,3.5191,3.5191,3.5191,3.5177,3.5151,3.4518,3.4293,3.4056,3.3633,3.301,0.0,0.0,0.0,0.0,0.0,0.0,0.0,0.0,0.0,0.0,3.2447,3.2688,3.2917,3.2954,3.3111,3.334,3.3376,3.3376,3.34,3.3666,3.3762,3.3787,3.4016,3.3787,3.3376,3.3376,3.3533,3.3762,3.3762,3.3919,3.4113,3.4113,3.4113,3.4113,3.4113,3.4113,3.4113,3.4113,3.4113,3.4113,3.4113,3.3919,3.3593,3.3074,3.2954,3.2857,0.0,0.0,0.0,0.0,0.0,0.0,0.0,0.0,0.0,0.0,3.2519,0.0,0.0,3.2555,0.0,0.0,0.0,0.0,3.3376,0.0,3.3376,3.3376,3.3376,3.3376,3.3376,3.3376,3.3376,3.3376,3.3376,3.3376,3.3376,3.3376,3.3376,3.3376,3.3376,3.3376,3.3376,3.3376,3.3376,3.3376,3.3376,3.3376,3.3376,0.0,0.0,0.0,0.0,0.0,0.0,0.0,3.5097,3.5311,3.5364,3.5164,3.5084,3.5271,3.5391,3.5525,3.5712,3.5725,3.5725,3.5725,3.5725,3.5725,3.5725,3.5511,3.5296,3.5296,3.4867,3.4347,0.0,0.0,0.0,0.0,0.0,0.0,0.0,0.0,3.3305,3.31,3.3371,3.3323,3.3014,3.334,3.3533,3.363,3.3799,3.3859,3.3859,3.3992,3.4016,3.4052,3.4149,3.4052,3.3859,3.3859,3.3919,3.4016,3.4016,3.4088,3.4185,3.4185,3.4185,3.4185,3.4185,3.4185,3.4185,3.4185,3.4185,3.4185,3.4185,3.3992,3.3726,3.3497,3.334,3.3147,0.0,0.0,0.0,0.0,0.0,0.0,0.0,0.0,0.0,0.0,0.0,0.0,0.0,0.0,0.0,0.0,0.0,0.0,3.3376,0.0,3.3376,3.3376,3.3376,3.3376,3.3376,3.3376,3.3376,3.3376,3.3376,3.3376,3.3376,3.3376,3.3376,3.3376,3.3376,3.3376,3.3376,3.3376,3.3376,3.3376,3.3376,3.3376,3.3376,3.3678,0.0,3.4148,0.0,3.4897,3.5217,3.5418,3.5631,3.5832,3.6046,3.5712,3.5538,3.5738,3.5765,3.5845,3.6059,3.6072,3.6072,3.6072,3.6072,3.6072,3.6072,3.6072,0.0,3.6072,3.564,3.5318,3.4906,3.4235,0.0,0.0,0.0,0.0,0.0,3.4195,3.4296,3.3946,3.4011,3.3949,3.3588,3.3762,3.3919,3.3919,3.4113,3.4185,3.4185,3.4281,3.4318,3.4318,3.4378,3.4414,3.4378,3.4221,3.4245,3.4318,3.4318,3.4342,3.4414,3.4414,3.4414,3.4414,3.4414,3.4414,3.4414,3.4414,3.4414,3.4378,3.4318,3.4149,3.3992,3.3823,3.363,3.34,3.3147,0.0,0.0,0.0,0.0,0.0,0.0,0.0,3.2821,3.2821,3.2821,0.0,0.0,0.0,0.0,0.0,0.0,0.0,0.0,0.0,0.0,0.0,3.3376,3.3376,3.3376,3.3376,3.3376,3.3376,3.3376,3.3376,3.3376,3.3376,3.3376,3.3376,3.3376,3.3376,3.3376,3.3376,3.3376,3.3376,3.3376,3.3376,3.3376,3.4322,3.479,3.5191,3.5191,3.5672,3.6059,3.6059,3.6059,3.6072,3.6072,3.6059,3.6059,3.6059,3.6072,3.6072,3.6072,3.6072,3.6072,3.6072,3.6072,3.6072,0.0,0.0,3.6072,3.6072,3.6072,3.5856,3.5193,0.0,0.0,3.4337,0.0,3.4337,3.435,3.4617,3.4884,3.5151,3.4782,3.4829,3.5089,3.4402,3.4185,3.4185,3.4185,3.4185,3.4221,3.4475,3.4571,3.4607,3.4873,3.497,3.4873,3.4342,3.4342,3.4571,3.4571,3.474,3.497,3.497,3.497,3.497,3.497,3.497,3.497,3.497,3.497,3.4873,3.4607,3.4571,3.4414,3.3895,3.3787,3.369,3.34,0.0,0.0,0.0,0.0,0.0,0.0,3.3376,3.3376,3.3376,3.3376,0.0,0.0,0.0,0.0,0.0,0.0,0.0,3.3376,3.3376,0.0,3.3376,3.3376,3.3376,3.3376,3.3376,3.3376,3.3376,3.3376,3.3376,3.3376,3.3376,3.3376,3.3376,3.3376,3.3376,3.3376,3.3376,3.3376,3.3376,3.3376,3.3376,3.3376,3.5511,3.5658,3.5792,3.5792,3.5952,3.6139,3.634,3.6366,3.6433,3.6647,3.6647,3.6647,3.6647,3.6473,3.6433,0.0,3.6647,3.6647,0.0,3.6647,3.6647,3.6647,3.6647,3.6647,3.6647,3.6647,3.6567,3.6148,0.0,0.0,0.0,3.5339,3.5663,3.587,3.6394,3.638,3.6428,3.5838,3.5471,3.5127,3.4609,3.4438,3.4475,3.4644,3.4704,3.474,3.4801,3.4837,3.4861,3.4933,3.497,3.4933,3.4764,3.4764,3.4837,3.4837,3.4897,3.497,3.497,3.497,3.497,3.497,3.497,3.497,3.497,3.497,3.4933,3.4861,3.4704,3.4511,3.4342,3.4016,3.3762,3.3666,3.3497,0.0,0.0,0.0,0.0,0.0,3.3376,3.3376,0.0,3.3376,0.0,0.0,0.0,0.0,0.0,0.0,0.0,0.0,3.3376,0.0,3.3376,3.3376,3.3376,3.3376,3.3376,3.3376,3.3376,3.3376,3.3376,3.3376,3.3376,3.3376,3.3376,3.3376,3.3376,3.3376,3.3376,3.3376,3.3376,3.3376,3.3376,3.3376,3.6072,3.6166,3.6233,3.6233,3.6326,3.6473,3.6647,3.6687,3.6767,3.7048,3.7114,3.7155,3.7261,3.7114,0.0,3.6941,3.6941,3.6941,3.6941,3.7048,3.7114,3.7114,3.7195,3.7261,3.7261,0.0,0.0,3.7008,3.6735,3.6617,3.6155,3.6577,3.6933,3.7078,3.7317,3.7489,3.7312,3.6842,3.6232,3.6104,3.5573,3.5415,3.5439,3.5378,3.5439,3.5204,3.497,3.497,3.497,3.497,3.497,3.497,3.497,3.497,3.497,3.497,3.497,3.497,3.497,3.497,3.497,3.497,3.497,3.497,3.497,3.497,3.497,3.497,3.4837,3.4704,3.4607,3.4221,3.3919,3.3799,3.3569,3.3376,3.3376,0.0,0.0,0.0,0.0,0.0,0.0,3.3376,3.3376,0.0,0.0,0.0,0.0,0.0,0.0,3.3376,3.3376,0.0,3.3376,3.3376,3.3376,3.3376,3.3376,3.3376,3.3376,3.3376,3.3376,3.3376,3.3376,3.3376,3.3376,3.3376,3.3376,3.3376,3.3376,3.3376,3.3376,3.3376,3.3376,3.3376,3.6356,3.6353,0.0,0.0,3.6754,0.0,3.6967,3.6981,3.7088,3.7382,3.7422,3.7529,3.7782,3.7809,3.7595,3.7048,0.0,0.0,0.0,3.7261,3.7422,3.7422,3.7676,3.7809,3.7809,3.7809,3.7809,3.7809,3.7809,3.7809,3.7809,3.7809,3.7809,3.7849,3.7849,3.7996,3.829,3.7614,3.7527,3.7775,3.7076,3.6843,3.683,3.6129,3.5907,3.5895,3.5439,3.5216,3.5216,3.497,3.497,3.497,3.497,3.497,3.497,3.497,3.497,3.497,3.497,3.497,3.497,3.497,3.497,3.497,3.497,3.497,3.497,3.497,3.497,3.4897,3.4644,3.4378,3.4113,3.3859,3.3569,3.3376,3.3376,0.0,0.0,0.0,0.0,0.0,0.0,3.3376,3.3376,0.0,0.0,0.0,0.0,0.0,3.3376,3.3376,3.3376,3.3376,3.3376,3.3376,3.3376,3.3376,3.3376,3.3376,3.3376,3.3376,3.3376,3.3376,3.3376,3.3376,3.3376,3.3376,3.3376,3.3376,3.3376,3.3376,3.3376,3.3376,3.3376,3.3376,0.0,0.0,3.6834,3.6834,3.7088,3.7275,3.7275,3.7448,3.7635,3.7702,3.7702,3.7742,3.7809,3.7809,3.7742,3.7635,3.7595,3.7595,3.7595,3.7676,3.7702,3.7702,3.7782,3.7809,3.7809,3.7809,3.7809,3.7809,3.7809,3.7809,3.7809,3.7809,3.7929,3.8143,3.8143,3.833,3.8611,3.7903,3.771,3.7775,3.7076,3.6843,3.6843,3.6622,3.6609,3.6609,3.6363,3.6363,3.6375,3.5895,3.5673,3.5673,3.5216,3.497,3.497,3.497,3.497,3.497,3.497,3.497,3.497,3.497,3.497,3.497,3.497,3.497,3.497,3.497,3.497,3.4933,3.4897,3.4511,3.4149,3.4088,3.369,3.3376,3.3376,3.3376,0.0,0.0,3.3376,3.3376,3.3376,3.3376,3.3376,0.0,0.0,0.0,0.0,3.3376,3.3376,3.3376,3.3376,3.3376,3.3376,3.3376,3.3376,3.3376,3.3376,3.3376,3.3376,3.3376,3.3376,3.3376,3.3376,3.3376,3.3376,3.3376,3.3376,3.3376,3.3376,3.3376,3.3376,3.3376,3.3376,3.3376,3.9123,3.8695,3.828,3.8208,3.8359,3.8271,3.8046,3.8181,3.8089,3.801,3.7996,3.8076,3.821,3.821,3.821,3.821,3.7956,3.7809,3.7809,3.7929,3.7996,3.7996,3.8143,3.821,3.821,3.821,3.821,3.821,3.821,3.821,3.821,3.821,3.833,3.8477,3.8477,3.8584,3.8718,3.8253,3.8266,3.8266,3.7788,3.7775,3.7529,3.7309,3.7322,3.7322,3.6855,3.6843,3.683,3.6363,3.6375,3.6141,3.5907,3.5895,3.5649,3.5427,3.5192,3.497,3.497,3.497,3.497,3.497,3.497,3.497,3.497,3.497,3.497,3.497,3.497,3.497,3.497,3.4535,3.4185,3.4185,3.3726,3.3376,3.3376,3.3376,0.0,3.3376,3.3376,3.3376,3.3376,3.3376,3.3376,3.3376,0.0,0.0,3.3376,3.3376,3.3376,3.3376,3.3376,3.3376,3.3376,3.3376,3.3376,3.3376,3.3376,3.3376,3.3376,3.3376,3.3376,3.3376,3.3376,3.3376,3.3376,3.3376,3.3376,3.3376,3.3376,3.3376,3.3376,3.3376,3.3376,3.3376,4.0973,4.0588,4.0452,4.0234,4.0109,3.9912,3.9263,3.9078,3.896,3.852,3.8344,3.8437,3.8691,3.8718,3.8718,3.8718,3.825,3.7956,3.7956,3.8183,3.833,3.833,3.8584,3.8718,3.8718,3.8718,3.8718,3.8718,3.8718,3.8718,3.8718,3.8718,3.8718,3.8718,3.8718,3.8718,3.8718,3.8718,3.8718,3.8718,3.8718,3.8718,3.8718,3.8021,3.8034,3.7788,3.7296,3.7076,3.7076,3.7063,3.6855,3.6855,3.6843,3.6843,3.6596,3.6129,3.5673,3.5192,3.497,3.497,3.497,3.497,3.497,3.497,3.497,3.497,3.497,3.497,3.497,3.497,3.4897,3.4511,3.4185,3.4125,3.3702,3.3376,3.3376,0.0,3.3376,3.3376,3.3376,3.3376,3.3376,3.3376,3.3376,3.3376,3.3376,3.3376,3.3376,3.3376,3.3376,3.3376,3.3376,3.3376,3.3376,3.3376,3.3376,3.3376,3.3376,3.3376,3.3376,3.3376,3.3376,3.3376,3.3376,3.3376,3.3376,3.3376,3.3376,3.3376,3.3376,3.3376,3.3376,3.3376,3.3376,3.3376,4.3766,4.3087,4.2896,4.2704,4.2499,4.2018,4.1581,4.0689,3.9941,3.9549,3.8882,3.8651,3.8718,3.8718,3.8718,3.8718,3.8651,3.8584,3.8584,3.8611,3.8651,3.8651,3.8691,3.8718,3.8718,3.8718,3.8718,3.8718,3.8718,3.8718,3.8718,3.8718,3.8718,3.8718,3.8718,3.8718,3.8718,3.8718,3.8718,3.8718,3.8718,3.8718,3.8718,3.8718,3.8472,3.8512,3.8499,3.8485,3.8253,3.7788,3.7529,3.7555,3.7063,3.6843,3.6843,3.6596,3.6609,3.6375,3.5192,3.497,3.497,3.497,3.497,3.497,3.497,3.497,3.497,3.497,3.497,3.4897,3.4668,3.4378,3.4113,3.3895,3.3593,3.3376,3.3376,0.0,3.3376,3.3376,3.3376,3.3376,3.3376,3.3376,3.3376,3.3376,3.3376,3.3376,3.3376,3.3376,3.3376,3.3376,3.3376,3.3376,3.3376,3.3376,3.3376,3.3376,3.3376,3.3376,3.3376,3.3376,3.3376,3.3376,3.3376,3.3376,3.3376,3.3376,3.3376,3.3376,3.3376,3.3376,3.3376,3.3376,3.3376,3.3376,4.651,4.6118,4.574,4.5249,4.5183,4.4603,4.3278,4.2716,4.2119,4.1245,4.054,4.0093,4.0093,3.9631,3.9181,3.9181,3.895,3.8718,3.8718,3.8718,3.8718,3.8718,3.8718,3.8718,3.8718,3.8718,3.8718,3.8718,3.8718,3.8718,3.8718,3.8718,3.8718,3.8718,3.8718,3.8718,3.8718,3.8718,3.8718,3.8718,3.8718,3.8718,3.8718,3.8718,3.8718,3.8718,3.8718,3.8718,3.8718,3.8485,3.824,3.8266,3.7994,3.7788,3.7788,3.7542,3.6843,3.6129,3.5673,3.5192,3.497,3.497,3.497,3.497,3.497,3.497,3.497,3.497,3.497,3.4897,3.4607,3.4342,3.4088,3.3823,3.3569,0.0,0.0,3.3376,3.3376,3.3376,3.3376,3.3376,3.3376,3.3376,3.3376,3.3376,3.3376,3.3376,3.3376,3.3376,3.3376,3.3376,3.3376,3.3376,3.3376,3.3376,3.3376,3.3376,3.3376,3.3376,3.3376,3.3376,3.3376,3.3376,3.3376,3.3376,3.3376,3.3376,3.3376,3.3376,3.3376,3.3376,3.3376,3.3376,3.3376,3.3376,4.9111,4.8943,4.879,4.7949,4.7776,4.6912,4.5529,4.4866,4.4201,4.3078,4.2591,4.2148,4.1934,4.1001,4.031,4.0079,3.9413,3.9168,3.895,3.8731,3.8718,3.8718,3.8718,3.8718,3.8718,3.8718,3.8718,3.8718,3.8718,3.8718,3.8718,3.8718,3.8718,3.8718,3.8718,3.8718,3.8718,3.8718,3.8718,3.8718,3.8718,3.8718,3.8718,3.8718,3.8718,3.8718,3.8718,3.8718,3.8718,3.8718,3.8718,3.8718,3.8718,3.8718,3.8718,3.8253,3.7322,3.6375,3.5907,3.5661,3.5192,3.497,3.497,3.497,3.497,3.497,3.497,3.497,3.497,3.4873,3.4547,3.4318,3.4088,3.3762,0.0,0.0,0.0,3.3376,3.3376,3.3376,3.3376,3.3376,3.3376,3.3376,3.3376,3.3376,3.3376,3.3376,3.3376,3.3376,3.3376,3.3376,3.3376,3.3376,3.3376,3.3376,3.3376,3.3376,3.3376,3.3376,3.3376,3.3376,3.3376,3.3376,3.3376,3.3376,3.3376,3.3376,3.3376,3.3376,3.3376,3.3376,3.3376,3.3376,3.3376,3.3376,5.1102,5.1102,5.1102,5.112,5.0034,4.9147,4.8479,4.6896,4.5561,4.4882,4.4413,4.3716,4.3276,4.3063,4.2606,4.1475,4.0757,4.0093,3.9631,3.8963,3.8718,3.8718,3.8718,3.8718,3.8718,3.8718,3.8718,3.8718,3.8718,3.8718,3.8718,3.8718,3.8718,3.8718,3.8718,3.8718,3.8718,3.8718,3.8718,3.8718,3.8718,3.8718,3.8718,3.8718,3.8718,3.8718,3.8718,3.8718,3.8718,3.8718,3.8718,3.8718,3.8718,3.8718,3.8718,3.8718,3.8266,3.7309,3.6141,3.5895,3.5673,3.5216,3.497,3.497,3.497,3.497,3.497,3.497,3.497,3.4801,3.4318,3.4185,3.4016,3.3497,0.0,0.0,3.3376,3.3376,3.3376,3.3376,3.3376,3.3376,3.3376,3.3376,3.3376,3.3376,3.3376,3.3376,3.3376,3.3376,3.3376,3.3376,3.3376,3.3376,3.3376,3.3376,3.3376,3.3376,3.3376,3.3376,3.3376,3.3376,3.3376,3.3376,3.3376,3.3376,3.3376,3.3376,3.3376,3.3376,3.3376,3.3376,3.3376,3.3376,3.3376,3.3376,5.2436,5.2436,5.2235,5.2034,5.1577,5.0917,5.0034,4.913,4.8668,4.8016,4.7312,4.6863,4.6205,4.5529,4.4382,4.3291,4.2606,4.1919,4.0771,4.0093,3.9413,3.8731,3.8718,3.8718,3.8718,3.8718,3.8718,3.8718,3.8718,3.8718,3.8718,3.8718,3.8718,3.8718,3.8718,3.8718,3.8718,3.8718,3.8718,3.8718,3.8718,3.8718,3.8718,3.8718,3.8718,3.8718,3.8718,3.8718,3.8718,3.8718,3.8718,3.8718,3.8718,3.8718,3.8718,3.8718,3.8499,3.8266,3.7335,3.683,3.6363,3.6129,3.5895,3.5661,3.5661,3.5192,3.497,3.497,3.4837,3.4607,3.4245,3.4052,3.3823,3.3437,0.0,3.3376,3.3376,3.3376,3.3376,3.3376,3.3376,3.3376,3.3376,3.3376,3.3376,3.3376,3.3376,3.3376,3.3376,3.3376,3.3376,3.3376,3.3376,3.3376,3.3376,3.3376,3.3376,3.3376,3.3376,3.3376,3.3376,3.3376,3.3376,3.3376,3.3376,3.3376,3.3376,3.3376,3.3376,3.3376,3.3376,3.3376,3.3376,3.3376,3.3376,3.3376,5.3109,5.3109,5.2891,5.2691,5.2472,5.2034,5.1138,5.09,5.0714,5.0272,4.9778,4.9335,4.8701,4.7999,4.6847,4.5529,4.4851,4.3944,4.2392,4.1216,4.0065,3.8731,3.8718,3.8718,3.8718,3.8718,3.8718,3.8718,3.8718,3.8718,3.8718,3.8718,3.8718,3.8718,3.8718,3.8718,3.8718,3.8718,3.8718,3.8718,3.8718,3.8718,3.8718,3.8718,3.8718,3.8718,3.8718,3.8718,3.8718,3.8718,3.8718,3.8718,3.8718,3.8718,3.8718,3.8718,3.8718,3.8718,3.8266,3.7775,3.7296,3.6855,3.6388,3.5907,3.5907,3.5451,3.497,3.497,3.4764,3.4511,3.4221,3.3956,3.369,3.34,3.3376,3.3376,3.3376,3.3376,3.3376,3.3376,3.3376,3.3376,3.3376,3.3376,3.3376,3.3376,3.3376,3.3376,3.3376,3.3376,3.3376,3.3376,3.3376,3.3376,3.3376,3.3376,3.3376,3.3376,3.3376,3.3376,3.3376,3.3376,3.3376,3.3376,3.3376,3.3376,3.3376,3.3376,3.3376,3.3376,3.3376,3.3376,3.3376,3.3376,3.3376,3.3376,5.3109,5.3109,5.3109,5.3109,5.2709,5.2271,5.2271,5.1815,5.1375,5.1375,5.1375,5.1138,5.0476,5.0459,4.9778,4.8016,4.7328,4.6205,4.4398,4.189,4.0065,3.8731,3.8731,3.8718,3.8718,3.8718,3.8718,3.8718,3.8718,3.8718,3.8718,3.8718,3.8718,3.8718,3.8718,3.8718,3.8718,3.8718,3.8718,3.8718,3.8718,3.8718,3.8718,3.8718,3.8718,3.8718,3.8718,3.8718,3.8718,3.8718,3.8718,3.8718,3.8718,3.8718,3.8718,3.8718,3.8718,3.8718,3.8718,3.8718,3.8485,3.7076,3.635,3.5907,3.5907,3.5451,3.497,3.497,3.474,3.4475,3.4221,3.3956,3.369,3.34,3.3376,3.3376,3.3376,3.3376,3.3376,3.3376,3.3376,3.3376,3.3376,3.3376,3.3376,3.3376,3.3376,3.3376,3.3376,3.3376,3.3376,3.3376,3.3376,3.3376,3.3376,3.3376,3.3376,3.3376,3.3376,3.3376,3.3376,3.3376,3.3376,3.3376,3.3376,3.3376,3.3376,3.3376,3.3376,3.3376,3.3376,3.3376,3.3376,3.3376,3.3376,3.3376,5.3109,5.3109,5.3109,5.3109,5.2909,5.2891,5.2891,5.2673,5.2691,5.2691,5.2691,5.2472,5.1815,5.1797,5.1155,4.9795,4.9556,4.8222,4.5561,4.3276,4.1216,4.0079,3.9181,3.8718,3.8718,3.8718,3.8718,3.8718,3.8718,3.8718,3.8718,3.8718,3.8718,3.8718,3.8718,3.8718,3.8718,3.8718,3.8718,3.8718,3.8718,3.8718,3.8718,3.8718,3.8718,3.8718,3.8718,3.8718,3.8718,3.8718,3.8718,3.8718,3.8718,3.8718,3.8718,3.8718,3.8718,3.8718,3.8718,3.8718,3.8718,3.824,3.7775,3.7322,3.7322,3.6363,3.5612,3.5439,3.4706,3.4221,3.3956,3.369,3.3473,3.3376,3.3376,3.3376,3.3376,3.3376,3.3376,3.3376,3.3376,3.3376,3.3376,3.3376,3.3376,3.3376,3.3376,3.3376,3.3376,3.3376,3.3376,3.3376,3.3376,3.3376,3.3376,3.3376,3.3376,3.3376,3.3376,3.3376,3.3376,3.3376,3.3376,3.3376,3.3376,3.3376,3.3376,3.3376,3.3376,3.3376,3.3376,3.3376,3.3376,3.3376,3.3376,3.3376,5.3109,5.3109,5.3109,5.3109,5.3109,5.3109,5.3109,5.3109,5.3109,5.3109,5.3109,5.2909,5.2709,5.2691,5.2253,5.134,5.0476,4.9352,4.7137,4.4851,4.2805,4.1661,4.0554,3.9413,3.8731,3.8718,3.8718,3.8718,3.8718,3.8718,3.8718,3.8718,3.8718,3.8718,3.8718,3.8718,3.8718,3.8718,3.8718,3.8718,3.8718,3.8718,3.8718,3.8718,3.8718,3.8718,3.8718,3.8718,3.8718,3.8718,3.8718,3.8718,3.8718,3.8718,3.8718,3.8718,3.8718,3.8718,3.8718,3.8718,3.8718,3.8718,3.8266,3.7788,3.7788,3.6766,3.5697,3.5536,3.4754,3.3992,3.3823,3.3569,3.3376,3.3376,3.3376,3.3376,3.3376,3.3376,3.3376,3.3376,3.3376,3.3376,3.3376,3.3376,3.3376,3.3376,3.3376,3.3376,3.3376,3.3376,3.3376,3.3376,3.3376,3.3376,3.3376,3.3376,3.3376,3.3376,3.3376,3.3376,3.3376,3.3376,3.3376,3.3376,3.3376,3.3376,3.3376,3.3376,3.3376,3.3376,3.3376,3.3376,3.3376,3.3376,3.3376,3.3376,5.3109,5.3109,5.3109,5.3109,5.3109,5.3109,5.3109,5.3109,5.3109,5.3109,5.3109,5.3109,5.3109,5.3109,5.2891,5.2472,5.0714,4.9591,4.8924,4.6671,4.4851,4.3519,4.2377,4.1015,3.9181,3.895,3.895,3.895,3.895,3.8936,3.8731,3.8731,3.8731,3.8718,3.8718,3.8718,3.8718,3.8718,3.8718,3.8718,3.8718,3.8718,3.8718,3.8718,3.8718,3.8718,3.8718,3.8718,3.8718,3.8718,3.8718,3.8718,3.8718,3.8718,3.8718,3.8718,3.8718,3.8718,3.8718,3.8718,3.8718,3.8718,3.824,3.7762,3.7762,3.6614,3.5717,3.5449,3.457,3.3799,3.3762,3.3533,3.3376,3.3376,3.3376,3.3376,3.3376,3.3376,3.3376,3.3376,3.3376,3.3376,3.3376,3.3376,3.3376,3.3376,3.3376,3.3376,3.3376,3.3376,3.3376,3.3376,3.3376,3.3376,3.3376,3.3376,3.3376,3.3376,3.3376,3.3376,3.3376,3.3376,3.3376,3.3376,3.3376,3.3376,3.3376,3.3376,3.3376,3.3376,3.3376,3.3376,3.3376,3.3376,3.3376,3.3376,5.3109,5.3109,5.3109,5.3109,5.3109,5.3109,5.3109,5.3109,5.3109,5.3109,5.3109,5.3109,5.3109,5.3109,5.3109,5.2909,5.2253,5.1155,5.0255,4.8222,4.6639,4.5529,4.4156,4.3504,4.3018,4.1202,4.0093,4.0093,4.0093,3.9862,3.9399,3.9399,3.9181,3.8718,3.8718,3.8718,3.8718,3.8718,3.8718,3.8718,3.8718,3.8718,3.8718,3.8718,3.8718,3.8718,3.8718,3.8718,3.8718,3.8718,3.8718,3.8718,3.8718,3.8718,3.8718,3.8718,3.8718,3.8718,3.8718,3.8718,3.8718,3.8718,3.8531,3.8114,3.8114,3.7614,3.6755,3.5838,3.4981,3.4405,3.3509,3.34,3.3376,3.3376,3.3376,3.3376,3.3376,3.3376,3.3376,3.3376,3.3376,3.3376,3.3376,3.3376,3.3376,3.3376,3.3376,3.3376,3.3376,3.3376,3.3376,3.3376,3.3376,3.3376,3.3376,3.3376,3.3376,3.3376,3.3376,3.3376,3.3376,3.3376,3.3376,3.3376,3.3376,3.3376,3.3376,3.3376,3.3376,3.3376,3.3376,3.3376,3.3376,3.3376,3.3376,3.3376,5.3109,5.3109,5.3109,5.3109,5.3109,5.3109,5.3109,5.3109,5.3109,5.3109,5.3109,5.3109,5.3109,5.3109,5.3109,5.3109,5.2691,5.2034,5.1375,5.0034,4.8651,4.7792,4.6847,4.6173,4.5948,4.4609,4.3474,4.2333,4.2134,4.1675,4.146,4.0771,4.031,4.0107,3.9399,3.9168,3.9168,3.8704,3.8718,3.8718,3.8718,3.8718,3.8718,3.8718,3.8718,3.8718,3.8718,3.8718,3.8718,3.8718,3.8718,3.8718,3.8718,3.8718,3.8718,3.8718,3.8718,3.8718,3.8718,3.8718,3.8718,3.8718,3.8477,3.8263,3.8263,3.7593,3.6609,3.5847,3.5032,3.422,3.3612,3.3376,3.3376,3.3376,3.3376,3.3376,3.3376,3.3376,3.3376,3.3376,3.3376,3.3376,3.3376,3.3376,3.3376,3.3376,3.3376,3.3376,3.3376,3.3376,3.3376,3.3376,3.3376,3.3376,3.3376,3.3376,3.3376,3.3376,3.3376,3.3376,3.3376,3.3376,3.3376,3.3376,3.3376,3.3376,3.3376,3.3376,3.3376,3.3376,3.3376,3.3376,3.3376,3.3376,3.3376,3.3376,5.3109,5.3109,5.3109,5.3109,5.3109,5.3109,5.3109,5.3109,5.3109,5.3109,5.3109,5.3109,5.3109,5.3109,5.3109,5.3109,5.2709,5.2472,5.2271,5.1358,5.0476,5.0034,4.9352,4.889,4.8428,4.8428,4.7328,4.482,4.4186,4.3944,4.3731,4.2606,4.1948,4.1719,4.0785,4.0093,3.9862,3.9399,3.8963,3.8936,3.8936,3.8731,3.8718,3.8718,3.8718,3.8718,3.8718,3.8718,3.8718,3.8718,3.8718,3.8718,3.8718,3.8718,3.8718,3.8718,3.8718,3.8718,3.8718,3.8718,3.8718,3.8651,3.8397,3.8183,3.8116,3.7276,3.6471,3.5745,3.4869,3.4259,3.3612,3.3376,3.3376,3.3376,3.3376,3.3376,3.3376,3.3376,3.3376,3.3376,3.3376,3.3376,3.3376,3.3376,3.3376,3.3376,3.3376,3.3376,3.3376,3.3376,3.3376,3.3376,3.3376,3.3376,3.3376,3.3376,3.3376,3.3376,3.3376,3.3376,3.3376,3.3376,3.3376,3.3376,3.3376,3.3376,3.3376,3.3376,3.3376,3.3376,3.3376,3.3376,3.3376,3.3376,3.3376,3.3376,5.3109,5.3109,5.3109,5.3109,5.3109,5.3109,5.3109,5.3109,5.3109,5.3109,5.3109,5.3109,5.3109,5.3109,5.3109,5.3109,5.3109,5.2691,5.2271,5.207,5.1815,5.1138,5.112,5.0935,5.09,5.09,4.9778,4.7295,4.6671,4.6205,4.5513,4.4835,4.3974,4.3063,4.2835,4.2163,4.1245,4.1245,4.0568,3.9413,3.9413,3.9181,3.8718,3.8718,3.8718,3.8718,3.8718,3.8718,3.8718,3.8718,3.8718,3.8718,3.8718,3.8718,3.8718,3.8718,3.8718,3.8718,3.8718,3.8718,3.8651,3.8397,3.8103,3.7809,3.7569,3.7448,3.6841,3.5476,3.5189,3.473,3.3588,3.3376,3.3376,3.3376,3.3376,3.3376,3.3376,3.3376,3.3376,3.3376,3.3376,3.3376,3.3376,3.3376,3.3376,3.3376,3.3376,3.3376,3.3376,3.3376,3.3376,3.3376,3.3376,3.3376,3.3376,3.3376,3.3376,3.3376,3.3376,3.3376,3.3376,3.3376,3.3376,3.3376,3.3376,3.3376,3.3376,3.3376,3.3376,3.3376,3.3376,3.3376,3.3376,3.3376,3.3376,3.3376,5.3109,5.3109,5.3109,5.3109,5.3109,5.3109,5.3109,5.3109,5.3109,5.3109,5.3109,5.3109,5.3109,5.3109,5.3109,5.3109,5.3109,5.2891,5.2691,5.2691,5.2691,5.2454,5.2235,5.2235,5.2235,5.2235,5.1779,5.0662,4.9539,4.8668,4.8445,4.7535,4.6671,4.5771,4.5093,4.4398,4.3504,4.2835,4.2163,4.169,4.1015,4.031,3.9631,3.9399,3.8963,3.8718,3.8718,3.8718,3.8718,3.8718,3.8718,3.8718,3.8718,3.8718,3.8718,3.8718,3.8718,3.8718,3.8718,3.8584,3.8437,3.829,3.7929,3.7529,3.7422,3.7275,3.6865,3.5412,3.5164,3.4928,3.3588,3.3376,3.3376,3.3376,3.3376,3.3376,3.3376,3.3376,3.3376,3.3376,3.3376,3.3376,3.3376,3.3376,3.3376,3.3376,3.3376,3.3376,3.3376,3.3376,3.3376,3.3376,3.3376,3.3376,3.3376,3.3376,3.3376,3.3376,3.3376,3.3376,3.3376,3.3376,3.3376,3.3376,3.3376,3.3376,3.3376,3.3376,3.3376,3.3376,3.3376,3.3376,3.3376,3.3376,3.3376,3.334]}]]